     2.11           OBSERVATION DATA    G (GPS)             RINEX VERSION / TYPE
teqc 2010Oct21 OPUS Account 20111025 20:24:33UTC            PGM / RUN BY / DATE
3287                                                        MARKER NAME
1137                                                        MARKER NUMBER
CSMIDDLETON NGS                                             OBSERVER / AGENCY
0220284361 TRIMBLE 5700 NP 1.22 / SP 1.22                   REC # / TYPE / VERS
12234991 TRM41249.00 NONE                                   ANT # / TYPE
  -739013.8500 -5480266.1429  3167895.4900                  APPROX POSITION XYZ
        2.0000        0.0000        0.0000                  ANTENNA: DELTA H/E/N
     1     1                                                WAVELENGTH FACT L1/2
     5    L1    L2    C1    P1    P2                        # / TYPES OF OBSERV
    15                                                      LEAP SECONDS
  2011     7    29    13    39    0.0000000     GPS         TIME OF FIRST OBS
                                                            END OF HEADER
 11  7 29 13 39  0.0000000  0  7G14G16G20G23G24G31G32
     21708.82856     10007.19854  23309690.6414                   23309689.6994
   -145832.45757    -98057.52755  22433126.7734                   22433123.7504
   -114843.76657    -77972.70555  21970436.0944                   21970433.1214
   -113572.30957    -77638.03354  24015453.6954                   24015450.6564
     15195.31357      5699.63654  23093191.3984                   23093190.2854
     30436.38758     19689.44556  21215043.4304                   21215040.2584
    -74445.83658    -51826.55256  20955024.1724                   20955021.6334
 11  7 29 13 39 30.0000000  0  7G14G16G20G23G24G31G32
     41525.19946     25448.42944  23313462.0004                   23313460.3714
   -281105.18747   -203464.84745  22407385.0474                   22407382.1024
   -222010.62947   -161479.35245  21950042.7814                   21950039.6454
   -220662.17646   -161084.68944  23995074.0474                   23995071.7304
     28598.70347     16143.81844  23095741.8674                   23095741.2504
     58034.39848     41194.34246  21220295.1564                   21220291.9924
   -143620.31248   -105728.75646  20941860.2974                   20941858.1054
 11  7 29 13 40  0.0000000  0  7G14G16G20G23G24G31G32
     61251.48446     40819.53944  23317216.2034                   23317214.0164
   -416362.31647   -308860.00845  22381646.1564                   22381643.6954
   -329015.94947   -244860.12245  21929680.3284                   21929677.5594
   -328017.88346   -244738.49844  23974645.3754                   23974642.3284
     42107.02347     26669.69844  23098312.9774                   23098311.9024
     85607.32048     62679.68946  21225542.0474                   21225538.9774
   -212582.53948   -159465.58946  20928736.9224                   20928735.1414
 11  7 29 13 40 30.0000000  0  7G14G16G20G23G24G31G32
     81005.11747     56211.90644  23320975.4304                   23320974.3244
   -551483.85947   -414149.51145  22355933.4064                   22355931.1764
   -435740.00847   -328021.73145  21909371.5944                   21909368.2424
   -435522.26246   -328508.19544  23954188.2584                   23954185.5044
     55834.97347     37366.73744  23100924.5394                   23100923.7274
    113269.85948     84234.85846  21230805.8984                   21230802.6804
   -281213.78148   -212944.51246  20915677.5004                   20915674.9804
 11  7 29 13 41  0.0000000  0  7G14G16G20G23G24G31G32
    100820.07046     71652.09444  23324745.8594                   23324744.9344
   -686433.22347   -519304.88245  22330253.7734                   22330250.8984
   -542147.21147   -410936.43845  21889123.0394                   21889119.7194
   -543141.34447   -412367.24744  23933709.0474                   23933706.7114
     69812.85247     48258.57644  23103584.7194                   23103584.8984
    141053.52748    105884.42446  21236093.1564                   21236089.9804
   -349479.09048   -266138.27846  20902686.7664                   20902684.8364
 11  7 29 13 41 30.0000000  0  7G14G16G20G23G24G31G32
    120707.92647     87149.03044  23328530.6484                   23328529.3954
   -821196.54747   -624315.26745  22304609.0084                   22304606.5314
   -648224.12547   -493593.79945  21868937.6644                   21868933.7384
   -650864.38747   -496307.29444  23913210.2664                   23913206.9964
     84049.47347     59351.94444  23106293.9144                   23106293.6334
    168966.86348    127635.02846  21241404.6564                   21241401.5634
   -417365.94948   -319037.15946  20889768.4224                   20889766.4574
 11  7 29 13 42  0.0000000  0  7G14G16G20G23G24G31G32
    140672.34447    102705.63544  23332329.7584                   23332328.2774
   -955767.23447   -729175.53445  22279000.9304                   22278998.3094
   -753965.81247   -575989.93245  21848815.3594                   21848812.2274
   -758688.00847   -580325.72743  23892691.7814                   23892688.4104
     98545.49247     70647.49844  23109052.2894                   23109052.7854
    197011.12148    149487.64446  21246742.0004                   21246738.6414
   -484869.51248   -371637.35046  20876923.0474                   20876920.8914
 11  7 29 13 42 30.0000000  0  7G14G16G20G23G24G31G32
    160716.20347    118324.18143  23336143.6254                   23336142.4384
  -1090139.66447   -833881.32245  22253430.7894                   22253428.5234
   -859366.31247   -658120.21445  21828758.4454                   21828755.4734
   -866609.31647   -664420.27844  23872155.1804                   23872151.8554
    113300.52047     82144.86744  23111860.0314                   23111859.5354
    225186.62948    171442.53246  21252103.2344                   21252100.0594
   -551985.95348   -423935.90246  20864151.1724                   20864149.0354
 11  7 29 13 43  0.0000000  0  7G14G16G20G23G24G31G32
    180838.41847    134003.70344  23339973.4774                   23339970.8554
  -1224313.01247   -938431.98945  22227898.4694                   22227896.3284
   -964425.77347   -739984.74545  21808766.3364                   21808763.2464
   -974630.25047   -748592.41843  23851599.3134                   23851596.0204
    128309.77747     93840.33944  23114716.5084                   23114715.9774
    253489.37148    193496.56946  21257489.2274                   21257485.9614
   -618715.50848   -475932.97046  20851452.9304                   20851450.9774
 11  7 29 13 43 30.0000000  0  7G14G16G20G23G24G31G32
    201044.41846    149748.63243  23343817.9384                   23343817.0634
  -1358278.49247  -1042820.66745  22202405.8444                   22202402.6994
  -1069136.30147   -821577.38445  21788840.3204                   21788837.5784
  -1082744.96947   -832837.65644  23831025.7664                   23831022.6604
    143576.18847    105736.14444  23117621.6484                   23117621.4384
    281922.66448    215652.32946  21262899.9454                   21262896.3404
   -685051.26647   -527623.19146  20838829.6174                   20838827.2114
 11  7 29 13 44  0.0000000  0  7G14G16G20G23G24G31G32
    221338.01246    165561.70343  23347680.2584                   23347678.1644
  -1492030.00447  -1147042.64945  22176953.3524                   22176950.8054
  -1173492.87947   -902894.20745  21768982.0474                   21768978.9344
  -1190950.34447   -917153.55244  23810435.3134                   23810431.5594
    159100.18047    117832.71544  23120576.0084                   23120575.1374
    310487.20348    237910.36346  21268335.6564                   21268332.4224
   -750988.48848   -579002.86246  20826282.4064                   20826280.0664
 11  7 29 13 44 30.0000000  0  7G14G16G20G23G24G31G32
    241714.31346    181439.29243  23351557.1644                   23351555.3164
  -1625569.81247  -1251099.64045  22151541.9064                   22151538.8524
  -1277498.27347   -983937.39845  21749190.3444                   21749187.3554
  -1299251.86347  -1001544.37344  23789825.6724                   23789822.6524
    174873.80147    130123.79244  23123577.8674                   23123576.6414
    339175.73848    260265.01346  21273794.5474                   21273791.9534
   -816531.30548   -630075.21046  20813809.6334                   20813807.7114
 11  7 29 13 45  0.0000000  0  7G14G16G20G23G24G31G32
    262175.68446    197383.13543  23355451.4144                   23355449.2584
  -1758892.83647  -1354987.70845  22126170.8754                   22126168.3324
  -1381148.34047  -1064703.70145  21729466.6254                   21729463.4384
  -1407646.87547  -1086007.96844  23769199.1954                   23769195.8554
    190896.25047    142608.77544  23126626.9454                   23126626.1644
    367987.91848    282716.02246  21279277.6644                   21279274.5004
   -881676.03948   -680837.36646  20801413.6024                   20801411.1954
 11  7 29 13 45 30.0000000  0  7G14G16G20G23G24G31G32
   1858143.21946   1440994.14643  23659153.9454                   23659151.4694
   -316570.32447   -231100.04745  22400636.0634                   22400633.1994
     90984.46147     82412.76745  22009604.2194                   22009601.4304
     59289.75447     57059.51544  24048347.9694                   24048344.9454
   1782585.60547   1382886.13444  23429515.0234                   23429514.0594
   1972341.93048   1532861.96946  21584576.1724                   21584573.0664
    629002.18848    496314.47646  21088885.4774                   21088883.7814
 11  7 29 13 46  0.0000000  0  7G14G16G20G23G24G31G32
   1878784.25046   1457078.26043  23663080.8134                   23663080.1564
   -449443.18047   -334637.34745  22375350.9774                   22375348.6524
    -11940.16047      2211.77245  21990018.4694                   21990015.5044
    -49284.44947    -27543.81844  24027687.1644                   24027683.4654
   1799104.71547   1395758.10644  23432658.5474                   23432657.9224
   2001402.33248   1555506.40146  21590106.2894                   21590103.1884
    564665.02047    446181.59346  21076642.9224                   21076640.7154
 11  7 29 13 46 30.0000000  0  7G14G16G20G23G24G31G32
   1899512.75046   1473230.24643  23667025.8364                   23667024.5634
   -582088.09447   -437997.01845  22350109.7584                   22350107.2424
   -114500.43448    -77705.34345  21970502.0944                   21970498.5124
   -157949.61747   -112217.94744  24007008.8594                   24007005.4414
   1815866.58247   1408819.26044  23435848.1564                   23435848.1914
   2030582.23848   1578243.94646  21595659.0314                   21595655.8134
    500732.36347    396363.92246  21064476.8134                   21064474.8324
 11  7 29 13 47  0.0000000  0  7G14G16G20G23G24G31G32
   1920329.64146   1489451.15043  23670986.4614                   23670985.6994
   -714502.49247   -541177.07245  22324912.3754                   22324909.4494
   -216694.67648   -157337.22845  21951054.9924                   21951051.6804
   -266705.99247   -196963.17644  23986312.6334                   23986309.7814
   1832867.72747   1422066.83744  23439083.0784                   23439083.6884
   2059878.61748   1601072.26546  21601234.0634                   21601231.1454
    437204.68047    346861.82246  21052387.7814                   21052385.9064
 11  7 29 13 47 30.0000000  0  7G14G16G20G23G24G31G32
   1941239.02046   1505744.08343  23674966.6414                   23674965.3484
   -846679.70347   -644172.31245  22299759.7344                   22299756.4804
   -318517.34048   -236679.57145  21931678.5864                   21931675.5704
   -375549.70747   -281776.46444  23965600.8364                   23965597.6844
   1850109.17647   1435501.67144  23442364.5234                   23442364.1024
   2089292.99648   1623992.51646  21606831.3594                   21606828.1844
    374087.22347    297679.37546  21040377.1094                   21040374.7544
 11  7 29 13 48  0.0000000  0  7G14G16G20G23G24G31G32
                                  23678963.1954                   23678963.8054
   -978616.50847   -746980.22245  22274652.8204                   22274649.9774
   -419965.70347   -315730.24846  21912373.7504                   21912370.7854
   -484480.69947   -366657.76144  23944872.2664                   23944868.7034
   1867588.29347   1449121.72144  23445690.5784                   23445690.2934
   2118823.43448   1647003.20246  21612450.6644                   21612447.4024
    311381.52747    248817.76346  21028444.5314                   21028442.6054
 11  7 29 13 48 30.0000000  0  7G14G16G20G23G24G31G32
   1983349.57846   1538556.97443  23682978.0554                   23682976.0594
  -1110309.37147   -849598.04245  22249592.4064                   22249589.8714
   -521037.31647   -394487.33745  21893140.4224                   21893137.3484
   -593498.19147   -451606.46444  23924126.6174                   23924123.1414
   1885302.59447   1462925.01944  23449061.4844                   23449060.9144
   2148468.38348   1670103.11346  21618092.2194                   21618089.0824
    249089.26247    200278.31846  21016590.7584                   21016588.5204
 11  7 29 13 49  0.0000000  0  7G14G16G20G23G24G31G32
   2004540.60946   1555069.40744  23687010.3594                   23687009.0274
  -1241754.78547   -952023.04945  22224579.5704                   22224576.6884
   -621729.12547   -472948.48346  21873979.0704                   21873976.1294
   -702601.03947   -536621.66044  23903364.6024                   23903361.4924
   1903250.02347   1476909.98144  23452476.6094                   23452476.2584
   2178226.27047   1693291.04246  21623754.9144                   21623751.6684
    187212.59047    152062.72346  21004816.1174                   21004814.4534
 11  7 29 13 49 30.0000000  0  7G14G16G20G23G24G31G32
   2025825.49246   1571654.98544  23691061.0234                   23691059.6914
  -1372951.18747  -1054253.99245  22199613.5634                   22199610.7194
   -722040.35947   -551113.07546  21854890.4384                   21854887.5474
   -811790.87547   -621704.61544  23882586.2344                   23882583.6994
   1921426.38747   1491073.33644  23455936.1254                   23455935.4384
   2208093.83648   1716564.43146  21629438.3834                   21629435.2854
    125750.96947    104170.52146  20993120.5474                   20993118.1374
 11  7 29 13 50  0.0000000  0  7G14G16G20G23G24G31G32
   2047209.42646   1588317.73744  23695130.0164                   23695128.5354
  -1503890.76647  -1156284.83145  22174695.9924                   22174693.7074
   -821964.32047   -628975.90745  21835875.6094                   21835872.4844
   -921062.48047   -706851.32244  23861793.1724                   23861789.8094
   1939833.52347   1505416.50844  23459438.5864                   23459438.1764
   2238073.08247   1739924.83446  21635143.2424                   21635140.0784
     64710.68047     56606.63446  20981504.7814                   20981502.5394
 11  7 29 13 50 30.0000000  0  7G14G16G20G23G24G31G32
   2068689.73046   1605055.59844  23699217.5864                   23699216.3484
  -1634573.40647  -1258115.46745  22149828.6954                   22149825.8014
   -921501.73447   -706537.53145  21816934.4144                   21816931.2814
  -1030418.58247   -792063.87444  23840983.4144                   23840979.9924
   1958465.80947   1519935.11144  23462984.3834                   23462983.9384
   2268159.57447   1763368.80646  21640868.8204                   21640865.5594
      4090.16847      9369.86246  20969968.8674                   20969966.9654
 11  7 29 13 51  0.0000000  0  7G14G16G20G23G24G31G32
   2090265.86746   1621868.10144  23703323.4534                   23703322.4304
  -1764997.20747  -1359744.40345  22125009.6804                   22125007.0984
  -1020651.80947   -783797.34245  21798066.6484                   21798063.6454
  -1139860.03147   -877342.91344  23820157.4924                   23820153.5204
   1977318.96947   1534625.84544  23466572.3524                   23466572.2384
   2298349.84447   1786893.64146  21646613.6024                   21646610.7194
    -56110.55147    -37539.81546  20958513.2734                   20958511.3594
 11  7 29 13 51 30.0000000  0  7G14G16G20G23G24G31G32
   2111942.56346   1638758.99743  23707448.8134                   23707447.1604
  -1895154.99247  -1461166.04245  22100241.3134                   22100238.7734
  -1119407.27347   -860749.63545  21779274.3134                   21779271.3364
  -1249381.96547   -962684.66144  23799315.8984                   23799311.4494
   1996395.23847   1549490.39544  23470201.8914                   23470202.1684
   2328646.55148   1810501.42346  21652378.8834                   21652376.2074
   -115885.59848    -84117.79246  20947138.5084                   20947136.1214
 11  7 29 13 52  0.0000000  0  7G14G16G20G23G24G31G32
   2133722.55146   1655730.35844  23711592.2114                   23711591.5354
  -2025040.97747  -1562375.89145  22075524.5474                   22075522.1884
  -1217764.20347   -937391.41445  21760557.1954                   21760554.5944
  -1358981.82847  -1048087.11744  23778459.4064                   23778455.6914
   2015693.85247   1564528.21044  23473874.3984                   23473874.5664
   2359049.62148   1834192.07046  21658164.5554                   21658161.8834
   -175231.46948   -130361.33946  20935845.2974                   20935843.5594
 11  7 29 13 52 30.0000000  0  7G14G16G20G23G24G31G32
   2155604.51246   1672781.19444  23715757.0164                   23715755.7464
  -2154654.06247  -1663373.08345  22050860.1174                   22050857.5354
  -1315722.06247  -1013722.20645  21741916.7664                   21741913.7344
  -1468661.01647  -1133551.42344  23757588.5084                   23757584.5434
   2035210.13347   1579735.63644  23477588.1724                   23477587.9344
   2389555.16447   1857962.58146  21663969.3984                   21663966.9774
   -234148.96147   -176271.08646  20924633.3524                   20924631.4184
 11  7 29 13 53  0.0000000  0  7G14G16G20G23G24G31G32
   2177588.28946   1689911.30943  23719939.5234                   23719938.9104
  -2283992.02047  -1764155.88545  22026248.2114                   22026245.1094
  -1413278.98447  -1089740.59646  21723352.0864                   21723349.5004
  -1578419.66447  -1219077.64844  23736701.6954                   23736698.6374
   2054940.61347   1595109.99044  23481343.0944                   23481342.4734
   2420160.92247   1881811.16646  21669793.8594                   21669790.9694
   -292637.02747   -221846.22446  20913503.8594                   20913501.4774
 11  7 29 13 53 30.0000000  0  7G14G16G20G23G24G31G32
   2199674.21146   1707121.04544  23724143.3134                   23724141.6484
  -2413052.07047  -1864722.15445  22001688.7814                   22001685.7114
  -1510433.59047  -1165445.49046  21704864.2504                   21704861.2704
  -1688257.85547  -1304665.84144  23715800.0084                   23715797.2664
   2074882.12547   1610648.75344  23485137.8674                   23485137.2234
   2450864.62547   1905736.07246  21675636.1954                   21675633.8364
   -350694.71947   -267085.99846  20902456.0084                   20902453.6914
 11  7 29 13 54  0.0000000  0  7G14G16G20G23G24G31G32
   2221868.50846   1724415.24544  23728366.2504                   23728365.2344
  -2541824.78947  -1965064.52945  21977184.2274                   21977181.2934
  -1607177.44547  -1240830.31046  21686454.7814                   21686451.5664
  -1798169.25047  -1390311.08444  23694885.1254                   23694882.1334
   2095038.26647   1626354.79044  23488974.0004                   23488972.7894
   2481669.98448   1929740.20046  21681498.5004                   21681495.5204
   -408315.16847   -311985.07446  20891490.8364                   20891489.1764
 11  7 29 13 54 30.0000000  0  7G14G16G20G23G24G31G32
   2244170.44546   1741793.34444  23732610.5554                   23732609.1764
  -2670309.09447  -2065182.15145  21952734.6174                   21952731.7464
  -1703509.36347  -1315894.12646  21668123.0394                   21668120.5744
  -1908154.72347  -1476014.03244  23673955.6724                   23673952.4534
   2115404.89547   1642224.82144  23492848.4384                   23492848.7384
   2512574.21947   1953821.37546  21687379.4844                   21687376.4454
   -465497.93448   -356543.09146  20880609.4924                   20880607.2274
 11  7 29 13 55  0.0000000  0  7G14G16G20G23G24G31G32
   2266579.16846   1759254.61043  23736874.2974                   23736874.0234
  -2798502.73047  -2165073.29345  21928339.5394                   21928337.1724
  -1799429.02047  -1390636.71846  21649870.2344                   21649867.7344
  -2018215.13347  -1561775.34544  23653011.7584                   23653008.3754
   2135977.55946   1658255.40244  23496764.0234                   23496763.2034
   2543573.68048   1977976.74846  21693278.4454                   21693275.5434
   -522243.28548   -400760.26546  20869811.3364                   20869809.2504
 11  7 29 13 55 30.0000000  0  7G14G16G20G23G24G31G32
   2289098.12146   1776801.76744  23741160.9064                   23741159.1024
  -2926399.57847  -2264733.15745  21904001.8134                   21903999.3284
  -1894931.27347  -1465054.05646  21631696.6174                   21631693.8484
  -2128347.03947  -1647592.38644  23632054.0554                   23632050.5124
   2156756.59847   1674446.78144  23500718.6174                   23500717.9264
   2574669.53948   2002207.22946  21699195.8984                   21699193.0434
   -578547.33248   -444633.58946  20859096.9224                   20859094.8834
 11  7 29 13 56  0.0000000  0  7G14G16G20G23G24G31G32
   2311730.01246   1794436.89744  23745467.2974                   23745465.9264
  -3053994.52047  -2364157.78945  21879721.5164                   21879718.2854
  -1990011.71547  -1539142.71446  21613603.7424                   21613601.2304
  -2238547.68047  -1733462.99344  23611083.8594                   23611080.2774
   2177741.73847   1690798.79344  23504711.5084                   23504711.2384
   2605862.09048   2026513.05946  21705131.4614                   21705128.6134
   -634406.18748   -488159.97546  20848467.4304                   20848464.9344
 11  7 29 13 56 30.0000000  0  7G14G16G20G23G24G31G32
   2334473.79346   1812159.24244  23749795.5704                   23749793.7934
  -3181286.08247  -2463346.00245  21855498.7274                   21855495.7934
  -2084669.41847  -1612901.96946  21595590.8444                   21595588.1994
  -2348817.85247  -1819387.76444  23590100.1334                   23590096.6334
   2198928.59847   1707307.93844  23508743.4224                   23508743.2624
   2637148.11748   2050891.74446  21711085.0704                   21711082.4694
   -689820.19548   -531339.73846  20837922.1484                   20837920.1764
 11  7 29 13 57  0.0000000  0  7G14G16G20G23G24G31G32
   2357329.48446   1829968.83043  23754144.4064                   23754143.1374
  -3308271.91447  -2562295.99245  21831334.1724                   21831331.3714
  -2178902.64147  -1686330.44946  21577658.8754                   21577656.2154
  -2459157.63747  -1905366.80544  23569103.1724                   23569099.3164
   2220314.09446   1723971.91344  23512812.9534                   23512812.3674
   2668525.37548   2075341.51646  21717056.1644                   21717053.7154
   -744788.54348   -574172.22846  20827462.4534                   20827460.2854
 11  7 29 13 57 30.0000000  0  7G14G16G20G23G24G31G32
   2380302.29746   1847869.57244  23758516.6644                   23758515.3554
  -3434943.68747  -2661001.25145  21807229.4844                   21807226.1844
  -2272704.88348  -1759423.09846  21559808.9454                   21559806.2304
  -2569562.07847  -1991396.24644  23548093.9614                   23548089.8094
   2241900.06646   1740792.09944  23516920.6954                   23516920.7304
   2699996.32448   2099864.28846  21723044.8834                   21723042.3674
   -799305.50048   -616652.97246  20817088.2974                   20817086.2154
 11  7 29 13 58  0.0000000  0  7G14G16G20G23G24G31G32
   2403393.02746   1865862.32243  23762909.9924                   23762909.4534
  -3561298.15247  -2759459.27445  21783184.5314                   21783182.0394
  -2366073.29348  -1832177.71646  21542041.5234                   21542038.5234
  -2680030.30547  -2077475.34844  23527072.3444                   23527069.0514
   2263684.05947   1757766.53944  23521066.1174                   23521065.3554
   2731559.82048   2124459.19046  21729051.2424                   21729048.8874
   -853369.62148   -658780.87546  20806799.9224                   20806797.8404
 11  7 29 13 58 30.0000000  0  7G14G16G20G23G24G31G32
   2426602.91446   1883948.26443  23767326.7424                   23767326.1254
  -3687333.66847  -2857668.77645  21759201.2814                   21759198.1254
  -2459007.40248  -1904593.90346  21524356.9844                   21524354.0124
  -2790562.97746  -2163604.67244  23506038.5784                   23506035.1174
   2285661.97346   1774892.13044  23525247.9924                   23525248.0944
   2763212.53548   2149123.62246  21735074.4694                   21735072.1524
   -906980.86748   -700555.87046  20796598.2894                   20796596.3014
 11  7 29 13 59  0.0000000  0  7G14G16G20G23G24G31G32
   2449930.33646   1902125.38144  23771766.2194                   23771765.2974
  -3813045.32047  -2955625.90045  21735279.2424                   21735276.2624
  -2551502.87148  -1976668.29146  21506755.6024                   21506752.9734
  -2901157.33646  -2249782.07544  23484993.4064                   23484989.5394
   2307833.10546   1792168.26244  23529467.1254                   23529467.4224
   2794955.03548   2173858.01046  21741114.7894                   21741112.1994
   -960136.20748   -741975.61946  20786483.1254                   20786481.1414
 11  7 29 13 59 30.0000000  0  7G14G16G20G23G24G31G32
   2473379.77756   1920397.56153  23776228.0864                   23776227.5354
  -3938428.44947  -3053327.02245  21711419.2734                   21711416.6604
  -2643555.91448  -2048397.94346  21489238.1804                   21489235.6764
  -3011811.25847  -2336005.88844  23463936.3524                   23463932.3164
   2330196.48046   1809594.20344  23533723.4064                   23533723.0664
   2826786.89148   2198662.02346  21747172.7034                   21747169.5474
  -1012832.66048   -783037.79546  20776455.0944                   20776452.9774
 11  7 29 14  0  0.0000000  0  7G14G16G20G23G24G31G32
   2496956.71146   1938769.16843  23780715.0314                   23780713.5554
  -4063474.73447  -3150765.68445  21687623.8054                   21687620.8014
  -2735159.15248  -2119777.08546  21471806.9064                   21471804.1724
  -3122519.04347  -2422271.70244  23442869.4304                   23442866.2734
   2352754.17646   1827171.54644  23538015.6644                   23538015.7544
   2858711.14148   2223538.03146  21753247.3364                   21753244.3594
  -1065064.13348   -823737.65746  20766515.7344                   20766513.9304
 11  7 29 14  0 30.0000000  0  7G14G16G20G23G24G31G32
                                  23785225.0784                   23785222.8834
  -4188188.48447  -3247945.22845  21663891.4454                   21663888.8134
  -2826318.41048  -2190810.27546  21454459.6884                   21454456.9844
  -3233287.54747  -2508584.81544  23421791.1884                   23421787.5594
   2375496.16446   1844892.51344  23542343.0864                   23542343.1884
   2890719.00448   2248479.19746  21759338.2974                   21759335.5234
  -1116836.85948   -864080.06546  20756663.7424                   20756662.0274
 11  7 29 14  1  0.0000000  0  7G14G16G20G23G24G31G32
   2544472.44946   1975794.06943  23789756.5784                   23789755.3674
  -4312565.43747  -3344862.33345  21640223.4614                   21640221.1374
  -2917030.09848  -2261494.72146  21437197.7344                   21437195.2854
  -3344114.79747  -2594943.70644  23400701.0634                   23400697.6174
   2398421.15246   1862756.07844  23546705.9614                   23546705.6174
   2922809.85548   2273485.01546  21765444.8524                   21765442.0474
  -1168148.54348   -904063.18946  20746899.7114                   20746897.7854
 11  7 29 14  1 30.0000000  0  7G14G16G20G23G24G31G32
   2568419.22746   1994453.82943  23794312.5394                   23794311.5514
  -4436597.68047  -3441510.82345  21616620.4534                   21616618.0514
  -3007287.63748  -2331825.28246  21420022.2424                   21420019.3754
  -3454995.50046  -2681344.21344  23379601.1024                   23379598.1564
   2421530.92646   1880763.65344  23551103.0864                   23551103.2894
   2954986.43048   2298557.65146  21771568.1954                   21771565.3594
  -1218993.41048   -943682.59046  20737224.3914                   20737222.1484
 11  7 29 14  2  0.0000000  0  7G14G16G20G23G24G31G32
   2592494.02046   2013213.39943  23798894.5554                   23798892.9344
  -4560282.28148  -3537888.41646  21593084.3054                   21593081.8244
  -3097088.50448  -2401799.98846  21402934.0314                   21402931.4614
  -3565929.07046  -2767785.92544  23358491.5944                   23358487.7894
   2444823.16047   1898913.36244  23555535.9064                   23555535.7274
   2987247.58648   2323696.17846  21777706.9694                   21777704.5944
  -1269370.04748   -982937.12046  20727638.1724                   20727635.8674
 11  7 29 14  2 30.0000000  0  6G16G20G23G24G31G32
  -4683615.07848  -3633991.89045  21569615.1094                   21569612.3284
  -3186429.33247  -2471416.22546  21385932.7814                   21385930.2074
  -3676913.39847  -2854267.14944  23337371.7274                   23337368.6724
   2468296.02347   1917203.80244  23560003.8524                   23560002.9344
   3019592.78147   2348900.19046  21783862.3524                   21783859.7734
  -1319276.10948  -1021824.96146  20718141.4384                   20718139.0044
 11  7 29 14  3  0.0000000  0  7G14G16G20G23G24G31G32
   1599435.09846   2046752.01353  23808132.2114                   23808131.2894
  -4806589.54748  -3729816.14045  21546213.3444                   21546210.6914
  -3275305.10547  -2540670.06746  21369020.3594                   21369017.7854
  -3787944.57847  -2940784.95644  23316242.7114                   23316239.3954
   2491949.95747   1935635.42944  23564504.1094                   23564504.1804
   3052023.31348   2374170.71446  21790033.6024                   21790030.9694
  -1368707.44548  -1060342.90346  20708734.6724                   20708732.6134
 11  7 29 14  3 30.0000000  0  7G14G16G20G23G24G31G32
                                  23812789.6254                   23812788.8984
  -4929200.59447  -3825357.21445  21522880.6884                   21522878.7464
  -3363711.46547  -2609558.13546  21352197.1884                   21352194.6994
  -3899019.57047  -3027336.86044  23295106.1484                   23295103.1684
   2515784.68047   1954207.84944  23569039.8984                   23569039.6174
   3084539.87148   2399508.25446  21796221.6024                   21796218.8284
  -1417660.85948  -1098488.44446  20699419.3914                   20699416.8594
 11  7 29 14  4  0.0000000  0  7G14G16G20G23G24G31G32
   1648512.03146   2084993.29743  23817471.7424                   23817470.6214
  -5051451.86748  -3920617.93946  21499617.7034                   21499615.1414
  -3451653.21548  -2678084.17246  21335462.4384                   21335459.7934
  -4010144.70347  -3113927.85044  23273960.2974                   23273956.2114
   2539790.60247   1972913.66544  23573607.8984                   23573607.9064
   3117133.96948   2424906.20346  21802424.1094                   21802421.4414
  -1466141.77048  -1136265.78146  20690193.3984                   20690191.1644
 11  7 29 14  4 30.0000000  0  7G14G16G20G23G24G31G32
   1673250.96546   2104270.32743  23822179.5554                   23822178.3444
  -5173336.54348  -4015593.00346  21476424.0164                   21476421.7504
  -3539124.10948  -2746243.30546  21318817.4774                   21318814.4734
  -4121314.99647  -3200553.98944  23252804.7034                   23252801.6684
   2563969.05947   1991753.97843  23578208.8284                   23578208.5474
   3149807.88348   2450366.35146  21808641.8594                   21808639.0164
  -1514145.58648  -1173671.36846  20681058.5554                   20681056.5514
 11  7 29 14  5  0.0000000  0  7G14G16G20G23G24G31G32
   1698121.78546   2123650.09043  23826911.7584                   23826911.3324
  -5294854.07048  -4110281.98346  21453299.8524                   21453297.5084
  -3626124.96948  -2814036.19246  21302261.2344                   21302258.7274
  -4232532.83247  -3287217.19344  23231640.6174                   23231637.0004
   2588314.22746   2010724.15444  23582841.7894                   23582841.4064
   3182557.14148   2475885.20746  21814873.5554                   21814870.6174
  -1561673.72748  -1210706.29146  20672014.4064                   20672012.5164
 11  7 29 14  5 30.0000000  0  7G14G16G20G23G24G31G32
   1723130.04346   2143137.03543  23831671.2894                   23831670.6414
  -5415997.25848  -4204679.27346  21430247.3134                   21430244.1374
  -3712649.43047  -2881457.83546  21285796.6094                   21285793.7274
  -4343792.78147  -3373913.20344  23210468.4694                   23210464.9964
   2612828.08647   2029825.79844  23587506.7814                   23587507.2974
   3215384.80547   2501465.15646  21821120.2504                   21821117.7114
  -1608721.00048  -1247366.51546  20663061.5944                   20663059.5784
 11  7 29 14  6  0.0000000  0  7G14G16G20G23G24G31G32
   1748279.66046   2162734.08443  23836457.4064                   23836456.9414
  -5536759.98848  -4298780.09646  21407266.6954                   21407263.7544
  -3798692.05147  -2948504.03346  21269423.2894                   21269420.5394
  -4455090.63347  -3460638.75444  23189289.0474                   23189286.1724
   2637511.21946   2049059.34144  23592204.0084                   23592204.5124
   3248292.95347   2527107.81546  21827382.5394                   21827379.9734
  -1655282.69548  -1283648.37546  20654201.4064                   20654198.9384
 11  7 29 14  6 30.0000000  0  7G14G16G20G23G24G31G32
   1773566.68046   2182438.20043  23841269.3594                   23841268.8284
  -5657142.61748  -4392584.72646  21384358.8834                   21384356.1804
  -3884255.05947  -3015176.50146  21253141.0474                   21253138.3164
  -4566429.70747  -3547396.42544  23168101.8524                   23168098.4414
   2662356.89147   2068419.51844  23596931.5634                   23596931.9614
   3281275.29747   2552808.30146  21833659.0234                   21833656.5314
  -1701362.18048  -1319554.47646  20645432.4694                   20645430.4304
 11  7 29 14  7  0.0000000  0  7G14G16G20G23G24G31G32
   1798991.87146   2202249.96843  23846107.9224                   23846106.5434
  -5777142.23048  -4486090.90546  21361523.3754                   21361520.9264
  -3969336.00448  -3081473.33446  21236950.6484                   21236947.8404
  -4677808.92647  -3634185.38744  23146907.3754                   23146903.6724
   2687362.75846   2087904.51144  23601689.7114                   23601690.9734
   3314330.81648   2578565.80046  21839949.3524                   21839946.6724
  -1746957.93748  -1355083.66846  20636755.8594                   20636753.8554
 11  7 29 14  7 30.0000000  0  7G14G16G20G23G24G31G32
   1824557.26646   2222170.98643  23850972.7504                   23850971.7704
  -5896754.41048  -4579295.20146  21338762.2814                   21338759.5004
  -4053931.31248  -3147391.74546  21220852.7504                   21220849.8634
  -4789225.73847  -3721003.63944  23125705.4694                   23125701.6724
   2712527.46146   2107513.32944  23606478.4774                   23606479.6024
   3347459.50448   2604380.30546  21846253.9304                   21846250.7704
  -1792067.82048  -1390234.24646  20628171.7504                   20628169.7194
 11  7 29 14  8  0.0000000  0  7G14G16G20G23G24G31G32
   3425682.16846   3469800.70743  24155656.2504                   24155655.9964
  -4440552.91048  -3444592.73046  21615868.0704                   21615864.9384
  -2562617.23448  -1985328.81846  21504640.2664                   21504637.4694
  -3325256.59447  -2580248.42144  23404289.2034                   23404285.2734
   4313266.97346   3354842.71344  23911090.2274                   23911090.0204
   4956077.91448   3857849.14346  22152363.8524                   22152360.8364
   -261269.75848   -197404.59646  20919472.9774                   20919471.0164
 11  7 29 14  8 30.0000000  0  7G14G16G20G23G24G31G32
   3451528.66846   3489940.78343  24160574.9304                   24160574.8134
  -4559382.07848  -3537186.88546  21593255.2424                   21593252.9844
  -2646237.02348  -2050487.09346  21488728.0164                   21488725.3634
  -3436747.66847  -2667124.56244  23383073.2114                   23383069.5824
   4338740.63746   3374692.25644  23915936.9304                   23915937.7814
   4989347.27048   3883773.26846  22158694.6024                   22158691.8954
   -305405.77348   -231796.31846  20911074.3134                   20911072.1724
 11  7 29 14  9  0.0000000  0  7G14G16G20G23G24G31G32
   3160916.41817                  24165521.7504
  -4677813.62948  -3629471.19446  21570718.4844                   21570716.0204
  -2729364.18048  -2115261.49846  21472909.6094                   21472906.9654
  -3548272.62547  -2754027.08244  23361850.5084                   23361847.2584
   4364366.43846   3394660.32044  23920813.5314                   23920814.1254
   5022686.37948   3909751.74146  22165038.7814                   22165036.1884
   -349051.72748   -265806.16846  20902768.8134                   20902766.9104
 11  7 29 14  9 30.0000000  0  7G14G16G20G23G24G31G32
   3187050.38746   3525616.57144  24170494.4844                   24170494.1764
  -4795843.80548  -3721442.76146  21548258.3524                   21548255.4454
  -2811996.04348  -2179649.96246  21457185.2034                   21457182.2894
  -3659830.05547  -2840954.91344  23340622.2424                   23340618.4694
   4390142.21546   3414745.31544  23925718.3284                   23925719.9924
   5056094.61747   3935784.10246  22171396.3134                   22171393.3874
   -392206.01248   -299432.89046  20894556.8054                   20894554.9614
 11  7 29 14 10  0.0000000  0  7G14G16G20G23G24G31G32
   3213326.08657   3546091.18954  24175495.0234                   24175494.6134
  -4913468.83648  -3813098.62846  21525875.1414                   21525872.2074
  -2894130.23848  -2243650.63646  21441555.5864                   21441552.3284
  -3771418.47347  -2927906.88144  23319386.9614                   23319383.8204
   4416066.02046   3434945.65643  23930651.6884                   23930652.6914
   5089571.07047   3961869.61446  22177766.4924                   22177763.7974
   -434866.99648   -332675.22846  20886438.6174                   20886436.5824
 11  7 29 14 10 30.0000000  0  7G14G16G20G23G24G31G32
   3239757.26246   3566686.89644  24180524.7974                   24180524.2774
  -5030680.76248  -3904432.57946  21503570.2584                   21503567.6684
  -2975759.34448  -2307257.73546  21426022.1094                   21426018.8834
  -3883031.44547  -3014878.00044  23298148.1954                   23298144.8364
   4442140.53146   3455263.34544  23935613.0474                   23935614.4654
   5123119.39148   3988011.11146  22184150.7034                   22184147.9104
   -477028.56248   -365528.40946  20878415.5944                   20878413.6994
 11  7 29 14 11  0.0000000  0  7G14G16G20G23G24G31G32
   3266339.59046   3587400.26944  24185583.1414                   24185582.9574
  -5147476.73448  -3995442.41646  21481344.8444                   21481341.8364
  -3056882.05948  -2370470.24346  21410584.4774                   21410582.0274
  -3994668.63747  -3101868.00844  23276904.1564                   23276900.7304
   4468362.62946   3475696.05144  23940603.6334                   23940604.5124
   5156737.89548   4014207.29746  22190548.2664                   22190545.3984
   -518690.27048   -397992.10346  20870487.4774                   20870485.7424
 11  7 29 14 11 30.0000000  0  7G14G16G20G23G24G31G32
   3293073.44146   3608231.74744  24190670.2424                   24190670.7384
  -5263854.17248  -4086126.12246  21459199.0004                   21459195.7704
  -3137496.80948  -2433286.92446  21395244.3594                   21395241.5944
  -4106329.17247  -3188876.19544  23255655.8834                   23255651.9344
   4494729.45346   3496241.53143  23945620.3364                   23945621.8134
   5190424.61748   4040456.65246  22196959.0164                   22196956.3674
   -559851.47748   -430065.77946  20862655.1334                   20862653.0394
 11  7 29 14 12  0.0000000  0  7G14G16G20G23G24G31G32
   3319956.29346   3629179.36744  24195786.6484                   24195786.1214
  -5379813.64548  -4176484.14646  21437132.4844                   21437129.5124
  -3217604.74648  -2495708.68446  21379999.9694                   21379997.3914
  -4218015.42647  -3275904.42944  23234402.3444                   23234398.9964
   4521234.99246   3516895.10943  23950664.3914                   23950665.5514
   5224175.23048   4066755.79046  22203381.4304                   22203378.4734
   -600514.94548   -461751.62746  20854916.9534                   20854915.1294
 11  7 29 14 12 30.0000000  0  7G14G16G20G23G24G31G32
   3346990.11746   3650244.60243  24200930.5004                   24200930.9694
  -5495350.59448  -4266512.94046  21415146.3594                   21415143.8834
  -3297203.13348  -2557733.40046  21364853.0864                   21364850.6134
  -4329724.99647  -3362950.82644  23213145.0474                   23213141.0514
   4547877.89146   3537655.71443  23955735.4844                   23955735.4924
   5257989.45348   4093104.49446  22209815.5634                   22209813.1644
   -640678.20748   -493047.67246  20847274.1414                   20847272.2424
 11  7 29 14 13  0.0000000  0  7G14G16G20G23G24G31G32
   3374173.03146   3671426.05843  24206103.1954                   24206102.6724
  -5610464.64847  -4356212.19746  21393241.0234                   21393238.3794
  -3376292.03148  -2619361.12046  21349803.1884                   21349800.1644
  -4441459.26647  -3450016.47844  23191882.8834                   23191878.7814
   4574653.32846   3558519.61943  23960830.6564                   23960831.3674
   5291863.93847   4119500.16746  22216261.6254                   22216259.5864
   -680342.66448   -523955.06746  20839726.3134                   20839724.3714
 11  7 29 14 13 30.0000000  0  7G14G16G20G23G24G31G32
   3401504.23856   3692723.03453  24211303.9064                   24211303.3674
  -5725153.99648  -4445580.50946  21371416.5944                   21371413.6604
  -3454870.84048  -2680591.36346  21334850.2034                   21334847.2154
  -4553218.50447  -3537101.58345  23170616.1644                   23170612.3754
   4601557.63746   3579483.95943  23965949.9694                   23965951.2344
   5325795.80147   4145940.55146  22222718.8054                   22222716.2544
   -719508.88748   -554474.21446  20832273.1254                   20832271.1884
 11  7 29 14 14  0.0000000  0  7G14G16G20G23G24G31G32
   3428991.67646   3714141.66743  24216534.6414                   24216534.4104
  -5839408.31648  -4534609.85046  21349674.2734                   21349671.7584
  -3532930.21148  -2741416.83746  21319995.7814                   21319993.2154
  -4664994.38747  -3624199.65945  23149345.5164                   23149342.1804
   4628595.39846   3600552.23644  23971095.6414                   23971096.0124
   5359791.23848   4172430.44246  22229187.9614                   22229185.5824
   -758168.84848   -584598.86946  20824916.5704                   20824914.6994
 11  7 29 14 14 30.0000000  0  7G14G16G20G23G24G31G32
   3456628.04746   3735676.39243  24221794.8984                   24221793.7974
  -5953232.24248  -4623303.80546  21328014.4924                   21328011.6524
  -3610476.20348  -2801842.29846  21305239.4454                   21305236.5314
  -4776793.32047  -3711315.67644  23128070.7584                   23128067.8984
   4655756.31646   3621716.53543  23976263.9064                   23976264.3164
   5393841.28148   4198962.89646  22235667.7894                   22235664.7734
   -796329.13748   -614334.17246  20817654.7664                   20817652.7664
 11  7 29 14 15  0.0000000  0  7G14G16G20G23G24G31G32
   3484416.18446   3757329.48743  24227082.0084                   24227081.9264
  -6066620.80548  -4711658.52146  21306437.3674                   21306434.6644
  -3687505.03548  -2861864.76246  21290581.3914                   21290578.8244
  -4888612.02047  -3798447.09944  23106792.1024                   23106788.5904
   4683040.02346   3642976.53444  23981455.7664                   23981456.0474
   5427946.67648   4225538.47146  22242157.7344                   22242154.9774
   -833987.13748   -643678.08346  20810488.5554                   20810486.7894
 11  7 29 14 15 30.0000000  0  7G14G16G20G23G24G31G32
   3512358.57045   3779102.62443  24232398.7194                   24232398.9574
  -6179569.04748  -4799670.13046  21284944.1724                   21284941.4384
  -3764012.45348  -2921480.93046  21276022.0864                   21276019.8284
  -5000447.48847  -3885591.60444  23085510.6414                   23085507.2344
   4710445.84446   3664331.60043  23986671.5634                   23986671.9104
   5462108.15648   4252157.75546  22248658.5554                   22248655.9964
   -871139.81248   -672628.23246  20803418.8984                   20803416.8444
 11  7 29 14 16  0.0000000  0  7G14G16G20G23G24G31G32
   3540454.08245   3800995.16443  24237745.8984                   24237745.5664
  -6292075.90248  -4887337.79946  21263534.8054                   21263532.1564
  -3839998.68748  -2980690.99846  21261562.6804                   21261559.7074
  -5112300.47347  -3972749.73744  23064226.0004                   23064222.0984
   4737969.23846   3685778.29644  23991908.4534                   23991909.1644
   5496322.54747   4278818.27646  22255169.2584                   22255166.6524
   -907788.23848   -701185.46146  20796444.8594                   20796442.9104
 11  7 29 14 16 30.0000000  0  7G14G16G20G23G24G31G32
   3568702.98846   3823007.16843  24243121.7734                   24243120.7274
  -6404138.64148  -4974659.40346  21242209.8914                   21242207.1644
  -3915462.02748  -3039493.59946  21247202.7584                   21247199.1334
  -5224169.83247  -4059920.66444  23042937.8984                   23042934.2464
   4765607.59047   3707314.65844  23997168.8134                   23997168.8524
   5530588.59047   4305519.05046  22261689.5704                   22261687.2304
   -943931.94148   -729349.40546  20789567.0084                   20789565.1764
 11  7 29 14 17  0.0000000  0  7G14G16G20G23G24G31G32
   3597112.47746   3845144.37343  24248528.0864                   24248526.0594
  -6515748.12948  -5061627.81646  21220971.2424                   21220968.6414
  -3990394.35248  -3097882.44646  21232943.0004                   21232940.3674
  -5336048.11347  -4147098.51845  23021647.8444                   23021644.1524
   4793364.48847   3728943.30044  24002450.9844                   24002451.3954
   5564911.26647   4332263.95246  22268220.8914                   22268218.9024
   -979563.79348   -757114.50746  20782786.4694                   20782784.6844
 11  7 29 14 17 30.0000000  0  7G14G16G20G23G24G31G32
   3625679.99655   3867404.61553  24253963.4064                   24253962.7814
  -6626904.34848  -5148243.04046  21199818.8364                   21199816.4534
  -4064796.94148  -3155858.47846  21218785.0784                   21218782.3524
  -5447936.97747  -4234284.62144  23000356.4304                   23000352.7854
   4821234.70347   3750660.31444  24007754.1334                   24007754.5984
   5599286.65648   4359049.93146  22274762.7344                   22274760.4654
  -1014686.06648   -784482.53146  20776102.8204                   20776101.0554
 11  7 29 14 18  0.0000000  0  7G14G16G20G23G24G31G32
   3654405.21556   3889787.87153  24259430.9064                   24259429.1374
  -6737605.08648  -5234503.34746  21178753.0634                   21178750.7934
  -4138668.65248  -3213420.83846  21204727.7504                   21204724.7584
  -5559836.24247  -4321478.83144  22979062.7504                   22979059.0904
   4849215.00446   3772463.05244  24013078.3914                   24013078.9064
   5633712.78548   4385875.45146  22281313.9144                   22281311.0784
  -1049298.73048   -811453.46146  20769516.5314                   20769514.5864
 11  7 29 14 18 30.0000000  0  7G14G16G20G23G24G31G32
   3683289.91445   3912295.31043  24264927.3834                   24264925.6134
  -6847846.40648  -5320405.65646  21157774.9144                   21157772.4844
  -4212006.95748  -3270567.57146  21190772.0234                   21190769.4024
  -5671743.17247  -4408678.99945  22957767.4924                   22957763.7624
   4877303.57046   3794350.16743  24018423.5704                   24018424.0164
   5668189.63347   4412740.47346  22287874.7424                   22287872.0474
  -1083399.93048   -838025.85146  20763027.0164                   20763025.4884
 11  7 29 14 19  0.0000000  0  7G14G16G20G23G24G31G32
   3712338.25045   3934930.23243  24270453.8834                   24270453.0234
  -6957625.69948  -5405947.94946  21136884.7664                   21136882.3444
  -4284810.05948  -3327297.24846  21176918.2664                   21176915.1254
  -5783657.11747  -4495884.64945  22936471.2034                   22936466.8594
   4905497.84046   3816319.68043  24023788.7034                   24023788.7584
   5702715.50447   4439643.69746  22294444.6564                   22294442.1094
  -1116989.62148   -864199.65546  20756635.0084                   20756633.2814
 11  7 29 14 19 30.0000000  0  6G16G20G23G24G31G32
  -7066941.26648  -5491128.88346  21116082.6024                   21116079.9264
  -4357077.53948  -3383609.56246  21163165.8284                   21163163.1804
  -5895578.05147  -4583095.73945  22915173.0084                   22915169.2774
   4933794.04346   3838368.57243  24029173.5944                   24029174.0394
   5737288.21147   4466583.43646  22301023.7814                   22301021.2774
  -1150068.01248   -889975.05146  20750340.7664                   20750338.7344
 11  7 29 14 20  0.0000000  0  6G16G20G23G24G31G32
  -7175786.46548  -5575943.31546  21095370.3134                   21095367.6914
  -4428803.75848  -3439500.12546  21149517.0784                   21149514.1054
  -6007500.77747  -4670308.21745  22893874.5634                   22893870.7194
   4962193.66446   3860498.06143  24034577.0314                   24034578.2194
   5771910.48447   4493561.79246  22307612.1094                   22307609.4694
  -1182630.46148   -915348.41446  20744144.2344                   20744142.4964
 11  7 29 14 20 30.0000000  0  6G16G20G23G24G31G32
  -7284154.73848  -5660386.10046  21074748.4614                   21074746.1564
  -4499983.41848  -3494964.78846  21135972.0084                   21135969.3244
  -6119420.36747  -4757518.26545  22872577.1484                   22872573.2774
   4990697.63346   3882708.87643  24040001.2034                   24040002.2854
   5806584.94947   4520580.82146  22314210.4454                   22314207.9774
  -1214672.98448   -940316.64046  20738046.7734                   20738044.8984
 11  7 29 14 21  0.0000000  0  6G16G20G23G24G31G32
  -7392042.61348  -5744454.55246  21054217.9534                   21054215.6374
  -4570614.07048  -3550001.67046  21122531.2814                   21122528.4454
  -6231334.71547  -4844724.24245  22851280.9534                   22851276.8714
   5019304.22345   3904999.64943  24045444.9454                   24045446.6414
   5841311.35547   4547640.30946  22320819.0634                   22320816.3794
  -1246194.05548   -964878.51646  20732048.2734                   20732046.5514
 11  7 29 14 21 30.0000000  0  6G16G20G23G24G31G32
  -7499451.75448  -5828149.96546  21033778.8364                   21033776.0314
  -4640698.53548  -3604612.95246  21109194.8204                   21109191.9614
  -6343246.81647  -4931928.43945  22829984.5634                   22829980.7934
   5048006.64146   3927365.03443  24050907.5004                   24050909.2344
   5876084.25448   4574736.04646  22327436.1414                   22327433.6724
  -1277197.58648   -989037.13046  20726148.5554                   20726146.4654
 11  7 29 14 22  0.0000000  0  6G16G20G23G24G31G32
  -7606376.48048  -5911467.91746  21013431.4694                   21013428.6454
  -4710232.52748  -3658795.30946  21095962.7424                   21095960.2774
  -6455153.05947  -5019128.07745  22808689.3984                   22808685.4774
   5076805.04746   3949805.29943  24056387.8444                   24056388.5394
   5910904.83647   4601868.92646  22334062.1884                   22334059.2034
  -1307680.53148  -1012790.09546  20720347.7734                   20720346.2074
 11  7 29 14 22 30.0000000  0  6G16G20G23G24G31G32
  -7712818.14548  -5994409.45646  20993176.2424                   20993173.8204
  -4779218.32048  -3712550.48746  21082835.1094                   21082832.4694
  -6567055.66447  -5106324.88944  22787395.0704                   22787390.6684
   5105693.00046   3972315.31643  24061884.8524                   24061886.1254
   5945768.21547   4629035.14245  22340695.9534                   22340693.6884
  -1337645.65248  -1036139.56146  20714645.9924                   20714643.7624
 11  7 29 14 23  0.0000000  0  6G16G20G23G24G31G32
  -7818775.18048  -6076973.36546  20973013.3914                   20973010.8324
  -4847655.62548  -3765878.27446  21069812.0554                   21069809.3484
  -6678954.57047  -5193518.80045  22766101.2734                   22766097.4104
   5134666.71146   3994892.13443  24067398.8364                   24067399.3484
   5980672.44947   4656233.20145  22347338.3204                   22347335.9654
  -1367094.00848  -1059086.34946  20709041.7734                   20709040.3714
 11  7 29 14 23 30.0000000  0  6G16G20G23G24G31G32
  -7924249.53148  -6159161.16146  20952942.0234                   20952939.6174
  -4915547.52348  -3818781.07246  21056892.8284                   21056890.0124
  -6790853.70747  -5280712.89845  22744807.4694                   22744803.7624
   5163718.85546   4017530.11244  24072926.6174                   24072928.1604
   6015611.29748   4683458.22245  22353987.1334                   22353984.2234
  -1396029.95748  -1081633.87546  20703535.8054                   20703533.8634
 11  7 29 14 24  0.0000000  0  6G16G20G23G24G31G32
  -8029230.75448  -6240964.68946  20932964.6484                   20932962.1644
  -4982884.89147  -3871251.75246  21044078.9144                   21044076.2114
  -6902743.61347  -5367899.80945  22723515.3834                   22723512.2774
   5192854.91447   4040233.47643  24078471.3984                   24078472.6134
   6050591.49247   4710715.47145  22360643.6724                   22360641.5164
  -1424445.19948  -1103775.63046  20698128.6334                   20698126.6094
 11  7 29 14 24 30.0000000  0  6G16G20G23G24G31G32
  -8133721.22348  -6322385.83046  20913081.0314                   20913078.1914
  -5049670.81248  -3923292.73946  21031369.5314                   21031367.2664
  -7014627.50447  -5455082.01245  22702224.8134                   22702221.3404
   5222067.47747   4062996.42343  24084031.1094                   24084031.4064
   6085607.66048   4738000.76046  22367307.1024                   22367304.8914
  -1452344.21948  -1125515.14046  20692819.5164                   20692817.7114
 11  7 29 14 25  0.0000000  0  6G16G20G23G24G31G32
  -8237721.85548  -6403425.26546  20893290.5314                   20893287.9344
  -5115907.81648  -3974905.99146  21018765.0704                   21018762.8014
  -7126508.12947  -5542261.66745  22680934.7734                   22680930.8954
   5251349.92247   4085813.85143  24089602.7814                   24089604.2234
   6120654.71148   4765310.09946  22373976.3754                   22373974.1414
  -1479730.28548  -1146854.95446  20687607.7814                   20687606.2464
 11  7 29 14 25 30.0000000  0  6G16G20G23G24G31G32
  -8341230.29748  -6484081.18246  20873593.5314                   20873590.5594
  -5181594.93448  -4026090.76946  21006265.5864                   21006262.8054
  -7238384.40247  -5629437.96745  22659645.0004                   22659641.4184
   5280699.56647   4108683.62143  24095187.9614                   24095189.3714
   6155731.15647   4792642.34445  22380651.4144                   22380648.6724
  -1506603.10548  -1167794.83246  20682494.5084                   20682492.3524
 11  7 29 14 26  0.0000000  0  6G16G20G23G24G31G32
  -8444245.91448  -6564353.07846  20853990.3594                   20853987.3834
  -5246732.31248  -4076847.17346  20993870.3054                   20993867.6724
  -7350256.65647  -5716611.11945  22638356.6024                   22638352.8204
   5310112.38347   4131602.68343  24100785.6564                   24100786.1054
   6190834.41447   4819995.48846  22387331.2344                   22387328.9924
  -1532964.35548  -1188336.07246  20677477.8594                   20677476.1764
 11  7 29 14 26 30.0000000  0  6G16G20G23G24G31G32
  -8546769.67648  -6644241.70546  20834480.8674                   20834477.9654
  -5311322.05548  -4127176.84746  20981579.0394                   20981576.1484
  -7462127.40647  -5803783.09745  22617068.3674                   22617064.2114
   5339581.71947   4154565.77043  24106393.2504                   24106394.0314
   6225959.65647   4847365.73845  22394015.3204                   22394013.0084
  -1558817.49248  -1208481.39546  20672558.5474                   20672556.8014
 11  7 29 14 27  0.0000000  0  6G16G20G23G24G31G32
  -8648795.96948  -6723742.69546  20815065.6954                   20815063.0704
  -5375359.84048  -4177076.43646  20969393.3444                   20969390.7974
  -7573991.98847  -5890950.27945  22595781.5084                   22595777.3794
   5369108.28146   4177573.39343  24112011.5474                   24112012.9574
   6261109.07447   4874754.87145  22400704.1564                   22400701.9654
  -1584158.93748  -1228227.99746  20667735.8834                   20667734.2034
 11  7 29 14 27 30.0000000  0  6G16G20G23G24G31G32
  -8750326.53948  -6802857.40046  20795744.7894                   20795742.4304
  -5438849.05548  -4226548.58146  20957311.6094                   20957308.8204
  -7685853.57047  -5978115.13545  22574494.8284                   22574490.7624
   5398685.30146   4200620.39343  24117640.4304                   24117641.3914
   6296276.96547   4902158.37245  22407395.9384                   22407394.1764
  -1608992.78148  -1247579.04946  20663010.2814                   20663008.7154
 11  7 29 14 28  0.0000000  0  6G16G20G23G24G31G32
  -8851362.76648  -6881586.90146  20776518.2584                   20776515.4384
  -5501791.80948  -4275594.89646  20945333.8524                   20945331.3404
  -7797714.62947  -6065279.56445  22553208.1094                   22553204.0164
   5428306.32846   4223701.61943  24123276.4454                   24123278.1564
   6331458.44147   4929572.47745  22414091.1174                   22414088.9414
  -1633322.59848  -1266537.37246  20658380.5554                   20658378.6644
 11  7 29 14 28 30.0000000  0  6G16G20G23G24G31G32
  -8951896.91448  -6959925.18746  20757387.2114                   20757384.6524
  -5564181.84048  -4324210.52046  20933461.6484                   20933458.8204
  -7909568.28547  -6152438.22745  22531923.1954                   22531919.4574
   5457974.03146   4246819.28743  24128922.7424                   24128923.2814
   6366658.35547   4957000.93245  22420789.2814                   22420787.0864
  -1657142.77048  -1285098.56546  20653847.8134                   20653846.1524
 11  7 29 14 29  0.0000000  0  6G16G20G23G24G31G32
  -9051921.98448  -7037866.77846  20738353.1254                   20738350.1024
  -5626013.03548  -4372390.69346  20921695.6414                   20921693.1134
  -8021408.58247  -6239586.50245  22510640.3204                   22510636.9734
   5487690.45746   4269974.80143  24134577.3444                   24134578.6524
   6401879.82847   4984446.20245  22427491.8674                   22427489.7074
  -1680448.86348  -1303259.17646  20649412.9224                   20649410.8404
 11  7 29 14 29 30.0000000  0  6G16G20G23G24G31G32
  -9151445.53148  -7115417.57846  20719414.5084                   20719411.4454
  -5687294.33648  -4420142.36646  20910034.2194                   20910031.4264
  -8133244.31647  -6326731.19445  22489358.5634                   22489354.7424
   5517443.02346   4293158.60843  24140239.6884                   24140240.4454
   6437112.00047   5011899.79745  22434196.1884                   22434194.2074
  -1703250.38748  -1321026.62046  20645074.0164                   20645071.9654
 11  7 29 14 30  0.0000000  0  6G16G20G23G24G31G32
  -7675038.29748  -5964970.36746  21000365.4064                   21000362.5514
  -4172598.77048  -3239860.10646  21198271.5474                   21198268.7384
  -6669646.92247  -5186265.66845  22767872.4224                   22767867.8524
   7122651.75446   5543970.51143  24445699.8284                   24445701.5664
   8047776.25047   6266962.79545  22740695.9534                   22740693.4264
   -150122.98848   -110797.49446  20940624.3984                   20940622.4454
 11  7 29 14 30 30.0000000  0  6G16G20G23G24G31G32
  -7773544.56648  -6041728.48446  20981619.8834                   20981617.4574
  -4232769.63348  -3286746.50546  21186820.8984                   21186818.3284
  -6781462.20747  -5273394.45545  22746594.1334                   22746590.3094
   7152476.05546   5567210.11843  24451375.8594                   24451377.0004
   8083034.07047   6294436.38345  22747405.0784                   22747402.5234
   -171908.09048   -127772.91846  20936478.5234                   20936476.6764
 11  7 29 14 31  0.0000000  0  6G16G20G23G24G31G32
  -7871541.17648  -6118089.46346  20962972.3914                   20962969.2544
  -4292386.04348  -3333200.86046  21175476.4924                   21175473.8834
  -6893268.05147  -5360515.85445  22725318.1254                   22725314.5634
   7182330.05146   5590472.89143  24457056.9924                   24457058.8164
   8118300.34448   6321916.54845  22754115.6564                   22754113.6094
   -193187.48048   -144354.25846  20932429.5784                   20932427.4734
 11  7 29 14 31 30.0000000  0  6G16G20G23G24G31G32
  -7969023.68748  -6194049.84946  20944421.7504                   20944419.2854
  -4351445.03948  -3379220.87646  21164237.8754                   21164235.1994
  -7005060.47347  -5447626.82245  22704044.8674                   22704041.5474
   7212212.83646   5613758.08843  24462742.7034                   24462744.5704
   8153576.64147   6349404.51945  22760829.0084                   22760826.9454
   -213958.84048   -160539.74246  20928476.4064                   20928474.5234
 11  7 29 14 32  0.0000000  0  6G16G20G23G24G31G32
  -8065993.02348  -6269610.35746  20925969.0864                   20925966.3244
  -4409948.52748  -3424808.03146  21153104.9384                   21153102.5234
  -7116841.47347  -5534728.86545  22682773.5704                   22682770.3954
   7242118.89146   5637061.43443  24468434.2664                   24468435.9924
   8188858.18047   6376896.58245  22767542.6884                   22767541.0354
   -234225.65648   -176332.07546  20924619.9304                   20924618.1414
 11  7 29 14 32 30.0000000  0  6G16G20G23G24G31G32
  -8162442.75848  -6344765.97546  20907615.2194                   20907612.4304
  -4467891.50448  -3469958.43746  21142078.9454                   21142076.1604
  -7228605.46547  -5621817.66745  22661505.8914                   22661502.0514
   7272049.62146   5660383.95143  24474130.1414                   24474131.6094
   8224148.14148   6404395.20645  22774258.2344                   22774256.1334
   -253983.69548   -191727.95746  20920859.9694                   20920858.1294
 11  7 29 14 33  0.0000000  0  6G16G20G23G24G31G32
  -8258369.70348  -6419514.23246  20889361.1484                   20889358.2344
  -4525272.13748  -3514670.64446  21131159.4064                   21131157.0594
  -7340350.00048  -5708891.31345  22640241.2814                   22640237.7074
   7302003.72746   5683724.75843  24479830.3674                   24479831.8204
   8259447.21548   6431900.92145  22780975.5634                   22780972.7974
   -273231.63748   -206726.37446  20917197.3204                   20917195.8834
 11  7 29 14 33 30.0000000  0  6G16G20G23G24G31G32
  -8353771.83248  -6493853.54446  20871206.4224                   20871203.6994
  -4582089.52048  -3558943.96246  21120347.9304                   21120345.0984
  -7452073.96947  -5795948.95145  22618981.0864                   22618977.3204
   7331978.07846   5707081.25244  24485534.0234                   24485535.4534
   8294753.64148   6459412.37245  22787694.4304                   22787691.5514
   -291970.34048   -221327.97446  20913631.3204                   20913629.5314
 11  7 29 14 34  0.0000000  0  6G16G20G23G24G31G32
  -8448643.96148  -6567779.86746  20853152.9224                   20853150.3444
  -4638339.18748  -3602774.89146  21109643.8754                   21109640.8714
  -7563772.98047  -5882987.11745  22597725.9774                   22597722.0204
   7361973.66047   5730454.38743  24491242.9454                   24491243.4224
   8330070.03947   6486931.57845  22794415.3754                   22794412.5274
   -310196.33648   -235530.07746  20910163.0784                   20910161.5474
 11  7 29 14 34 30.0000000  0  6G16G20G23G24G31G32
  -8542988.11748  -6641294.77446  20835199.8594                   20835197.0904
  -4694024.73048  -3646166.22146  21099047.2274                   21099044.6294
  -7675449.60247  -5970007.83545  22576474.1954                   22576470.8284
   7391983.35946   5753838.48843  24496953.1724                   24496954.8094
   8365390.88347   6514454.25745  22801136.2814                   22801133.6644
   -327914.09048   -249336.15346  20906791.7034                   20906789.7344
 11  7 29 14 35  0.0000000  0  5G16G20G23G31G32
  -8636796.74248  -6714392.39146  20817348.8364                   20817345.8914
  -4749140.13748  -3689113.30546  21088559.0164                   21088556.9384
  -7787096.87547  -6057005.67945  22555228.1644                   22555224.5704
   8400720.68047   6541983.90745  22807858.8754                   22807856.7544
   -345118.19548   -262741.98046  20903517.8754                   20903516.1564
 11  7 29 14 35 30.0000000  0  5G16G20G23G31G32
  -8730067.19948  -6787070.66146  20799600.0944                   20799596.9534
  -4803683.78548  -3731614.85646  21078179.8204                   21078177.3134
  -7898713.22747  -6143979.45645  22533988.5084                   22533984.7584
   8436058.80547   6569520.07245  22814583.9224                   22814581.7424
   -361808.49648   -275747.44846  20900341.6094                   20900339.8674
 11  7 29 14 36  0.0000000  0  5G16G20G23G31G32
  -8822786.68448  -6859319.60446  20781956.3134                   20781953.2854
  -4857644.23048  -3773661.96446  21067911.4144                   21067908.8484
  -8010286.48847  -6230919.64045  22512756.6174                   22512752.8794
   8471415.24647   6597070.49045  22821312.0234                   22821309.7504
   -377974.60548   -288344.43046  20897265.5084                   20897263.5514
 11  7 29 14 36 30.0000000  0  5G16G20G23G31G32
  -8914955.42248  -6931139.39046  20764416.6884                   20764414.1254
  -4911022.69547  -3815255.56946  21057754.1094                   21057751.0594
  -8121817.12947  -6317826.62745  22491532.6804                   22491529.3594
   8506787.02047   6624632.87345  22828043.1024                   22828041.1024
   -393618.69548   -300534.65846  20894288.4774                   20894286.9454
 11  7 29 14 37  0.0000000  0  5G16G20G23G31G32
  -9006574.30148  -7002530.71746  20746981.9384                   20746979.6294
  -4963821.76248  -3856397.70446  21047706.6644                   21047704.0984
  -8233306.83247  -6404701.68845  22470316.9534                   22470313.3014
   8542169.92647   6652203.91345  22834776.4774                   22834773.8594
   -408744.00448   -312320.64246  20891410.2974                   20891408.6054
 11  7 29 14 37 30.0000000  0  5G16G20G23G31G32
  -9097643.78148  -7073493.93546  20729652.2344                   20729649.8754
  -5016042.64548  -3897089.31646  21037769.2114                   21037766.7624
  -8344756.50447  -6491545.59545  22449109.2894                   22449105.1334
   8577560.55547   6679780.97445  22841511.1414                   22841508.8984
   -423353.27348   -323704.50146  20888630.5864                   20888628.6454
 11  7 29 14 38  0.0000000  0  5G16G20G23G31G32
  -9188159.16048  -7144025.38346  20712427.8284                   20712425.1254
  -5067682.15648  -3937327.91946  21027942.7114                   21027940.3554
  -8456162.05147  -6578355.08845  22427909.0554                   22427905.8094
   8612960.89547   6707365.60145  22848247.0784                   22848244.9734
   -437444.11348   -334684.40746  20885948.8914                   20885947.1954
 11  7 29 14 38 30.0000000  0  5G16G20G23G31G32
  -9278123.81248  -7214127.69446  20695308.1804                   20695305.3054
  -5118745.04748  -3977117.18646  21018225.6564                   21018223.3404
  -8567527.28147  -6665133.16845  22406717.0634                   22406713.2624
   8648364.62147   6734952.86545  22854984.4844                   22854982.1884
   -451022.21548   -345264.76846  20883365.2814                   20883363.1564
 11  7 29 14 39  0.0000000  0  5G16G20G23G31G32
  -9367533.07448  -7283797.24046  20678293.8524                   20678291.2424
  -5169227.91848  -4016454.50846  21008619.0634                   21008616.5704
  -8678847.95747  -6751876.52445  22385533.0784                   22385529.7894
   8683773.52047   6762544.15145  22861722.0554                   22861720.4804
   -464085.03148   -355443.61646  20880879.3364                   20880877.8324
 11  7 29 14 39 30.0000000  0  5G16G20G23G31G32
  -9456384.27048  -7353031.91946  20661386.4144                   20661383.4384
  -5219129.59048  -4055338.93146  20999123.3674                   20999120.8054
  -8790122.25847  -6838583.73645  22364358.6174                   22364354.9304
   8719187.33247   6790139.28145  22868461.9064                   22868459.6174
   -476632.74648   -365221.07346  20878491.7194                   20878489.5984
 11  7 29 14 40  0.0000000  0  5G16G20G23G31G32
  -9544677.95348  -7421832.17946  20644584.6414                   20644581.5784
  -5268450.96548  -4093771.17846  20989737.8834                   20989735.1684
  -8901350.31247  -6925254.93545  22343192.7974                   22343189.0004
   8754603.12547   6817735.96245  22875201.2274                   22875199.4574
   -488667.12148   -374598.54646  20876201.4224                   20876199.9184
 11  7 29 14 40 30.0000000  0  5G16G20G23G31G32
  -9632407.53148  -7490192.87446  20627890.1804                   20627887.1844
  -5317187.40648  -4131747.64146  20980463.8674                   20980461.1524
  -9012526.25048  -7011885.52945  22322036.5084                   22322032.7584
   8790024.63347   6845337.08045  22881941.3054                   22881939.5864
   -500184.44948   -383573.11446  20874010.2584                   20874008.1914
 11  7 29 14 41  0.0000000  0  5G16G20G23G31G32
  -9719577.57448  -7558117.56646  20611302.4224                   20611299.2624
  -5365344.68748  -4169272.79846  20971299.7114                   20971297.2584
  -9123654.86748  -7098479.22045  22300889.6174                   22300885.4104
   8825444.47347   6872936.88445  22888681.8594                   22888680.0664
   -511191.47348   -392150.03646  20871915.4614                   20871913.4884
 11  7 29 14 41 30.0000000  0  5G16G20G23G31G32
  -9806183.84048  -7625602.95446  20594821.4844                   20594818.6214
  -5412919.60948  -4206344.16946  20962246.0864                   20962243.5864
  -9234732.23848  -7185032.99445  22279752.2894                   22279748.4184
   8860864.31647   6900536.73845  22895421.7504                   22895419.6254
   -521686.07048   -400327.67446  20869918.1804                   20869916.5004
 11  7 29 14 42  0.0000000  0  6G06G16G20G23G31G32
   4525741.93846   3529126.72443  24171413.9694                   24171413.1134
  -9892230.39148  -7692652.19146  20578447.5394                   20578444.5274
  -5459917.89848  -4242966.21646  20953302.7274                   20953300.1954
  -9345762.71548  -7271550.22745  22258623.8674                   22258619.8834
   8896277.52047   6928131.37545  22902160.8204                   22902158.4534
   -531674.89548   -408111.18646  20868017.2504                   20868015.7274
 11  7 29 14 42 30.0000000  0  6G06G16G20G23G31G32
   4415546.19947   3443259.85943  24150443.9224                   24150444.3364
  -9977714.73848  -7759263.35246  20562180.2584                   20562177.2734
  -5506338.21548  -4279137.90346  20944469.2814                   20944466.6604
  -9456744.16048  -7358029.26645  22237504.4534                   22237501.1334
   8931683.82447   6955720.65945  22908899.0864                   22908896.2114
   -541157.52748   -415500.28046  20866213.0234                   20866211.1724
 11  7 29 14 43  0.0000000  0  6G06G16G20G23G31G32
   4305334.22746   3357380.38643  24129471.6024                   24129471.7934
 -10062642.46948  -7825440.79546  20546019.5634                   20546016.6334
  -5552187.14548  -4314864.34946  20935744.3524                   20935741.8444
  -9567682.01248  -7444474.33945  22216393.9224                   22216389.7664
   8967075.09047   6983298.21645  22915633.1484                   22915630.9024
   -550141.58648   -422500.85946  20864503.3364                   20864501.9384
 11  7 29 14 43 30.0000000  0  6G06G16G20G23G31G32
   4195117.08647   3271496.85943  24108497.8834                   24108498.3714
 -10147003.55547  -7891176.69346  20529965.9304                   20529963.1954
  -5597456.19548  -4350138.94246  20927130.3594                   20927127.6134
  -9678566.64848  -7530877.91845  22195293.3984                   22195289.4344
   9002458.93847   7010869.98545  22922367.0944                   22922364.7114
   -558619.56648   -429107.10846  20862890.2664                   20862888.6804
 11  7 29 14 44  0.0000000  0  6G06G16G20G23G31G32
   4084897.24647   3185611.26843  24087523.7194                   24087523.7734
 -10230796.69548  -7956470.02646  20514020.7344                   20514018.1054
  -5642145.25048  -4384961.60246  20918626.0314                   20918623.5004
  -9789396.80547  -7617239.05445  22174203.1804                   22174198.9144
   9037834.18447   7038435.06645  22929098.5394                   22929096.9414
   -566592.20748   -435319.57546  20861372.8754                   20861371.3794
 11  7 29 14 44 30.0000000  0  6G06G16G20G23G31G32
   3974678.41046   3099726.54243  24066548.9844                   24066550.3244
 -10314019.43748  -8021318.90246  20498183.6094                   20498181.2234
  -5686253.27048  -4419331.49046  20910232.5164                   20910229.6294
  -9900170.21548  -7703555.97445  22153123.5634                   22153119.4344
   9073200.66847   7065993.33745  22935828.2034                   22935826.7704
   -574059.42248   -441138.20146  20859952.1484                   20859950.5274
 11  7 29 14 45  0.0000000  0  6G06G16G20G23G31G32
   3864464.36347   3013845.44543  24045577.4304                   24045576.7384
 -10396669.52347  -8085721.55446  20482455.9924                   20482453.2114
  -5729778.96148  -4453247.60946  20901950.2894                   20901947.5044
 -10010884.37547  -7789826.72745  22132055.3754                   22132051.2154
   9108558.34047   7093544.73745  22942556.6334                   22942555.1254
   -581021.22348   -446563.01146  20858627.3204                   20858625.4454
 11  7 29 14 45 30.0000000  0  6G06G16G20G23G31G32
   3754257.44946   2927969.94243  24024605.1024                   24024605.1214
 -10478745.82847  -8149677.11547  20466837.3524                   20466834.3984
  -5772722.80148  -4486710.35446  20893778.1644                   20893775.6844
 -10121538.30947  -7876050.54745  22110998.4924                   22110994.4654
   9143906.00447   7121088.30945  22949283.5864                   22949281.4384
   -587478.64548   -451594.79046  20857398.5394                   20857396.7814
 11  7 29 14 46  0.0000000  0  6G06G16G20G23G31G32
   3644057.97746   2842100.24543  24003634.6024                   24003634.5204
 -10560249.54347  -8213186.49346  20451327.7814                   20451324.9144
  -5815087.19148  -4519721.57546  20885716.2504                   20885713.5594
 -10232132.97747  -7962228.19145  22089953.2034                   22089949.2734
   9179240.20347   7148621.40045  22956007.6564                   22956005.1374
   -593435.06248   -456236.17046  20856265.1254                   20856263.4884
 11  7 29 14 46 30.0000000  0  6G06G16G20G23G31G32
   3533868.79746   2756238.58943  23982665.9454                   23982666.0514
 -10641179.02348  -8276248.42246  20435927.1414                   20435924.2274
  -5856871.71548  -4552280.94146  20877764.6024                   20877762.3054
 -10342666.87147  -8048358.49545  22068919.1174                   22068915.1054
   9214560.31647   7176143.50745  22962728.4694                   22962726.8714
   -598891.09448   -460487.63846  20855226.8834                   20855225.0704
 11  7 29 14 47  0.0000000  0  6G06G16G20G23G31G32
   3423692.58646   2670386.94643  23961701.1024                   23961701.0004
 -10721533.08248  -8338861.96646  20420636.4064                   20420633.4384
  -5898076.44948  -4584388.53746  20869924.1804                   20869921.4414
 -10453138.77747  -8134440.48345  22047897.0474                   22047892.9064
   9249864.80947   7203653.42745  22969446.7504                   22969444.9844
   -603847.84448   -464350.06446  20854283.9224                   20854281.8914
 11  7 29 14 47 30.0000000  0  7G06G03G16G20G23G31G32
   3313532.60256   2584548.06653  23940738.3674                   23940738.3014
   4497532.80146   3512556.46743  24094643.5864                   24094643.8094
 -10801309.86747  -8401025.69046  20405455.2664                   20405452.5204
  -5938701.20748  -4616044.18846  20862193.4304                   20862190.8094
 -10563546.73847  -8220472.65145  22026886.7344                   22026883.3714
   9285153.29747   7231150.90045  22976161.8444                   22976160.4534
   -608305.82848   -467823.85246  20853435.1724                   20853433.7384
 11  7 29 14 48  0.0000000  0  7G06G03G16G20G23G31G32
   3203385.86346   2498719.46443  23919777.2424                   23919777.1564
   4371610.11346   3414434.91143  24070681.5784                   24070681.7194
 -10880514.00047  -8462743.17546  20390383.1414                   20390380.7624
  -5978751.36348  -4647252.11346  20854572.1024                   20854569.8054
 -10673894.99647  -8306458.28145  22005888.6564                   22005884.6764
   9320419.24647   7258630.81645  22982872.8834                   22982871.4964
   -612271.60948   -470914.08746  20852680.5164                   20852678.7664
 11  7 29 14 48 30.0000000  0  7G06G03G16G20G23G31G32
   3093255.58246   2412903.76543  23898820.7114                   23898820.4654
   4245588.84446   3316236.45743  24046699.9694                   24046699.9884
 -10959143.75847  -8524013.10946  20375420.4614                   20375417.6914
  -6018226.41448  -4678011.90446  20847060.1954                   20847057.5084
 -10784181.52047  -8392395.81445  21984901.8984                   21984897.7074
   9355662.05147   7286092.70745  22989580.0864                   22989578.2424
   -615745.63348   -473621.15646  20852019.9844                   20852017.9574
 11  7 29 14 49  0.0000000  0  7G06G03G16G20G23G31G32
   2983149.06346   2327106.50343  23877868.3204                   23877867.1054
   4119475.17646   3217966.07443  24022701.5474                   24022701.5394
 -11037193.59447  -8584831.15446  20360568.3204                   20360565.4494
  -6057122.50848  -4708320.56446  20839658.6174                   20839655.9104
 -10894400.49247  -8478280.71145  21963927.6414                   21963923.6174
   9390885.34847   7313539.37145  22996282.4454                   22996280.7384
   -618724.52048   -475942.38746  20851452.6954                   20851451.0784
 11  7 29 14 49 30.0000000  0  8G06G03G16G20G13G23G31G32
   2873065.72346   2241327.27943  23856919.3364                   23856919.8324
   3993269.13346   3119623.72143  23998685.1414                   23998686.1564
 -11114665.16447  -8645198.59146  20345825.9224                   20345822.9734
  -6095442.70348  -4738180.47046  20832366.5864                   20832364.1644
   4506380.28546   3514709.58443  24077990.9614                   24077990.8674
 -11004553.86747  -8564114.48845  21942966.0474                   21942962.0514
   9426085.07847   7340967.66345  23002980.3364                   23002978.3754
   -621212.44148   -477881.05146  20850979.3914                   20850977.5664
 11  7 29 14 50  0.0000000  0  8G06G03G16G20G13G23G31G32
   2763010.43046   2155570.03043  23835976.6804                   23835977.2234
   3866975.13746   3021212.74143  23974652.0784                   23974653.2624
 -11191555.73847  -8705113.32346  20331194.2344                   20331191.0394
  -6133184.91848  -4767589.99046  20825184.4144                   20825181.6684
   4385477.91046   3420500.05643  24054983.2894                   24054983.6374
 -11114637.96548  -8649894.28945  21922018.0004                   21922013.4144
   9461262.34047   7368378.46945  23009674.9144                   23009672.7854
   -623208.56648   -479436.48146  20850599.8364                   20850598.0204
 11  7 29 14 50 30.0000000  0  8G06G03G16G20G13G23G31G32
   2652973.98446   2069827.35343  23815037.1724                   23815037.2854
   3740583.99246   2922726.19643  23950600.5704                   23950601.5634
 -11267876.01647  -8764583.64946  20316670.8134                   20316668.0744
  -6170361.67247  -4796558.90246  20818109.9224                   20818107.1844
   4264500.18846   3326231.78143  24031961.6564                   24031962.4964
 -11224663.23848  -8735628.24845  21901080.8674                   21901076.9454
   9496404.27047   7395761.72545  23016361.5864                   23016360.2274
   -624725.77748   -480618.73946  20850310.8134                   20850309.4024
 11  7 29 14 51  0.0000000  0  8G06G03G16G20G13G23G31G32
   2542966.67246   1984107.37843  23794103.2664                   23794103.5474
   3614105.56646   2824171.57544  23926533.4924                   23926534.1684
 -11343617.18048  -8823602.73146  20302257.5784                   20302254.9024
  -6206965.43747  -4825081.32146  20811144.7584                   20811141.7664
   4143455.42646   3231911.20843  24008927.6174                   24008928.1884
 -11334620.65648  -8821309.32845  21880156.5314                   21880152.4384
   9531517.39847   7423122.56245  23023043.9384                   23023042.3404
   -625757.55948   -481422.74846  20850114.6414                   20850112.9414
 11  7 29 14 51 30.0000000  0  8G06G03G16G20G13G23G31G32
   4008425.50846   3126023.39343  24072970.5084                   24072971.0904
   5062977.62146   3953162.76044  24202244.4454                   24202245.0824
  -9843345.30547  -7654559.69747  20587749.8914                   20587747.0514
  -4667564.60247  -3625548.21646  21104082.7274                   21104079.8914
   5597779.00046   4365150.47743  24285676.6334                   24285676.6684
  -9869074.56648  -7679325.35645  22159040.5084                   22159036.6524
  11142030.09847   8678067.46445  23329514.0704                   23329512.8524
    949125.35248    745758.72746  21149804.7894                   21149803.0824
 11  7 29 14 52  0.0000000  0  8G06G03G16G20G13G23G31G32
   3898501.92656   3040368.74853  24052053.4774                   24052054.2544
   4936349.90246   3854491.86643  24178148.2424                   24178148.5944
  -9917908.12547  -7712660.59146  20573561.2734                   20573558.2774
  -4703005.93748  -3653164.85246  21097338.2584                   21097335.8554
   5476619.22746   4270740.30243  24262621.0234                   24262620.5984
  -9978874.94148  -7764884.07445  22138146.4694                   22138142.3134
  11177099.81647   8705394.46645  23336187.9694                   23336186.8554
    949077.78148    745721.65346  21149795.5314                   21149794.0664
 11  7 29 14 52 30.0000000  0  8G06G03G16G20G13G23G31G32
   3788623.66447   2954749.35044  24031144.7974                   24031144.7814
   4809650.69946   3755765.25244  24154038.5234                   24154038.1454
  -9991881.30547  -7770302.01646  20559484.4144                   20559481.5554
  -4737866.94548  -3680329.28346  21090704.6954                   21090702.0944
   5355402.51646   4176285.83343  24239554.3754                   24239553.5664
 -10088594.98048  -7850380.16545  22117267.4844                   22117262.9344
  11212145.93847   8732703.06945  23342856.4304                   23342855.4774
    949519.91048    746066.13446  21149880.4384                   21149878.4694
 11  7 29 14 53  0.0000000  0  8G06G03G16G20G13G23G31G32
   3678798.24646   2869171.19143  24010244.3054                   24010245.6024
   4682887.67646   3656988.95044  24129915.3914                   24129916.1484
 -10065258.95347  -7827479.40146  20545521.2114                   20545518.4264
  -4772143.45748  -3707038.26646  21084182.1564                   21084179.7544
   5234134.00046   4081790.90643  24216476.3204                   24216476.6804
 -10198228.96548  -7935809.22145  22096404.6724                   22096400.8404
  11247172.26247   8759996.25845  23349522.0944                   23349520.6914
    950455.48048    746795.13646  21150057.8204                   21150056.0944
 11  7 29 14 53 30.0000000  0  8G06G03G16G20G13G23G31G32
   3569026.50847   2783634.78743  23989356.3134                   23989356.4964
   4556061.15246   3558163.06843  24105781.2664                   24105781.4494
 -10138041.92248  -7884193.40146  20531671.0474                   20531667.9844
  -4805837.95748  -3733293.74046  21077770.4774                   21077767.7774
   5112812.03946   3987254.38443  24193389.4304                   24193389.9224
 -10307776.78948  -8021171.15545  22075558.2344                   22075554.4064
  11282176.10547   8787271.92745  23356183.3594                   23356181.6054
    951881.21948    747906.06746  21150329.2504                   21150327.6024
 11  7 29 14 54  0.0000000  0  8G06G03G16G20G13G23G31G32
   3459311.94147   2698143.01044  23968478.0474                   23968478.9264
   4429174.64546   3459290.55144  24081635.5164                   24081636.0354
 -10210228.41447  -7940442.60746  20517934.3204                   20517931.2734
  -4838949.78148  -3759095.16646  21071469.1804                   21071466.5394
   4991438.88346   3892677.94343  24170293.9224                   24170293.2624
 -10417236.33248  -8106464.27445  22054728.7274                   22054725.0824
  11317157.27047   8814529.93045  23362840.0164                   23362838.6564
    953796.55148    749398.50546  21150693.5784                   21150692.1604
 11  7 29 14 54 30.0000000  0  8G06G03G16G20G13G23G31G32
   3349662.75846   2612702.13944  23947612.1334                   23947613.7664
   4302236.31646   3360377.63044  24057480.1644                   24057480.3134
 -10281812.46548  -7996222.37346  20504312.0234                   20504309.2504
  -4871473.96948  -3784438.69846  21065279.8594                   21065277.4844
   4870020.13346   3798065.97843  24147189.1724                   24147187.7894
 -10526600.92248  -8191683.41445  22033917.2034                   22033913.4264
  11352120.12547   8841773.64645  23369493.5004                   23369491.1804
    956205.73048    751275.76946  21151152.3364                   21151150.3594
 11  7 29 14 55  0.0000000  0  8G06G03G16G20G13G23G31G32
   3240081.42246   2527314.17744  23926759.6484                   23926760.0864
   4175248.36346   3261426.00944  24033315.0864                   24033315.4104
 -10352793.50847  -8051532.28546  20490805.2274                   20490802.2304
  -4903411.33248  -3809324.97346  21059202.7504                   21059200.0474
   4748556.33646   3703418.92043  24124074.6954                   24124073.4964
 -10635869.18048  -8276827.50045  22013124.0554                   22013120.1684
  11387063.70347   8869002.35145  23376143.2034                   23376141.9964
    959107.18848    753536.62046  21151704.2344                   21151702.8674
 11  7 29 14 55 30.0000000  0  8G06G03G16G20G13G23G31G32
   3130566.42647   2441977.86644  23905919.7974                   23905920.1374
   4048209.23447   3162434.54144  24009140.6414                   24009140.1804
 -10423175.05548  -8106375.04546  20477412.0004                   20477408.8324
  -4934766.48048  -3833757.58046  21053235.8204                   21053233.3284
   4627043.86346   3608733.91043  24100951.3444                   24100951.3674
 -10745043.99648  -8361898.76245  21992349.2424                   21992345.1994
  11421982.88747   8896212.06645  23382787.3364                   23382786.5944
    962495.15648    756176.57846  21152349.6174                   21152347.3484
 11  7 29 14 56  0.0000000  0  8G06G03G16G20G13G23G31G32
   3021124.09047   2356698.13744  23885094.0164                   23885093.9654
   3921125.21146   3063408.07544  23984956.6094                   23984956.9304
 -10492952.30947  -8160746.91946  20464133.7734                   20464131.1914
  -4965536.58248  -3857734.28446  21047380.5234                   21047378.3094
   4505486.81646   3514014.18643  24077820.1334                   24077819.3284
 -10854120.11748  -8446893.13145  21971592.4924                   21971588.7304
  11456880.27347   8923404.79545  23389428.2114                   23389427.1524
    966372.09848    759197.54146  21153087.0554                   21153085.5514
 11  7 29 14 56 30.0000000  0  8G06G03G16G20G13G23G31G32
   2911756.43047   2271476.70544  23864281.6724                   23864281.6764
   3793998.05546   2964347.99844  23960765.2194                   23960765.7734
 -10562125.63747  -8214648.21946  20450970.0234                   20450967.2774
  -4995722.88748  -3881256.09146  21041636.3984                   21041633.8834
   4383885.62946   3419260.03243  24054680.0394                   24054679.4384
 -10963096.84048  -8531810.04846  21950855.0634                   21950851.2304
  11491754.22347   8950579.24545  23396064.5944                   23396063.3054
    970735.69148    762597.71046  21153917.2814                   21153915.7304
 11  7 29 14 57  0.0000000  0  8G06G03G16G20G13G23G31G32
   2802469.27047   2186317.90044  23843485.0164                   23843485.4774
   3666833.51646   2865258.84743  23936566.4064                   23936567.3204
 -10630691.65247  -8268076.28046  20437922.8054                   20437919.7734
  -5025322.78948  -3904320.96546  21036003.6024                   21036001.1954
   4262243.60346   3324474.11743  24031532.1414                   24031532.3674
 -11071969.57047  -8616645.92345  21930137.1174                   21930133.5434
  11526607.01247   8977737.23445  23402697.1884                   23402695.2854
    975587.65248    766378.45146  21154840.5084                   21154839.0314
 11  7 29 14 57 30.0000000  0  8G06G03G16G20G13G23G31G32
   2693265.11747   2101223.80944  23822704.5314                   23822704.3554
   3539634.28146   2766142.66344  23912361.2974                   23912361.9224
 -10698649.54747  -8321030.48047  20424990.9144                   20424987.9694
  -5054337.09448  -3926929.53646  21030482.2894                   21030480.1804
   4140561.34446   3229656.95043  24008376.9454                   24008376.7194
 -11180736.88748  -8701399.67145  21909439.4304                   21909435.6764
  11561437.58247   9004877.85345  23409325.3594                   23409324.0394
    980926.32048    770538.42646  21155856.7424                   21155854.7074
 11  7 29 14 58  0.0000000  0  8G06G03G16G20G13G23G31G32
   2584142.17647   2016193.02244  23801938.8754                   23801938.7704
   3412398.07046   2666997.63343  23888148.9924                   23888149.0004
 -10766003.08247  -8373513.75046  20412173.8524                   20412171.0274
  -5082771.00048  -3949085.85446  21025071.5394                   21025069.3634
   4018835.34846   3134805.56643  23985213.4064                   23985212.9064
 -11289401.96548  -8786073.74945  21888761.1954                   21888757.2304
  11596240.70747   9031997.07445  23415948.2274                   23415946.1644
    986745.96148    775073.18446  21156963.8204                   21156962.4884
 11  7 29 14 58 30.0000000  0  8G06G03G16G20G13G23G31G32
   2475104.45747   1931228.62444  23781189.0394                   23781189.4884
   3285129.14846   2567827.09243  23863930.0234                   23863930.5784
 -10832750.68047  -8425524.85546  20399472.1804                   20399469.1374
  -5110623.96148  -3970789.48146  21019771.4774                   21019769.0434
   3897067.23846   3039921.41443  23962040.8834                   23962041.5314
 -11397961.86348  -8870665.86245  21868103.1024                   21868098.6994
  11631016.10247   9059094.77745  23422564.7664                   23422563.8284
    993045.82848    779982.15646  21158162.9844                   21158161.0984
 11  7 29 14 59  0.0000000  0  8G06G03G16G20G13G23G31G32
   2366150.73047   1846329.67044  23760455.7194                   23760456.2664
   3157826.18846   2468630.07143  23839705.5864                   23839705.5594
 -10898895.64148  -8477066.38546  20386885.3284                   20386882.2704
  -5137900.73848  -3992044.13846  21014580.7664                   21014578.4494
   3775253.77046   2945001.88443  23938861.0004                   23938860.2504
 -11506419.12948  -8955178.00445  21847464.1804                   21847460.2734
  11665759.62947   9086167.59845  23429176.9614                   23429175.4384
    999820.87548    785261.39046  21159451.9064                   21159450.6564
 11  7 29 14 59 30.0000000  0  8G06G03G16G20G13G23G31G32
   2257287.45347   1761501.13544  23739739.7114                   23739740.1484
   3030495.24246   2369411.18743  23815475.0164                   23815475.1484
 -10964433.53947  -8528134.87547  20374413.8054                   20374410.7304
  -5164598.58248  -4012847.68546  21009500.5314                   21009497.9104
   3653399.48046   2850050.56643  23915673.1954                   23915672.6024
 -11614768.44148  -9039606.02445  21826845.7504                   21826841.9224
  11700473.98047   9113217.69445  23435782.8754                   23435780.6564
   1007073.07848    790912.42646  21160831.9774                   21160830.9534
 11  7 29 15  0  0.0000000  0  8G06G03G16G20G13G23G31G32
                                  23719041.5234                   23719042.2074
   2903137.90646   2270171.76243  23791239.8364                   23791239.3674
 -11029365.65647  -8578731.32646  20362057.8594                   20362054.5004
  -5190719.32848  -4033201.52946  21004529.9224                   21004527.3954
   3531503.57446   2755066.78844  23892476.6564                   23892476.4614
 -11723009.73848  -9123949.86545  21806247.8754                   21806244.3714
                                  23442383.0004                   23442381.4064
   1014799.53548    796933.01946  21162302.3054                   21162301.0004
 11  7 29 15  0 30.0000000  0  8G06G03G16G20G13G23G31G32
   2039839.90247   1592061.62244  23698361.5784                   23698360.9804
   2775757.43446   2170914.33643  23766999.7894                   23766999.3674
 -11093690.39547  -8628854.48746  20349816.5784                   20349814.0784
  -5216262.80148  -4053105.55646  20999669.1724                   20999666.6094
   3409568.00446   2660052.10443  23869272.9384                   23869272.5594
 -11831140.45348  -9208207.55045  21785671.5004                   21785667.6724
  11769808.55547   9167244.51145  23448977.1644                   23448975.5904
   1022999.65648    803322.70346  21163862.6094                   21163861.3054
 11  7 29 15  1  0.0000000  0  8G06G03G16G20G13G23G31G32
   1931260.48447   1507454.36744  23677699.2274                   23677699.2544
   2648355.45746   2071640.13443  23742755.7974                   23742756.1644
 -11157408.78947  -8678505.18246  20337691.5944                   20337688.8874
  -5241231.21548  -4072561.47446  20994917.4454                   20994915.4574
   3287591.94146   2565005.93643  23846061.5944                   23846061.1484
 -11939160.61748  -9292379.09345  21765116.0084                   21765112.6644
  11804426.56647   9194219.52344  23455564.6254                   23455563.2544
   1031670.34048    810079.07346  21165512.7504                   21165511.4104
 11  7 29 15  1 30.0000000  0  8G06G03G16G20G13G23G31G32
   1822777.17647   1422921.99344  23657055.0944                   23657055.2704
   2520931.27346   1972348.61343  23718507.9924                   23718508.2974
 -11220523.76647  -8727685.68046  20325681.7504                   20325678.4184
  -5265629.09448  -4091572.82646  20990274.7584                   20990272.3404
   3165572.77346   2469926.07743  23822842.2734                   23822841.6334
 -12047071.84048  -9376465.74245  21744581.1954                   21744577.6094
  11839006.78147   9221165.10444  23462145.2194                   23462143.9344
   1040806.64848    817198.23346  21167251.5394                   21167249.8364
 11  7 29 15  2  0.0000000  0  8G06G03G16G20G13G23G31G32
   1714391.98046   1338466.02344  23636430.2344                   23636430.4184
   2393486.59846   1873041.13044  23694256.5164                   23694256.2344
 -11283035.64147  -8776396.22647  20313785.9064                   20313782.6374
  -5289457.77048  -4110140.64646  20985740.6484                   20985737.8594
   3043510.56646   2374812.77043  23799614.6884                   23799614.3204
 -12154873.41448  -9460466.95145  21724067.2114                   21724063.2114
  11873547.78547   9248080.10645  23468718.0554                   23468717.2854
   1050406.35948    824678.50846  21169078.2504                   21169076.5354
 11  7 29 15  2 30.0000000  0  8G06G03G16G20G13G23G31G32
   1606105.03146   1254086.61543  23615824.2274                   23615824.0434
   2266021.68446   1773717.87844  23670000.1724                   23670000.3794
 -11344946.73047  -8824638.62546  20302004.5084                   20302001.5164
  -5312720.74248  -4128267.64946  20981313.7814                   20981311.0904
   2921403.63346   2279664.58043  23776378.3674                   23776378.3324
 -12262566.22348  -9544383.40645  21703573.8204                   21703570.1134
  11908046.14847   9274961.89945  23475283.2114                   23475282.1724
   1060465.02348    832516.40746  21170992.6094                   21170991.0784
 11  7 29 15  3  0.0000000  0  8G06G03G16G20G13G23G31G32
   1497925.24646   1169790.73644  23595237.9534                   23595237.8284
   2138545.34446   1674385.73044  23645742.6804                   23645742.4264
 -11406250.41047  -8872407.72446  20290338.8134                   20290336.0474
  -5335412.98048  -4145949.92946  20976995.5394                   20976993.1524
   2799258.85546   2184486.91043  23753134.7814                   23753135.1804
 -12370142.35547  -9628208.94746  21683102.8594                   21683099.2624
  11942507.19947   9301814.61645  23481840.9694                   23481839.5124
   1070987.28148    840715.54046  21172994.9304                   21172993.2974
 11  7 29 15  3 30.0000000  0  8G06G03G16G20G13G23G31G32
   1389852.82046   1085578.46243  23574672.5704                   23574672.5234
   2011057.95746   1575044.98744  23621482.0704                   23621482.1024
 -11466949.19547  -8919705.48146  20278788.3284                   20278785.5864
  -5357537.85948  -4163190.11046  20972785.5944                   20972782.8674
   2677074.41446   2089278.29343  23729884.0164                   23729883.1684
 -12477602.99647  -9711944.47446  21662653.7814                   21662649.7344
  11976927.50047   9328635.59245  23488390.4304                   23488389.3634
   1081968.75048    849272.50446  21175084.5634                   21175082.9804
 11  7 29 15  4  0.0000000  0  8G06G03G16G20G13G23G31G32
   1281891.73047   1001453.04444  23554128.1724                   23554128.1844
   1883563.15246   1475698.42644  23597220.6174                   23597220.6994
 -11527041.37948  -8966530.55746  20267352.7584                   20267350.4344
  -5379095.35248  -4179988.18446  20968683.0164                   20968680.2344
   2554852.06346   1994040.18943  23706625.1954                   23706625.0434
 -12584945.53548  -9795588.00146  21642227.2734                   21642223.3014
  12011307.69547   9355425.28745  23494933.6564                   23494931.8324
   1093409.05947    858187.00846  21177261.5314                   21177259.7774
 11  7 29 15  4 30.0000000  0  8G06G03G16G20G13G23G31G32
   1174038.60546    917411.62943  23533603.9694                   23533604.7034
   1756057.81646   1376343.68544  23572957.0784                   23572957.0474
 -11586532.63748  -9012887.37647  20256032.2974                   20256029.6374
  -5400092.41848  -4196349.55146  20964687.3364                   20964684.8524
   2432586.78146   1898768.58543  23683359.3364                   23683358.8364
 -12692174.23048  -9879142.81546  21621822.4694                   21621818.5124
  12045640.77747   9382178.28245  23501466.7034                   23501464.9454
   1105300.19548    867452.79946  21179524.4694                   21179522.6844
 11  7 29 15  5  0.0000000  0  8G06G03G16G20G13G23G31G32
   1066301.36346    833460.61244  23513102.7344                   23513101.7854
   1628549.68846   1276986.74444  23548693.3914                   23548693.4384
 -11645418.27347  -9058772.28847  20244826.5084                   20244823.9024
  -5420524.90248  -4212271.00046  20960799.2734                   20960796.6954
   2310284.65246   1803468.31243  23660085.9614                   23660085.2034
 -12799282.34048  -9962603.66146  21601440.3524                   21601436.5514
  12079931.08247   9408897.95545  23507991.4224                   23507990.7734
   1117645.54348    877072.51546  21181873.7034                   21181872.1724
 11  7 29 15  5 30.0000000  0  8G06G03G16G20G13G23G31G32
    958682.54346    749601.83743  23492623.4534                   23492622.6254
   1501041.31346   1177629.61144  23524428.9384                   23524429.6454
 -11703697.98047  -9104185.04047  20233736.6804                   20233734.1604
  -5440394.03948  -4227753.48046  20957018.5084                   20957015.9734
   2187946.29746   1708139.73143  23636805.6724                   23636804.8484
 -12906268.32448 -10045969.34946  21581081.4924                   21581077.5984
  12114177.82447   9435583.67745  23514509.1484                   23514507.5944
   1130443.55948    887044.97046  21184309.2734                   21184307.4734
 11  7 29 15  6  0.0000000  0  8G06G03G16G20G13G23G31G32
    851188.14846    665840.02943  23472167.8284                   23472167.4224
   1373538.69146   1078276.97144  23500166.1024                   23500166.5124
 -11761368.18047  -9149122.85346  20222762.0634                   20222759.2504
  -5459697.68448  -4242795.30846  20953344.9694                   20953342.4344
   2065575.85546   1612786.18143  23613519.6174                   23613519.1374
 -13013127.34448 -10129236.11445  21560746.8204                   21560742.9224
  12148383.48047   9462237.39145  23521018.4454                   23521016.9804
   1143695.09848    897370.83546  21186830.5234                   21186829.4804
 11  7 29 15  6 30.0000000  0  8G06G03G16G20G13G23G31G32
    743819.17246    582175.91743  23451735.2894                   23451735.8754
   1246042.85946    978929.62944  23475904.2584                   23475904.6294
 -11818430.71547  -9193587.16447  20211903.6564                   20211900.8324
  -5478438.70748  -4257398.72746  20949778.6484                   20949775.9924
   1943171.89846   1517406.52343  23590226.5084                   23590225.5594
 -13119859.62147 -10212404.10746  21540436.5084                   21540432.4344
  12182545.50447   9488857.11045  23527519.0704                   23527518.0084
   1157397.03148    908047.63346  21189437.9614                   21189436.9064
 11  7 29 15  7  0.0000000  0  8G06G03G16G20G13G23G31G32
    636580.51246    498613.42143  23431328.8524                   23431329.1214
   1118558.94547    879591.56944  23451645.0164                   23451645.2544
 -11874883.19547  -9237576.10646  20201160.9844                   20201157.8014
  -5496616.21147  -4271563.03646  20946319.7504                   20946317.1994
   1820738.18447   1422003.73044  23566928.4534                   23566928.2704
 -13226461.17647 -10295470.25045  21520150.9454                   21520146.4384
  12216665.85247   9515444.33644  23534011.9384                   23534009.7894
   1171549.56648    919075.55546  21192131.1954                   21192129.6914
 11  7 29 15  7 30.0000000  0  8G06G03G16G20G13G23G31G32
    529479.97346    415158.49044  23410948.8284                   23410948.7384
    991094.59046    780268.77144  23427388.7504                   23427389.2664
 -11930720.69948  -9281085.85046  20190535.5634                   20190532.5984
  -5514226.41447  -4285285.30846  20942968.5784                   20942966.1134
   1698280.28147   1326582.06644  23543625.4774                   23543624.8204
 -13332925.39547 -10378429.36246  21499891.1564                   21499887.3324
  12250747.93047   9542001.77944  23540497.1954                   23540495.8054
   1186155.91447    930457.08046  21194910.5634                   21194909.2854
 11  7 29 15  8  0.0000000  0  8G06G03G16G20G13G23G31G32
    422509.10546    331804.61544  23390592.8364                   23390592.1094
    863641.34846    680954.60644  23403135.3834                   23403136.1254
 -11985954.40647  -9324125.09346  20180024.5084                   20180021.9064
  -5531281.31647  -4298574.86246  20939723.2814                   20939720.9454
   1575787.97347   1231133.54344  23520315.6804                   23520315.2344
 -13439261.90247 -10461288.96546  21479656.2894                   21479652.3634
  12284780.22746   9568520.37544  23546973.6174                   23546971.7814
   1201202.92247    942181.98946  21197774.0234                   21197772.9534
 11  7 29 15  8 30.0000000  0  8G06G03G16G20G13G23G31G32
    315672.64546    248555.48444  23370261.9534                   23370262.5434
    736203.60246    581652.51144  23378884.5314                   23378885.2074
 -12040582.09848  -9366692.13246  20169629.3284                   20169626.4184
  -5547780.44548  -4311431.34746  20936583.6564                   20936581.2074
   1453264.16047   1135660.53744  23496999.8444                   23496999.5314
 -13545466.95748 -10544046.14046  21459446.2504                   21459442.0944
  12318764.17647   9595001.36845  23553440.4144                   23553438.8914
   1216690.91047    954250.51846  21200721.6884                   21200719.9694
 11  7 29 15  9  0.0000000  0  8G06G03G16G20G13G23G31G32
    208982.66847    165420.46644  23349960.2504                   23349959.5744
    608793.93446    482372.34744  23354639.9384                   23354639.7464
 -12094594.44547  -9408779.66946  20159351.1884                   20159348.6414
  -5563715.65247  -4323848.42146  20933551.0164                   20933548.6604
   1330718.85546   1040170.75043  23473680.1414                   23473679.8794
 -13651529.27748 -10626692.08846  21439262.7894                   21439258.8674
  12352708.47747   9621451.40245  23559900.1644                   23559898.4534
   1232627.28148    966668.42446  21203753.8524                   21203752.9384
 11  7 29 15  9 30.0000000  0  8G06G03G16G20G13G23G31G32
    102436.67646     82397.68044  23329685.3594                   23329684.4414
    481409.91846    383112.08444  23330398.8834                   23330399.2234
 -12147996.93048  -9450392.00846  20149189.1094                   20149186.2154
  -5579093.33247  -4335831.05046  20930624.7974                   20930622.8834
   1208147.77746    944660.87243  23450355.8594                   23450354.8244
 -13757452.77748 -10709229.86946  21419106.6254                   21419102.1454
  12386606.98447   9647865.79245  23566350.9534                   23566349.4384
   1249004.73048    979430.02746  21206870.7894                   21206869.6724
 11  7 29 15 10  0.0000000  0  8G06G03G16G20G13G23G31G32
     -3963.43746      -511.51044  23309437.9224                   23309437.3594
    354053.70746    283873.55344  23306164.1094                   23306163.6914
 -12200790.61348  -9491529.95247  20139142.8594                   20139139.7704
  -5593915.66847  -4347380.95346  20927803.9774                   20927802.2304
   1085551.35546    849131.21443  23427026.3364                   23427025.8984
 -13863236.57447 -10791658.79946  21398976.4844                   21398972.4224
  12420458.23447   9674243.35144  23572792.5394                   23572790.9344
   1265820.48448    992533.17946  21210070.6414                   21210069.1484
 11  7 29 15 10 30.0000000  0  8G06G03G16G20G13G23G31G32
   -110209.68046    -83300.72644  23289219.8914                   23289219.7734
    226732.72746    184662.45444  23281935.2734                   23281936.0084
 -12252969.97347  -9532189.20047  20129213.5554                   20129210.7234
  -5608178.85947  -4358495.14246  20925090.3134                   20925088.0824
    962935.50846    753586.52744  23403693.7504                   23403692.6134
 -13968873.82447 -10873973.53346  21378874.1644                   21378870.3524
  12454261.83247   9700583.69644  23579225.4144                   23579224.4144
   1283077.90248   1005980.47246  21213354.3914                   21213353.3014
 11  7 29 15 11  0.0000000  0  8G06G03G16G20G13G23G31G32
   -216299.85247   -165968.35744  23269031.5864                   23269031.7464
     99449.98446     85481.12944  23257714.7114                   23257714.4884
 -12304535.81648  -9572370.37046  20119400.9454                   20119397.7774
  -5621884.51647  -4369174.91746  20922482.1484                   20922480.0474
    840300.44147    658026.79544  23380356.8674                   23380356.1454
 -14074362.85948 -10956172.76246  21358800.4224                   21358796.5004
  12488026.79747   9726894.00744  23585650.7504                   23585649.4694
   1300774.62148   1019770.08046  21216722.1884                   21216721.1334
 11  7 29 15 11 30.0000000  0  8G06G03G16G20G13G23G31G32
   -322238.89147   -248518.23144  23248871.8134                   23248871.3094
    -27800.01246    -13674.63444  23233500.2274                   23233499.3054
 -12355496.31248  -9612079.84747  20109703.3674                   20109700.5394
  -5635042.11347  -4379427.61146  20919978.5164                   20919976.0474
    717639.95747    562447.25643  23357015.3054                   23357014.8524
 -14179710.05148 -11038261.47446  21338753.5314                   21338749.3674
  12521739.40647   9753163.52844  23592066.7584                   23592064.4224
   1318900.71948   1033894.26346  21220171.6334                   21220170.5044
 11  7 29 15 12  0.0000000  0  8G06G03G16G20G13G23G31G32
   -428009.81247   -330937.13744  23228744.4924                   23228744.0744
   -155000.11346   -112791.56644  23209294.0704                   23209294.0864
 -12405837.41848  -9651306.67846  20100123.6094                   20100120.9304
  -5647638.69548  -4389243.15646  20917581.2894                   20917578.8484
    594968.92647    466859.51444  23333671.1484                   23333670.7894
 -14284899.51648 -11120227.27846  21318736.4454                   21318732.5904
  12555413.28547   9779402.85044  23598474.7424                   23598472.3794
   1337468.33247   1048362.50246  21223704.9384                   21223703.5204
 11  7 29 15 12 30.0000000  0  8G06G03G16G20G13G23G31G32
   -533615.61747   -413227.33044  23208647.7584                   23208647.6294
   -282152.96146   -211871.62944  23185097.4844                   23185098.1604
 -12455564.58648  -9690055.13147  20090661.0554                   20090657.9184
  -5659681.17247  -4398626.94346  20915289.8524                   20915287.3984
    472282.69547    371259.92444  23310324.3364                   23310324.1374
 -14389934.93048 -11202073.04946  21298748.9534                   21298744.9304
  12589042.44147   9805607.31844  23604874.2424                   23604871.8404
   1356469.98447   1063168.93746  21227320.7894                   21227319.4924
 11  7 29 15 13  0.0000000  0  8G06G03G16G20G13G23G31G32
   -639053.34047   -495386.58344  23188583.5704                   23188584.2504
   -409255.54346   -310912.58044  23160911.0944                   23160911.0634
 -12504678.44148  -9728325.65647  20081314.8984                   20081311.9494
  -5671170.89147  -4407580.01346  20913103.3284                   20913101.1724
    349582.28947    275649.30544  23286976.1334                   23286974.8984
 -14494814.52048 -11283797.40046  21278790.8284                   21278787.0004
  12622626.19147   9831776.39544  23611265.2504                   23611263.6524
   1375903.77047   1078312.09546  21231019.2664                   21231017.5474
 11  7 29 15 13 30.0000000  0  8G06G03G16G20G13G23G31G32
    831103.61747    650190.29544  23468345.3834                   23468345.2664
   1039119.19146    817691.18444  23436527.2974                   23436527.3404
 -10977757.14548  -8538516.85146  20371878.3204                   20371875.5274
  -4106688.68747  -3188503.00746  21210814.6174                   21210811.7854
   1802293.26247   1407631.94844  23563417.3594                   23563417.1374
 -13024112.75448 -10137796.01046  21558656.3204                   21558652.5664
  14231582.86747  11085508.81244  23917438.8054                   23917438.0044
   2971187.30947   2321390.13646  21534591.4304                   21534589.8874
 11  7 29 15 14  0.0000000  0  8G06G03G16G20G13G23G31G32
    726012.01647    568300.75144  23448346.8674                   23448346.8794
    912127.12147    718736.37744  23412362.0314                   23412361.2384
 -11025643.17648  -8575830.64047  20362765.9064                   20362762.9264
  -4117075.77747  -3196596.87746  21208837.9694                   21208835.4024
   1679569.20347   1312002.88344  23540064.0554                   23540063.5904
 -13128673.87548 -10219272.20246  21538758.6724                   21538755.0434
  14265075.39147  11111606.86244  23923811.9064                   23923811.4574
   2991480.75847   2337203.18046  21538452.9454                   21538451.9184
 11  7 29 15 14 30.0000000  0  8G06G03G16G20G13G23G31G32
    621098.52347    486550.02244  23428382.2034                   23428382.3444
    785195.66847    619828.78544  23388207.4454                   23388207.5434
 -11072914.83248  -8612665.69646  20353770.4144                   20353767.4884
  -4126913.00847  -3204262.28046  21206966.1804                   21206963.6054
   1556835.99246   1216366.68444  23516708.2894                   23516707.8754
 -13233071.85548 -10300621.27046  21518892.5394                   21518888.4964
  14298522.83647  11137669.74944  23930177.8754                   23930176.7504
   3012202.09848   2353349.64146  21542396.2194                   21542395.0204
 11  7 29 15 15  0.0000000  0  8G06G03G16G20G13G23G31G32
    516367.68446    404941.59144  23408453.1644                   23408453.3404
    658329.75447    520972.30144  23364065.9144                   23364065.9734
 -11119570.39148  -8649020.68146  20344892.1174                   20344889.3794
  -4136199.70348  -3211498.70046  21205199.0164                   21205196.5394
   1434096.36747   1120725.47044  23493352.0704                   23493350.8714
 -13337303.43048 -10381840.65646  21499057.6804                   21499054.1994
  14331926.05147  11163698.18444  23936533.5084                   23936533.1604
   3033350.68448   2369829.01046  21546420.8834                   21546419.3324
 11  7 29 15 15 30.0000000  0  8G06G03G16G20G13G23G31G32
    411821.93446    323477.42244  23388558.5554                   23388558.2464
    531531.79747    422168.74444  23339936.8444                   23339936.6334
 -11165610.71148  -8684896.25546  20336131.1334                   20336128.3444
  -4144937.92648  -3218307.73646  21203536.3364                   21203533.4264
   1311351.40247   1025080.07244  23469994.0164                   23469993.0944
 -13441366.92648 -10462929.09146  21479255.3054                   21479251.3594
  14365284.55547  11189691.74744  23942882.1414                   23942880.7854
   3054924.49247   2386639.73646  21550526.0784                   21550524.8094
 11  7 29 15 16  0.0000000  0  8G06G03G16G20G13G23G31G32
    307467.24646    242162.13944  23368700.9844                   23368700.0084
    404807.49646    323422.59244  23315821.8984                   23315821.7664
 -11211033.53148  -8720290.66646  20327487.0314                   20327484.4654
  -4153126.20748  -3224688.25346  21201977.9924                   21201975.8914
   1188604.72347    929433.39644  23446636.2344                   23446635.0904
 -13545257.64847 -10543882.88146  21459485.4224                   21459481.6254
  14398600.36347  11215652.02944  23949222.2034                   23949220.3754
   3076924.21148   2403782.33046  21554712.8204                   21554711.2074
 11  7 29 15 16 30.0000000  0  8G06G03G16G20G13G23G31G32
    203305.85246    160997.44144  23348879.2734                   23348879.4654
    278159.31346    224735.71444  23291721.5784                   23291721.3164
 -11255839.02747  -8755204.04346  20318960.8984                   20318958.5984
  -4160766.14847  -3230641.47046  21200524.2424                   21200521.6764
   1065857.51647    833786.21043  23423278.6024                   23423277.4384
 -13648973.93447 -10624700.74346  21439749.0554                   21439745.3794
  14431872.97747  11241578.70744  23955553.0234                   23955551.4494
   3099347.58247   2421255.04146  21558979.6954                   21558978.4144
 11  7 29 15 17  0.0000000  0  8G06G03G16G20G13G23G31G32
     99343.75446     79988.04944  23329096.0944                   23329095.5784
    151593.14547    126112.79244  23267637.0634                   23267636.6644
 -11300025.29747  -8789634.90946  20310552.7584                   20310550.0274
  -4167856.89847  -3236166.76046  21199174.6644                   21199172.8054
    943113.40246    738141.49743  23399920.4064                   23399919.0744
 -13752511.42648 -10705379.30346  21420046.4454                   21420042.6174
  14465104.43447  11267473.28144  23961877.1644                   23961876.4144
   3122195.12947   2439058.27046  21563327.3204                   21563326.5044
 11  7 29 15 17 30.0000000  0  8G06G03G16G20G13G23G31G32
     -4417.24646      -864.62944  23309351.0234                   23309351.1644
     25111.53146     27555.72644  23243568.3444                   23243567.8954
 -11343593.35548  -8823584.05046  20302261.8524                   20302259.3054
  -4174400.85248  -3241265.95846  21197929.7504                   21197927.3984
    820372.93846    642499.64844  23376563.4924                   23376563.1024
 -13855868.44548 -10785917.22646  21400378.3054                   21400374.6564
  14498293.66847  11293334.96444  23968192.7894                   23968191.6024
   3145464.17247   2457189.95846  21567755.3284                   21567754.2504
 11  7 29 15 18  0.0000000  0  8G06G03G16G20G13G23G31G32
   -107978.54346    -81561.69044  23289643.7114                   23289643.3244
   -101286.94947    -70936.54944  23219515.1564                   23219515.2774
 -11386547.52748  -8857054.83646  20294088.2814                   20294085.2704
  -4180403.33247  -3245943.23946  21196787.5234                   21196785.1724
    697633.07846    546858.21444  23353207.6414                   23353206.3714
 -13959047.55148 -10866316.51546  21380743.7974                   21380739.8054
  14531436.01647  11319160.09445  23974500.0084                   23974499.6484
   3169148.33247   2475645.11346  21572262.3444                   21572261.2114
 11  7 29 15 18 30.0000000  0  8G06G03G16G20G13G23G31G32
   -211334.64546   -162098.87244  23269975.9614                   23269975.3134
   -227596.40246   -169359.42744  23195478.8594                   23195479.1054
 -11428885.77747  -8890045.68646  20286031.3284                   20286028.7504
  -4185863.48447  -3250197.91146  21195748.2344                   21195746.0634
    574898.07846    451220.67444  23329851.7504                   23329850.6724
 -14062044.12948 -10946573.57946  21361144.2734                   21361140.1484
  14564533.86747  11344950.57145  23980798.1884                   23980796.9384
   3193248.30947   2494424.26946  21576848.0314                   21576847.1644
 11  7 29 15 19  0.0000000  0  8G06G03G16G20G13G23G31G32
   -314481.34447   -242472.85744  23250347.5474                   23250346.7894
   -353812.42646   -267709.55544  23171461.2504                   23171460.9064
 -11470607.48447  -8922556.11147  20278091.9384                   20278089.2504
  -4190781.72747  -3254030.33346  21194812.5004                   21194810.0124
    452169.77046    355588.24544  23306496.5864                   23306496.2974
 -14164855.14148 -11026686.04646  21341579.9144                   21341575.8714
  14597587.98047  11370706.97145  23987088.6484                   23987087.8524
   3217763.10947   2513526.67146  21581513.5234                   21581511.9614
 11  7 29 15 19 30.0000000  0  8G06G03G16G20G13G23G31G32
   -417422.92247   -322687.02844  23230758.6094                   23230758.0434
   -479939.43446   -365990.24244  23147459.8674                   23147459.5984
 -11511720.14147  -8954591.95546  20270268.7344                   20270265.7384
  -4195166.85947  -3257447.34046  21193978.2344                   21193975.3984
    329442.80146    259956.88744  23283143.1414                   23283142.3014
 -14267485.68047 -11106657.89246  21322050.0084                   21322046.0434
  14630590.79347  11396423.39244  23993368.3054                   23993367.0594
   3242683.55547   2532945.14646  21586255.7814                   21586254.8284
 11  7 29 15 20  0.0000000  0  8G06G03G16G20G13G23G31G32
   -520153.10246   -402736.48044  23211209.3594                   23211208.8524
   -605970.96547   -464196.60144  23123477.5084                   23123476.8794
 -11552220.74647  -8986150.86546  20262561.5234                   20262558.6134
  -4199017.04347  -3260447.51846  21193245.0394                   21193243.3594
    206721.78946    164330.15444  23259789.6644                   23259789.0084
 -14369930.12148 -11186484.72046  21302555.6334                   21302551.7114
                                  23999639.9384                   23999638.4924
   3268011.05147   2552680.81846  21591075.7504                   21591073.9964
 11  7 29 15 20 30.0000000  0  8G06G03G16G20G13G23G31G32
   -622666.59846   -482617.11444  23191702.1254                   23191700.7544
   -731901.31646   -562324.10244  23099512.9774                   23099512.9224
 -11592107.82848  -9017231.71246  20254971.2734                   20254968.1724
  -4202331.57048  -3263030.30246  21192614.3134                   21192612.0314
     84010.35547     68710.90144  23236438.9844                   23236438.4774
 -14472184.11748 -11266163.15446  21283097.4534                   21283093.3714
  14696453.98847  11447745.24144  24005902.2274                   24005900.9884
   3293745.86747   2572733.86946  21595972.7814                   21595971.5554
 11  7 29 15 21  0.0000000  0  8G06G03G16G20G13G23G31G32
   -724959.86747   -562326.11444  23172236.0234                   23172235.1174
   -857727.02047   -660370.03044  23075569.5394                   23075569.2664
 -11631380.94948  -9047834.14746  20247497.6484                   20247494.6604
  -4205111.27347  -3265196.33746  21192085.3284                   21192083.3984
    -38689.66046    -26899.41344  23213089.6884                   23213088.7234
 -14574245.24648 -11345691.30746  21263676.1094                   21263672.0704
  14729316.65247  11473352.47145  24012155.3674                   24012154.5274
   3319886.25047   2593102.95446  21600946.8364                   21600946.1564
 11  7 29 15 21 30.0000000  0  8G06G03G16G20G13G23G31G32
   -827022.90647   -641855.71544  23152813.8984                   23152813.0274
   -983437.54747   -758326.25744  23051647.0394                   23051647.0164
 -11670033.16048  -9077952.76446  20240143.0084                   20240139.7424
  -4207350.45747  -3266941.19246  21191659.3284                   21191657.3404
   -161369.44547   -122494.02344  23189744.2194                   23189744.0744
 -14676104.03148 -11425061.77946  21244292.6254                   21244288.7194
  14762140.47357  11498929.42555  24018401.4454                   24018401.3754
   3346437.69947   2613792.34146  21605999.6484                   21605998.5314
 11  7 29 15 22  0.0000000  0  8G06G03G16G20G13G23G31G32
   -928856.28147   -721206.38244  23133435.8524                   23133435.8874
  -1109033.63347   -856193.26444  23027747.0314                   23027747.1914
 -11708069.17247  -9107591.22147  20232904.6414                   20232901.6844
  -4209054.57847  -3268269.10246  21191335.4534                   21191332.7114
   -284031.23447   -218074.58944  23166402.8134                   23166401.7034
 -14777762.07048 -11504275.83646  21224947.6954                   21224943.7504
  14794933.74247  11524482.19544  24024639.9384                   24024639.6334
   3373394.31348   2634797.45746  21611129.3834                   21611128.3444
 11  7 29 15 22 30.0000000  0  8G06G03G16G20G13G23G31G32
  -1030458.12147   -800376.56044  23114101.4774                   23114100.8554
  -1234512.93747   -953969.30844  23003868.8914                   23003869.1134
 -11745490.37547  -9136750.59846  20225783.9534                   20225781.0634
  -4210226.39847  -3269182.24546  21191112.2504                   21191110.5204
   -406674.82447   -313640.95144  23143064.2664                   23143063.6684
 -14879218.30948 -11583332.63346  21205641.1644                   21205637.1954
  14827670.87147  11549991.61844  24030869.1564                   24030868.7274
   3400753.01247   2656115.85546  21616335.7274                   21616334.4414
 11  7 29 15 23  0.0000000  0  8G06G03G16G20G13G23G31G32
  -1131824.94147   -879363.67844  23094812.0394                   23094811.5314
  -1359871.76246  -1051651.43744  22980013.7664                   22980013.7704
 -11782297.10947  -9165431.17346  20218779.5634                   20218776.9734
  -4210866.97348  -3269681.42046  21190990.3754                   21190988.5274
   -529298.19947   -409191.60744  23119729.8204                   23119728.9774
 -14980470.22748 -11662230.21746  21186374.0554                   21186370.1254
  14860364.10957  11575466.80555  24037091.2894                   24037090.1374
   3428512.02747   2677746.21146  21621618.1484                   21621616.7774
 11  7 29 15 23 30.0000000  0  8G06G03G16G20G13G23G31G32
  -1232949.15247   -958161.69344  23075568.5314                   23075568.2854
  -1485102.37546  -1149233.71644  22956183.5944                   22956183.4454
 -11818485.02347  -9193629.55547  20211893.2344                   20211890.2234
  -4210973.53947  -3269764.49846  21190969.8594                   21190967.5824
   -651895.25846   -504721.76444  23096400.2194                   23096399.5744
 -15081510.90248 -11740963.20746  21167146.5634                   21167142.3674
  14893018.14147  11600911.43344  24043305.1484                   24043303.4614
   3456674.02347   2699690.58945  21626976.9774                   21626975.9384
 11  7 29 15 24  0.0000000  0  8G06G03G16G20G13G23G31G32
  -1333829.53547  -1036769.77944  23056371.0394                   23056371.1054
  -1610203.26647  -1246714.86544  22932377.5944                   22932377.4734
 -11854056.42647  -9221347.54846  20205124.2814                   20205121.3634
  -4210549.41847  -3269434.04846  21191050.7194                   21191048.8444
   -774466.00047   -600231.34844  23073075.5394                   23073074.9184
 -15182339.93448 -11819531.26246  21147959.0004                   21147955.1214
  14925630.89547  11626323.90644  24049510.7894                   24049509.7504
   3485235.35547   2721946.13046  21632412.1094                   21632411.1254
 11  7 29 15 24 30.0000000  0  8G06G03G16G20G13G23G31G32
  -1434465.70347  -1115187.53944  23037221.2034                   23037221.7934
  -1735173.37147  -1344094.09944  22908596.4454                   22908596.1334
 -11889014.25847  -9248587.41447  20198471.9694                   20198469.3714
  -4209598.49247  -3268693.10646  21191231.8984                   21191229.8204
   -897011.79746   -695721.52244  23049755.6954                   23049754.8094
 -15282957.61748 -11897934.63446  21128812.2034                   21128808.1644
  14958200.23447  11651702.55744  24055708.8054                   24055707.6134
   3514191.25847   2744509.10946  21637922.2894                   21637921.5434
 11  7 29 15 25  0.0000000  0  8G06G03G16G20G13G23G31G32
  -1534850.96147  -1193409.75744  23018118.3134                   23018118.1804
  -1860006.07047  -1441366.29044  22884842.0084                   22884841.2154
 -11923355.88347  -9275347.13847  20191936.8054                   20191934.2114
  -4208119.07848  -3267540.35446  21191513.2274                   21191511.1414
  -1019527.13746   -791187.96444  23026441.8524                   23026440.9384
 -15383358.23448 -11976168.86146  21109706.7274                   21109702.6684
  14990729.09046  11677049.66244  24061897.9774                   24061897.6684
   3543543.25448   2767380.75346  21643507.9454                   21643506.9024
 11  7 29 15 25 30.0000000  0  8G06G03G16G20G13G23G31G32
  -1634985.04347  -1271436.29844  22999063.5164                   22999063.0744
  -1984700.57047  -1538530.80844  22861113.2584                   22861112.3444
 -11957084.35947  -9301629.06747  20185518.5704                   20185516.0634
  -4206115.46148  -3265979.13246  21191894.7504                   21191892.5594
  -1142012.98046   -886631.45044  23003133.3444                   23003132.4844
 -15483542.19148 -12054234.27346  21090642.5394                   21090638.1954
  15023214.76246  11702363.14244  24068079.8984                   24068079.4224
   3573286.80548   2790557.48845  21649167.7194                   21649166.7704
 11  7 29 15 26  0.0000000  0  8G06G03G16G20G13G23G31G32
  -1734861.10247  -1349261.77744  22980057.5944                   22980057.1024
  -2109249.80147  -1635582.08844  22837412.0634                   22837411.3364
 -11990196.94947  -9327431.09947  20179217.4694                   20179214.9104
  -4203585.64148  -3264007.87946  21192375.9844                   21192373.8164
  -1264464.50446   -982048.16544  22979831.7814                   22979830.6914
 -15583503.49248 -12132126.17046  21071620.1174                   21071616.2624
  15055660.86346  11727645.75144  24074254.4774                   24074254.3794
   3603423.13348   2814040.27546  21654902.6644                   21654901.8164
 11  7 29 15 26 30.0000000  0  8G06G03G16G20G13G23G31G32
  -1834484.28147  -1426890.17844  22961100.0004                   22961099.4534
  -2233658.48847  -1732523.86344  22813738.0084                   22813737.6484
 -12022702.07447  -9352759.76647  20173032.1954                   20173029.3404
  -4200539.23848  -3261634.10646  21192955.6884                   21192953.6684
  -1386887.90647  -1077442.97144  22956535.2114                   22956534.5474
 -15683247.69548 -12209848.90446  21052639.5314                   21052635.4184
  15088059.71547  11752891.52144  24080420.4924                   24080419.2704
   3633942.59048   2837821.63746  21660710.6174                   21660709.2814
 11  7 29 15 27  0.0000000  0  8G06G03G16G20G13G23G31G32
  -1933851.43747  -1504319.07744  22942191.0394                   22942191.2894
  -2357923.99247  -1829354.08544  22790090.8284                   22790090.1054
 -12054600.71548  -9377615.86047  20166961.8204                   20166959.1414
  -4196978.64548  -3258859.66146  21193633.3914                   21193631.2074
  -1509282.12847  -1172815.01844  22933244.8524                   22933244.0474
 -15782773.31648 -12287401.33846  21033700.3284                   21033696.1054
  15120410.49247  11778099.85444  24086576.6254                   24086575.5084
   3664842.43048   2861899.37345  21666590.2504                   21666589.1844
 11  7 29 15 27 30.0000000  0  8G06G03G16G20G13G23G31G32
  -2032955.23847  -1581542.83644  22923332.3914                   22923332.5124
  -2482037.75847  -1926066.06144  22766472.8754                   22766472.2154
 -12085889.12148  -9401996.44147  20161008.1564                   20161005.0234
  -4192900.66848  -3255682.05146  21194409.3984                   21194407.2934
  -1631640.44947  -1268159.15044  22909960.5704                   22909959.2854
 -15882073.33648 -12364777.96746  21014804.2194                   21014800.2344
  15152717.82446  11803274.36844  24092723.8834                   24092722.5944
   3696125.16048   2886275.48645  21672543.2274                   21672542.2384
 11  7 29 15 28  0.0000000  0  8G06G03G16G20G13G23G31G32
  -2131793.99647  -1658559.98444  22904524.2504                   22904523.7194
  -2605997.94147  -2022658.36044  22742883.8594                   22742883.3134
 -12116568.98448  -9425902.82946  20155169.7424                   20155166.8794
  -4188308.16048  -3252103.52146  21195283.2814                   21195281.0664
  -1753962.34047  -1363474.85344  22886683.6954                   22886681.9774
 -15981146.02048 -12441977.45846  20995950.8444                   20995947.2034
  15184981.04346  11828414.48044  24098863.8754                   24098862.5904
   3727788.02348   2910947.79445  21678568.8364                   21678567.5164
 11  7 29 15 28 30.0000000  0  8G06G03G16G20G13G23G31G32
  -2230365.23447  -1735368.70944  22885766.3204                   22885766.0164
  -2729802.10947  -2119129.10144  22719324.5394                   22719324.3204
 -12146641.67648  -9449336.09846  20149447.2424                   20149444.3594
  -4183203.89548  -3248126.19946  21196254.9454                   21196252.6914
  -1876247.09847  -1458761.64244  22863413.5394                   22863412.3524
 -16079990.54348 -12518999.15646  20977142.1484                   20977137.9104
  15217198.93446  11853519.19544  24104994.6334                   24104993.3204
   3759827.61348   2935913.66145  21684665.7814                   21684664.5824
 11  7 29 15 29  0.0000000  0  8G06G03G16G20G13G23G31G32
  -2328672.44547  -1811971.70444  22867058.6804                   22867059.1214
  -2853453.25846  -2215480.59944  22695794.6804                   22695793.9574
 -12176114.80547  -9472302.18146  20143838.5944                   20143835.6254
  -4177596.05948  -3243756.49446  21197322.1334                   21197319.8244
  -1998499.30147  -1554023.03944  22840149.2504                   22840148.9844
 -16178610.57848 -12595845.92146  20958375.0864                   20958370.7734
  15249365.04746  11878583.75044  24111115.5944                   24111115.0274
   3792235.63748   2961166.60845  21690832.7114                   21690831.8954
 11  7 29 15 29 30.0000000  0  8G06G03G16G20G13G23G31G32
  -2426705.72347  -1888361.21444  22848404.1094                   22848403.5234
  -2976941.08246  -2311704.85244  22672295.0784                   22672294.9224
 -12204982.39848  -9494796.41946  20138345.3364                   20138342.1414
  -4171479.78948  -3238990.61546  21198485.6804                   21198483.7034
  -2120710.41046  -1649252.43244  22816893.4064                   22816892.7384
 -16276997.35948 -12672510.95046  20939652.5864                   20939648.5044
  15281486.41046  11903613.31344  24117228.4064                   24117227.6844
   3825016.58648   2986710.15445  21697070.7114                   21697069.9414
 11  7 29 15 30  0.0000000  0  8G06G03G16G20G13G23G31G32
  -2524461.03547  -1964534.18044  22829802.2894                   22829801.8954
  -3100261.28147  -2407798.48545  22648828.4064                   22648828.1334
 -12233244.10947  -9516818.53546  20132967.0234                   20132964.4384
  -4164855.46548  -3233828.84646  21199746.6724                   21199744.2584
  -2242877.87947  -1744447.77244  22793645.4064                   22793644.6294
 -16375147.38748 -12748991.47846  20920975.3984                   20920971.1844
  15313564.16446  11928608.95544  24123332.4454                   24123331.6954
   3858169.42647   3012543.48345  21703379.3204                   21703378.6454
 11  7 29 15 30 30.0000000  0  8G06G03G16G20G13G23G31G32
  -2621934.57047  -2040487.55844  22811253.0784                   22811252.4144
  -3223409.76246  -2503758.31544  22625393.7424                   22625393.8754
 -12260900.07447  -9538368.64846  20127704.5394                   20127701.3554
  -4157724.43748  -3228272.24446  21201103.3134                   21201101.5394
  -2364999.21146  -1839607.22444  22770406.5084                   22770405.9494
 -16473057.48848 -12825285.05146  20902343.5474                   20902339.4494
  15345598.80547  11953570.97444  24129429.0004                   24129427.2304
   3891692.73447   3038665.47845  21709758.8594                   21709758.0044
 11  7 29 15 31  0.0000000  0  8G06G03G16G20G13G23G31G32
  -2719128.34447  -2116222.94244  22792757.4304                   22792757.2974
  -3346387.89847  -2599585.38045  22601992.3054                   22601991.5084
 -12287955.57848  -9559450.86446  20122555.8204                   20122553.3404
  -4150093.38348  -3222325.99346  21202555.6724                   21202553.7464
  -2487077.35546  -1934732.99744  22747175.8754                   22747174.7114
 -16570730.13748 -12901393.59346  20883757.0784                   20883753.1604
  15377585.62546  11978495.69544  24135515.7274                   24135514.6884
   3925579.80948   3065070.94845  21716207.4064                   21716206.5864
 11  7 29 15 31 30.0000000  0  8G06G03G16G20G13G23G31G32
  -2816037.04747  -2191736.18744  22774316.7664                   22774315.8324
  -3469190.30547  -2695275.55845  22578623.4454                   22578622.9384
 -12314409.74648  -9580064.51847  20117522.0164                   20117519.2424
  -4141962.13348  -3215990.00846  21204103.2114                   21204101.1024
  -2609108.50047  -2029822.17444  22723954.4304                   22723953.3014
 -16668161.10248 -12977313.80146  20865216.7894                   20865212.5904
  15409526.81346  12003384.93344  24141594.1724                   24141592.5274
   3959830.13747   3091759.45345  21722725.2114                   21722724.1804
 11  7 29 15 32  0.0000000  0  8G06G03G16G20G13G23G31G32
  -2912658.00046  -2267025.23145  22755930.7974                   22755929.5234
  -3591813.42247  -2790826.00445  22555289.0474                   22555289.0944
 -12340263.73048  -9600210.48746  20112602.0944                   20112599.3164
  -4133332.60948  -3209265.73746  21205745.4844                   21205743.3594
  -2731091.07847  -2124873.47544  22700741.9774                   22700740.6294
 -16765348.24648 -13053044.03446  20846722.6414                   20846718.8794
  15441422.37146  12028238.53944  24147662.6414                   24147661.3324
   3994441.50447   3118729.29745  21729311.4144                   21729310.7624
 11  7 29 15 32 30.0000000  0  8G06G03G16G20G13G23G31G32
  -3008986.34846  -2342086.25744  22737600.1644                   22737599.3914
  -3714252.65646  -2886233.16645  22531989.5084                   22531989.1564
 -12365516.31247  -9619887.83946  20107796.7504                   20107793.8324
  -4124204.91847  -3202153.29946  21207482.2034                   21207480.0274
  -2853021.35247  -2219884.02944  22677539.0474                   22677538.0904
 -16862287.19947 -13128580.86346  20828275.5164                   20828271.6994
  15473273.98047  12053057.90944  24153724.7424                   24153723.6054
   4029413.58647   3145980.20445  21735966.5314                   21735965.4614
 11  7 29 15 33  0.0000000  0  8G06G03G16G20G13G23G31G32
  -3105022.59047  -2416919.68044  22719324.3834                   22719323.8714
  -3836507.69947  -2981496.80745  22508725.1884                   22508724.9344
 -12390172.58648  -9639100.52146  20103104.8834                   20103101.6684
  -4114584.63348  -3194657.00746  21209312.9774                   21209310.9024
  -2974901.19547  -2314855.27044  22654346.1094                   22654345.4144
 -16958979.17648 -13203925.24946  20809875.6484                   20809871.3634
  15505078.24247  12077840.43444  24159776.1484                   24159776.4774
   4064740.64548   3173507.74246  21742688.9534                   21742688.3204
 11  7 29 15 33 30.0000000  0  8G06G03G16G20G13G23G31G32
  -3200764.17647  -2491523.49244  22701105.1954                   22701104.9454
  -3958575.50847  -3076614.53545  22485496.0944                   22485496.1524
 -12414233.03548  -9657848.93546  20098525.9534                   20098523.3324
  -4104474.16448  -3186778.75546  21211236.9224                   21211234.6884
  -3096729.39847  -2409786.27344  22631162.9224                   22631161.3874
 -17055422.13348 -13279075.59646  20791523.2274                   20791519.1604
  15536834.90647  12102585.84544  24165820.0314                   24165819.1484
   4100420.22348   3201309.96145  21749479.1024                   21749477.7194
 11  7 29 15 34  0.0000000  0  8G06G03G16G20G13G23G31G32
  -3296210.12147  -2565896.92044  22682942.0394                   22682941.5554
  -4080454.73447  -3171585.34645  22462303.4614                   22462303.0354
 -12437701.59048  -9676136.13146  20094060.3984                   20094057.3914
  -4093877.59448  -3178521.73446  21213253.4534                   21213251.4964
  -3218506.00047  -2504677.11844  22607989.6954                   22607988.0204
 -17151615.88348 -13354031.74246  20773218.2194                   20773213.9184
  15568541.87946  12127292.53944  24171853.5474                   24171853.3524
   4136447.85547   3229383.39945  21756334.5314                   21756333.5944
 11  7 29 15 34 30.0000000  0  8G06G03G16G20G13G23G31G32
  -3391356.14547  -2640036.65544  22664836.7274                   22664836.6254
  -4202141.05547  -3266405.82145  22439147.5784                   22439146.9024
 -12460577.82048  -9693961.76347  20089707.2734                   20089704.3484
  -4082795.30948  -3169886.22546  21215362.4924                   21215360.2304
  -3340227.59847  -2599525.07144  22584826.7424                   22584825.1294
 -17247556.89548 -13428790.96246  20754961.3674                   20754957.1214
  15600200.86346  12151961.81744  24177877.8364                   24177877.9064
   4172822.88347   3257727.52245  21763256.3834                   21763255.7704
 11  7 29 15 35  0.0000000  0  8G06G03G16G20G13G23G31G32
  -3486202.59047  -2713942.95344  22646788.3054                   22646787.2664
  -4323634.08647  -3361075.70145  22416028.0004                   22416027.8364
 -12482865.63748  -9711328.89547  20085466.1954                   20085463.0554
  -4071232.71548  -3160876.44146  21217562.5784                   21217560.9064
  -3461895.92247  -2694331.49944  22561674.0234                   22561672.5634
 -17343245.59848 -13503353.56946  20736752.4694                   20736748.0594
  15631809.69146  12176592.24344  24183893.2344                   24183891.6844
   4209539.48047   3286337.81545  21770243.4844                   21770242.4964
 11  7 29 15 35 30.0000000  0  8G06G03G16G20G13G23G31G32
  -2005330.57047  -1560016.69645  22928588.9924                   22928587.8634
  -2869513.39847  -2227994.60445  22692738.2034                   22692737.5274
 -10929152.94947  -8500643.67347  20381127.4774                   20381124.6484
  -2483779.26648  -1923899.76946  21519644.9224                   21519643.0514
  -2008092.37547  -1561497.55744  22838323.3594                   22838322.3524
 -15863263.91448 -12350121.07046  21018383.4774                   21018379.2074
  17238778.01647  13428775.30644  24489689.1414                   24489688.0204
   5822007.09047   4542806.02045  22077086.1564                   22077085.0664
 11  7 29 15 36  0.0000000  0  8G06G03G16G20G13G23G31G32
  -2099581.79746  -1633459.19344  22910653.2034                   22910652.4924
  -2990622.58247  -2322365.37345  22669691.7664                   22669690.9924
 -10950280.52048  -8517106.73247  20377107.2584                   20377104.3594
  -2471274.58648  -1914155.90446  21522024.6094                   21522022.8834
  -2129661.15247  -1656226.38744  22815189.6094                   22815188.1884
 -15958454.14548 -12424295.27146  21000269.3984                   21000265.3134
  17270270.78947  13453315.06544  24495681.6174                   24495680.8524
   5859387.52048   4571933.58945  22084199.2814                   22084198.3364
 11  7 29 15 36 30.0000000  0  8G06G03G16G20G13G23G31G32
  -2193525.00446  -1706661.66844  22892776.1484                   22892775.8984
  -3111528.57047  -2416577.80345  22646683.9384                   22646683.4654
 -10970823.54348  -8533114.28046  20373197.9614                   20373195.1374
  -2458296.11348  -1904042.84646  21524494.1174                   21524492.3524
  -2251171.27347  -1750909.58644  22792066.9844                   22792066.0124
 -16053385.60248 -12498267.82446  20982204.3134                   20982200.0044
  17301712.35546  13477814.94244  24501664.7114                   24501663.5634
   5897102.59847   4601321.91645  22091375.9924                   22091375.5474
 11  7 29 15 37  0.0000000  0  8G06G03G16G20G13G23G31G32
  -2287166.18747  -1779628.79044  22874956.6954                   22874956.4494
  -3232237.30547  -2510636.51745  22623713.8364                   22623713.6844
 -10990792.27348  -8548674.34746  20369397.8284                   20369395.3754
  -2444854.84048  -1893569.16546  21527052.1094                   21527050.2544
  -2372629.86347  -1845552.60544  22768954.1414                   22768953.3594
 -16148065.18448 -12572044.12446  20964187.5784                   20964183.1994
  17333093.53146  13502267.76844  24507636.1954                   24507635.6374
   5935140.99647   4630962.17145  22098614.7114                   22098614.0124
 11  7 29 15 37 30.0000000  0  8G06G03G16G20G13G23G31G32
  -2380497.80946  -1852354.73245  22857197.0004                   22857196.9144
  -3352739.92647  -2604534.62345  22600782.6804                   22600782.4734
 -11010182.65648  -8563783.74246  20365708.3134                   20365705.2384
  -2430947.99648  -1882732.69446  21529698.7034                   21529696.7664
  -2494030.24646  -1940150.24844  22745852.1804                   22745851.8714
 -16242485.48447 -12645618.36846  20946219.7584                   20946215.5664
  17364419.52746  13526677.59844  24513598.1644                   24513597.1724
   5973504.96548   4660856.11145  22105915.1094                   22105914.3134
 11  7 29 15 38  0.0000000  0  8G06G03G16G20G13G23G31G32
  -2473519.14147  -1924838.87245  22839495.8914                   22839494.7464
  -3473035.70347  -2698271.54845  22577890.9694                   22577890.7344
 -11028998.95348  -8578445.79847  20362127.7114                   20362124.8484
  -2416580.12548  -1871536.98246  21532432.6644                   21532430.8874
  -2615373.40247  -2034703.33344  22722762.0474                   22722760.9104
 -16336646.21148 -12718990.36046  20928301.7584                   20928297.1804
  17395687.98846  13551042.57344  24519547.9844                   24519547.6484
   6012190.13348   4691000.35845  22113276.6644                   22113275.9414
 11  7 29 15 38 30.0000000  0  8G06G03G16G20G13G23G31G32
  -2566231.36347  -1997082.14045  22821853.0084                   22821852.5944
  -3593125.48847  -2791847.99745  22555039.1254                   22555038.2034
 -11047246.37148  -8592664.57447  20358655.2664                   20358652.4454
  -2401757.46548  -1859986.89346  21535253.1724                   21535251.7274
  -2736661.16847  -2129213.23744  22699681.2274                   22699680.2424
 -16430549.12148 -12792161.45046  20910432.6884                   20910428.7034
  17426895.19946  13575359.82844  24525486.7814                   24525485.8984
   6051190.00448   4721389.81645  22120698.5164                   22120697.4104
 11  7 29 15 39  0.0000000  0  8G06G03G16G20G13G23G31G32
  -2658631.87547  -2069082.52545  22804268.9224                   22804269.1564
  -3713006.07447  -2885261.38545  22532226.4924                   22532225.9494
 -11064926.14148  -8606441.03047  20355291.0784                   20355288.2194
  -2386482.28948  -1848084.19246  21538160.0004                   21538158.0204
  -2857891.59446  -2223678.46744  22676612.3364                   22676610.6804
 -16524192.30948 -12865130.14146  20892612.7894                   20892609.3204
  17458040.78546  13599629.11944  24531413.6644                   24531412.6684
   6090502.12148   4752022.59345  22128178.9454                   22128178.2304
 11  7 29 15 39 30.0000000  0  8G06G03G16G20G13G23G31G32
  -2750710.77747  -2140832.29545  22786747.3444                   22786747.1804
  -3832666.94947  -2978503.58745  22509455.4774                   22509455.0084
 -11082032.73048  -8619770.85147  20352035.5864                   20352032.6644
  -2370750.04748  -1835825.35746  21541153.7424                   21541152.0944
  -2979055.68447  -2318091.99845  22653554.7734                   22653554.1254
 -16617566.30148 -12937889.08246  20874844.2114                   20874840.2234
   9465771.30916                  24537329.5704
   6130131.07448   4782902.25645  22135720.2504                   22135719.5204
 11  7 29 15 40  0.0000000  0  8G06G03G16G20G13G23G31G32
  -2842474.26646  -2212336.30945  22769285.4694                   22769285.3794
  -3952113.84847  -3071579.04745  22486725.8364                   22486725.5634
 -11098576.45748  -8632662.07747  20348887.5164                   20348884.7894
  -2354571.71948  -1823218.90846  21544232.5164                   21544230.2114
  -3100160.78947  -2412459.56844  22630509.3754                   22630507.9964
 -16710677.89148 -13010443.55846  20857125.8754                   20857121.6174
   9496799.69956  13641734.12054  24543234.3524                   24543234.0004
   6170065.27748   4814019.75745  22143319.3134                   22143318.6414
 11  7 29 15 40 30.0000000  0  8G06G03G16G20G13G23G31G32
  -2933915.87947  -2283589.45845  22751884.6024                   22751884.6524
  -4071340.05947  -3164482.54645  22464037.6644                   22464037.0434
 -11114555.06248  -8645112.94947  20345846.7664                   20345844.2034
  -2337946.09448  -1810263.90646  21547396.0394                   21547394.4494
  -3221201.38347  -2506776.89044  22607476.0784                   22607474.6954
 -16803521.01248 -13082788.83346  20839458.3364                   20839454.2734
   9527768.58646  13665865.69444  24549127.3524                   24549126.4574
   6210306.14148   4845376.21145  22150977.1564                   22150976.2734
 11  7 29 15 41  0.0000000  0  8G06G03G16G20G13G23G31G32
  -3025030.91447  -2354588.18245  22734546.2504                   22734545.7774
  -4190339.98847  -3257209.72845  22441392.5864                   22441392.2074
 -11129967.68748  -8657122.79446  20342914.1564                   20342911.3164
  -2320873.41448  -1796960.55846  21550645.1724                   21550643.3954
  -3342173.64547  -2601040.95444  22584455.9144                   22584454.3954
 -16896091.24248 -13154921.46646  20821842.6724                   20821838.8524
   9558682.98056  13689954.42354  24555009.6884                   24555009.5394
   6250853.16848   4876971.24145  22158692.8754                   22158692.3444
 11  7 29 15 41 30.0000000  0  8G06G03G16G20G13G23G31G32
  -3115817.42247  -2425330.85945  22717270.1174                   22717269.4494
  -4309111.25047  -3349758.73545  22418791.4614                   22418790.5944
 -11144817.22748  -8668693.88446  20340087.8914                   20340085.4104
  -2303356.89148  -1783311.36046  21553978.7814                   21553976.9304
  -3463076.53947  -2695250.96645  22561448.7504                   22561447.8954
 -16988387.30948 -13226840.48146  20804279.4534                   20804275.3164
   9589536.27746  13713995.84643  24560880.7034                   24560880.9804
   6291703.09448   4908802.31545  22166466.3134                   22166466.2074
 11  7 29 15 42  0.0000000  0  8G06G03G16G20G13G23G31G32
  -3206272.64847  -2495815.42845  22700056.7584                   22700056.2734
  -4427650.63347  -3442127.03145  22396234.2664                   22396233.6484
 -11159104.77348  -8679827.04047  20337369.2504                   20337366.5234
  -2285398.69547  -1769318.01246  21557395.8444                   21557393.9064
  -3583908.09447  -2789405.38145  22538455.3594                   22538454.2584
 -17080406.67248 -13298543.87446  20786768.8914                   20786764.8874
   9620331.62946  13737992.17343  24566740.2424                   24566741.0204
   6332853.35947   4940867.39545  22174297.2894                   22174296.4964
 11  7 29 15 42 30.0000000  0  8G06G03G16G20G13G23G31G32
  -3296394.42247  -2566040.16145  22682907.2584                   22682907.3244
  -4545954.93047  -3534312.15745  22373721.2974                   22373721.0164
 -11172832.48048  -8690523.97446  20334756.8984                   20334754.3284
  -2267001.88747  -1754982.87446  21560896.9534                   21560894.5744
  -3704666.86347  -2883503.08845  22515475.6804                   22515474.0824
 -17172147.49248 -13370030.22146  20769311.2274                   20769306.9534
   9651067.44556  13761941.84053  24572590.1804                   24572589.8204
   6374301.09048   4973164.26945  22182184.6484                   22182183.8914
 11  7 29 15 43  0.0000000  0  8G06G03G16G20G13G23G31G32
  -3386175.78947  -2635999.64245  22665822.7344                   22665822.1054
  -4664017.03547  -3626308.57945  22351254.7664                   22351254.5704
 -11185997.67248  -8700782.57646  20332251.8594                   20332248.9384
  -2248164.55147  -1740304.47446  21564481.5314                   21564479.4844
  -3825346.84047  -2977539.40545  22492510.9384                   22492509.5084
 -17263603.58248 -13441294.69346  20751907.7274                   20751903.4454
                                  24578429.0084
   6416047.91447   5005694.20745  22190128.5084                   22190127.9414
 11  7 29 15 43 30.0000000  0  8G06G03G16G20G13G23G31G32
  -3475609.32447  -2705688.09645  22648803.4304                   22648803.4804
  -4781828.80947  -3718109.91045  22328836.0084                   22328835.8714
 -11198597.15648  -8710600.36046  20329854.0704                   20329851.3984
  -2228884.23047  -1725280.88046  21568150.2664                   21568148.3594
  -3945941.64547  -3071509.31244  22469562.1094                   22469561.1374
 -17354767.82448 -13512331.75746  20734559.4144                   20734555.3244
   9712380.85246  13809717.78943  24584258.5314                   24584258.3794
   6458096.00448   5038458.90545  22198130.6334                   22198129.3674
 11  7 29 15 44  0.0000000  0  8G06G03G16G20G13G23G31G32
  -3564690.65647  -2775102.09345  22631852.5784                   22631851.8914
  -4899385.19147  -3809712.25945  22306465.6564                   22306465.4574
 -11210630.82047  -8719977.24946  20327563.8984                   20327561.3984
  -2209161.82847  -1709912.81246  21571903.3984                   21571901.5274
  -4066447.41847  -3165409.88445  22446630.5944                   22446629.8324
 -17445636.14548 -13583138.23046  20717267.6804                   20717263.6094
   9742967.00846  13833551.16243  24590079.2504                   24590077.4184
   6500444.69547   5071457.81445  22206189.0554                   22206188.2774
 11  7 29 15 44 30.0000000  0  8G06G03G16G20G13G23G31G32
  -3653423.14847  -2844244.28345  22614966.7974                   22614966.3014
  -5016689.17247  -3901117.92445  22284143.4384                   22284142.9384
 -11222106.11748  -8728919.05146  20325380.1094                   20325377.3674
  -2189005.83247  -1694206.88446  21575739.1804                   21575737.0554
  -4186868.36747  -3259244.35445  22423715.6804                   22423713.9654
 -17536212.21548 -13653716.96846  20700031.8984                   20700027.8634
   9773499.88746  13857342.89543  24595889.7894                   24595888.1724
   6543085.27748   5104684.18945  22214303.2734                   22214302.8794
 11  7 29 15 45  0.0000000  0  7G06G03G16G20G13G23G32
  -3741804.99647  -2913113.22245  22598148.2194                   22598147.5044
  -5133738.57047  -3992325.22345  22261869.2664                   22261868.8204
 -11233025.86348  -8737427.95146  20323302.6484                   20323299.5434
  -2168419.56647  -1678165.67946  21579656.5944                   21579654.8874
  -4307203.40647  -3353011.87745  22400816.3984                   22400815.3134
 -17626494.84448 -13724067.05346  20682851.4454                   20682847.6334
   6586014.32848   5138135.34045  22222472.6954                   22222471.8014
 11  7 29 15 45 30.0000000  0  7G06G03G16G20G13G23G32
  -3829825.91446  -2981700.91445  22581398.8204                   22581398.2504
  -5250522.00047  -4083325.26645  22239646.6024                   22239646.0474
 -11243383.94147  -8745499.17846  20321331.3444                   20321328.5474
  -2147397.59847  -1661784.96345  21583656.8364                   21583655.3554
  -4427442.68747  -3446704.77045  22377935.9064                   22377934.4184
 -17716473.84448 -13794180.54346  20665728.9924                   20665724.7854
   6629237.10548   5171815.38945  22230697.7734                   22230696.9224
 11  7 29 15 46  0.0000000  0  7G06G03G16G20G13G23G32
  -3917480.04347  -3050002.81045  22564718.3594                   22564718.0514
  -5367032.98447  -4174113.01345  22217475.5554                   22217474.5234
 -11253179.00848  -8753131.69546  20319467.5004                   20319464.9804
  -2125939.80547  -1645064.64746  21587740.2734                   21587738.7274
  -4547581.53947  -3540319.40745  22355074.1254                   22355073.1644
 -17806144.19548 -13864053.52346  20648665.1954                   20648661.3874
   6672754.07048   5205724.65445  22238978.6334                   22238977.7774
 11  7 29 15 46 30.0000000  0  7G06G03G16G20G13G23G32
  -4004764.41047  -3118016.58645  22548109.0234                   22548108.8594
  -5483268.13347  -4264685.85145  22195356.8914                   22195356.0084
 -11262412.10948  -8760326.33246  20317710.4844                   20317707.5434
  -2104047.77047  -1628005.96146  21591905.7734                   21591904.6254
  -4667617.51647  -3633853.87845  22332232.0864                   22332231.2814
 -17895502.69148 -13933683.49446  20631660.7894                   20631656.9534
   6716563.17647   5239861.55845  22247314.9224                   22247314.3484
 11  7 29 15 47  0.0000000  0  7G06G03G16G20G13G23G32
  -4091681.59447  -3185744.21445  22531569.1484                   22531568.8204
  -5599229.17247  -4355045.08145  22173289.7114                   22173288.9774
 -11271090.51648  -8767088.73446  20316059.0394                   20316056.5944
  -2081729.37147  -1610615.04346  21596153.2894                   21596151.3484
  -4787553.68447  -3727310.61845  22309409.2894                   22309407.9884
 -17984552.37948 -14003072.85946  20614715.3594                   20614711.6334
   6760656.55947   5274219.98045  22255705.6484                   22255704.9804
 11  7 29 15 47 30.0000000  0  7G06G03G16G20G13G23G32
  -4178227.73447  -3253182.71645  22515099.4694                   22515099.1414
  -5714912.02347  -4445187.53645  22151276.2814                   22151275.9574
 -11279214.50447  -8773419.11846  20314513.3134                   20314510.5234
  -2058985.68447  -1592892.73846  21600481.0314                   21600479.4494
  -4907386.84447  -3820687.05145  22286605.4064                   22286604.5904
 -18073289.84448 -14072218.92346  20597829.1564                   20597825.3134
   6805033.01648   5308798.98345  22264150.4924                   22264149.8324
 11  7 29 15 48  0.0000000  0  7G06G03G16G20G13G23G32
  -4264404.66847  -3320333.55245  22498700.6804                   22498700.4184
  -5830317.03947  -4535113.51445  22129315.2424                   22129314.7194
 -11286790.27748  -8779322.32547  20313071.3524                   20313068.7894
  -2035823.90647  -1574844.64446  21604888.6644                   21604887.0474
  -5027119.54347  -3913985.23245  22263820.9774                   22263819.9224
 -18161717.11748 -14141123.28346  20581002.0164                   20580998.0314
   6849685.32847   5343592.91745  22272647.3594                   22272647.0704
 11  7 29 15 48 30.0000000  0  7G06G03G16G20G13G23G32
  -4350210.32447  -3387195.07345  22482372.2114                   22482371.8674
  -5945441.95347  -4624821.21045  22107407.6024                   22107406.5824
 -11293820.13347  -8784800.14747  20311733.8134                   20311730.8134
  -2012247.02747  -1556473.11346  21609375.3754                   21609373.9774
  -5146750.28547  -4007203.94545  22241055.8754                   22241054.8834
 -18249832.52348 -14209784.63046  20564234.3364                   20564230.0434
   6894610.61348   5378599.56845  22281196.8524                   22281196.1684
 11  7 29 15 49  0.0000000  0  7G06G03G16G20G13G23G32
  -4435637.63347  -3453761.77945  22466116.0784                   22466115.4344
  -6060279.04347  -4714304.63945  22085554.7894                   22085554.4064
 -11300301.43748  -8789850.53447  20310500.6644                   20310497.6214
  -1988253.19147  -1537776.66246  21613941.5704                   21613939.6054
  -5266272.50047  -4100338.10645  22218311.7424                   22218310.4024
 -18337629.00048 -14278197.47946  20547527.1884                   20547523.0554
   6939810.66447   5413820.33645  22289798.1564                   22289797.8634
 11  7 29 15 49 30.0000000  0  7G06G03G16G20G13G23G32
  -4520691.26247  -3520037.27845  22449930.7274                   22449930.2304
  -6174832.21147  -4803566.83745  22063755.9304                   22063755.7774
 -11306243.13748  -8794480.43547  20309369.8364                   20309366.7664
  -1963852.18447  -1518762.93646  21618584.5704                   21618582.8164
  -5385691.49647  -4193391.83845  22195586.9774                   22195585.6334
 -18425111.89548 -14346365.95746  20530879.6564                   20530875.8164
   6985275.73448   5449247.58545  22298449.8054                   22298449.2814
 11  7 29 15 50  0.0000000  0  7G06G03G16G20G13G23G32
  -4605366.04747  -3586017.61645  22433817.8984                   22433817.8364
  -6289095.98447  -4892603.51545  22042012.5554                   22042012.2814
 -11311644.34048  -8798689.17646  20308342.0634                   20308339.2384
  -1939043.90647  -1499431.85046  21623305.4614                   21623303.8954
  -5505002.64847  -4286361.51745  22172882.8444                   22172881.6174
 -18512275.99648 -14414286.02846  20514292.8674                   20514289.0274
   7031005.62148   5484881.21245  22307151.8674                   22307151.9884
 11  7 29 15 50 30.0000000  0  7G06G03G16G20G13G23G32
  -4689658.29747  -3651699.87545  22417777.8524                   22417777.1174
  -6403065.63347  -4981411.01845  22020324.7344                   22020323.8524
 -11316505.94948  -8802477.46446  20307416.9534                   20307414.4104
  -1913829.58647  -1479784.38846  21628103.6334                   21628102.1994
  -5624202.86747  -4379244.77445  22150199.6804                   22150198.4384
 -18599117.92248 -14481955.05746  20497767.1484                   20497763.2344
   7076999.18047   5520720.27145  22315904.2584                   22315903.8984
 11  7 29 15 51  0.0000000  0  7G06G03G16G20G13G23G32
  -4773559.88347  -3717077.70245  22401811.5164                   22401810.7584
  -6516732.37547  -5069982.47745  21998694.3914                   21998693.7304
 -11320824.28547  -8805842.41046  20306595.2584                   20306592.2464
  -1888206.53947  -1459818.41946  21632979.7194                   21632978.1214
  -5743284.55147  -4472035.65045  22127538.8444                   22127537.8554
 -18685629.99248 -14549367.04646  20481304.9064                   20481300.6334
   7123259.10247   5556766.92145  22324707.0394                   22324706.5984
 11  7 29 15 51 30.0000000  0  7G06G03G16G20G13G23G32
  -4857073.62947  -3782153.31545  22385919.2974                   22385918.4964
  -6630098.23047  -5158319.48645  21977121.8524                   21977120.6884
 -11324606.47748  -8808789.58846  20305875.2194                   20305872.5594
  -1862182.55547  -1439540.02846  21637931.9844                   21637930.5044
  -5862250.45747  -4564736.31345  22104901.0394                   22104899.5004
 -18771814.95748 -14616524.15146  20464903.8524                   20464900.3444
   7169777.80547   5593015.18145  22333559.2114                   22333559.0514
 11  7 29 15 52  0.0000000  0  8G06G03G16G20G13G23G19G32
  -4940198.51247  -3846925.95545  22370100.9144                   22370100.2734
  -6743161.14147  -5246420.42645  21955606.1024                   21955606.0514
 -11327855.83248  -8811321.56546  20305257.0634                   20305254.2234
  -1835761.95348  -1418952.59546  21642959.7424                   21642957.9144
  -5981100.66847  -4657346.82345  22082284.3524                   22082282.6524
 -18857671.88748 -14683425.64746  20448566.2424                   20448562.2544
   9218865.63346   7191694.38644  24152170.1884                   24152169.5164
   7216551.03947   5629461.79345  22342459.8914                   22342460.2114
 11  7 29 15 52 30.0000000  0  8G06G03G16G20G13G23G19G32
  -5022931.12147  -3911392.89045  22354357.8914                   22354357.1914
  -6855917.42247  -5334282.44545  21934149.3284                   21934148.9414
 -11330573.54348  -8813439.26447  20304740.0474                   20304737.4414
  -1808946.19147  -1398057.23346  21648062.4454                   21648060.9104
  -6099831.55547  -4749864.36145  22059690.2664                   22059689.0514
 -18943197.90648 -14750069.27446  20432291.2114                   20432286.9844
   9090284.48046   7091501.38044  24127701.7504                   24127701.4614
   7263576.75047   5666105.13145  22351408.7034                   22351408.6524
 11  7 29 15 53  0.0000000  0  8G06G03G16G20G13G23G19G32
  -5105274.65647  -3975556.66545  22338688.2034                   22338687.8754
  -6968368.90247  -5421906.95445  21912751.0554                   21912750.2034
 -11332767.04348  -8815148.49246  20304322.3834                   20304319.4774
  -1781743.78547  -1376860.59546  21653239.0394                   21653237.4144
  -6218447.12547  -4842292.04545  22037118.6024                   22037116.9064
 -19028396.30148 -14816457.61246  20416078.3444                   20416074.4494
   8961636.45347   6991256.26344  24103221.6884                   24103220.1884
   7310846.99247   5702939.02745  22360404.2504                   22360404.4414
 11  7 29 15 53 30.0000000  0  9G06G03G16G20G13G23G19G07G32
  -5187223.00047  -4039412.50245  22323093.8364                   22323093.3754
  -7080509.28547  -5509289.04645  21891410.8524                   21891410.4844
 -11334434.78948  -8816448.04146  20304005.4534                   20304002.4924
  -1754153.67247  -1355361.83046  21658489.1644                   21658487.8714
  -6336941.36747  -4934625.18045  22014569.8834                   22014568.4774
 -19113260.99648 -14882585.93946  20399929.1724                   20399924.9534
   8832927.82047   6890963.88044  24078728.9144                   24078727.7154
   9272174.55146   7231415.43443  24383447.5784                   24383449.7504
   7358362.80547   5739964.24945  22369445.9924                   22369445.9414
 11  7 29 15 54  0.0000000  0  9G06G03G16G20G13G23G19G07G32
  -5268780.07847  -4102963.43545  22307573.8984                   22307573.6914
  -7192341.56247  -5596431.05445  21870130.2734                   21870129.6174
 -11335584.86347  -8817344.21146  20303786.2344                   20303783.3364
  -1726185.13747  -1333568.21646  21663811.4454                   21663810.2304
  -6455318.92247  -5026867.38345  21992043.4534                   21992041.8914
 -19197796.50448 -14948457.74946  20383842.6024                   20383838.6054
   8704155.28547   6790621.70944  24054223.7344                   24054222.8484
   9173047.42246   7154173.56643  24364583.4614                   24364585.9144
   7406115.00847   5777173.71045  22378533.1954                   22378533.2194
 11  7 29 15 54 30.0000000  0  9G06G03G16G20G13G23G19G07G32
  -5349940.29747  -4166205.13145  22292129.5004                   22292129.1294
  -7303859.80947  -5683328.34745  21848909.1564                   21848908.5204
 -11336216.53148  -8817836.42546  20303665.9384                   20303663.1054
  -1697837.43747  -1311479.14745  21669205.7974                   21669204.2664
  -6573574.37547  -5119014.46045  21969540.3444                   21969538.7814
 -19281997.04748 -15014068.56446  20367819.9384                   20367815.8754
   8575324.62547   6690234.23744  24029708.1884                   24029707.3244
   9073972.11346   7076972.08243  24345731.3054                   24345731.8364
   7454104.07847   5814567.70745  22387665.6724                   22387665.2854
 11  7 29 15 55  0.0000000  0  9G06G03G16G20G13G23G19G07G32
  -5430692.07447  -4229128.58745  22276763.4454                   22276762.3444
  -7415051.25447  -5769971.01945  21827750.1414                   21827749.3914
 -11336322.45747  -8817918.97346  20303646.1884                   20303643.1484
  -1669104.03147  -1289089.53445  21674673.5944                   21674672.3404
  -6691696.64847  -5211057.74545  21947062.0704                   21947060.3324
 -19365851.15248 -15079409.41146  20351862.6564                   20351858.7624
   8446447.80947   6589810.78244  24005183.4924                   24005182.3714
   8974957.90646   6999818.18543  24326889.0704                   24326890.0274
   7502336.69147   5852151.50745  22396843.6954                   22396843.3834
 11  7 29 15 55 30.0000000  0  9G06G03G16G20G13G23G19G07G32
  -5511031.60247  -4291730.77445  22261475.1884                   22261474.4774
  -7525910.94147  -5856355.17445  21806654.1484                   21806653.1524
 -11335903.25447  -8817592.32846  20303725.4224                   20303722.8524
  -1639986.34447  -1266400.46846  21680214.6174                   21680213.2854
  -6809681.84447  -5302994.22645  21924610.2734                   21924608.8094
 -19449355.04348 -15144477.37046  20335972.7114                   20335968.5004
   8317529.38347   6489354.93344  23980651.3284                   23980650.3554
   8876005.51646   6922712.45943  24308060.0474                   24308060.7154
   7550811.66847   5889924.14045  22406068.4534                   22406068.1724
 11  7 29 15 56  0.0000000  0  9G06G03G16G20G13G23G19G07G32
  -5590953.41047  -4354007.49445  22246266.1564                   22246265.9264
  -7636433.06647  -5942476.27945  21785622.3054                   21785621.8634
 -11334957.70747  -8816855.55046  20303905.7194                   20303902.9144
  -1610484.27747  -1243411.89045  21685828.4534                   21685827.3324
  -6927524.74647  -5394819.83845  21902185.0944                   21902183.6054
 -19532503.53948 -15209268.41846  20320149.8364                   20320145.8444
   8188575.00046   6388871.07344  23956111.8524                   23956111.2424
   8777117.63746   6845656.98643  24289242.2424                   24289242.5164
   7599529.11747   5927885.72045  22415339.0554                   22415338.6564
 11  7 29 15 56 30.0000000  0  9G06G03G16G20G13G23G19G07G32
  -5670451.37147  -4415953.91345  22231138.6254                   22231138.2624
  -7746610.66847  -6028328.92645  21764656.2034                   21764655.8984
 -11333484.37948  -8815707.52246  20304186.1254                   20304183.2814
  -1580596.57447  -1220122.81045  21691516.3594                   21691514.7114
  -7045219.52047  -5486530.00745  21879788.4774                   21879787.2814
 -19615290.62548 -15273777.84046  20304396.1024                   20304391.8404
   8059591.36346   6288364.38644  23931566.6414                   23931566.1484
   8678297.57846   6768654.38343  24270437.8054                   24270438.0704
   7648490.30147   5966037.24345  22424656.0314                   22424655.6764
 11  7 29 15 57  0.0000000  0  9G06G03G16G20G13G23G19G07G32
  -5749523.10947  -4477568.22445  22216091.5704                   22216090.7544
  -7856440.02747  -6113910.19845  21743756.3134                   21743755.7154
 -11331484.75848  -8814149.39146  20304566.7424                   20304564.1954
  -1550325.71147  -1196535.16246  21697276.5944                   21697274.7774
  -7162764.23047  -5578123.27145  21857420.9844                   21857419.3794
 -19697713.84848 -15338003.73346  20288711.5084                   20288707.5204
   7930581.76246   6187837.50544  23907017.0004                   23907016.3984
   8579544.73846   6691704.16843  24251645.2194                   24251645.5164
   7697692.63347   6004376.64845  22434018.4774                   22434018.9494
 11  7 29 15 57 30.0000000  0  9G06G03G16G20G13G23G19G07G32
  -4252745.64847  -3311248.11645  22500919.0784                   22500918.0864
  -6390497.02047  -4971616.91045  22022716.3674                   22022715.4614
  -9753544.50848  -7584585.57646  20604838.5394                   20604836.3164
     55742.10247     54946.22146  22002900.9614                   22002899.8284
  -5704734.75047  -4441996.36145  22134874.7504                   22134872.3754
 -18204350.48848 -14174343.97446  20572889.0394                   20572885.1374
   9376970.65646   7314893.84544  24182256.0394                   24182255.3554
  10056279.84446   7842406.97343  24532658.4144                   24532658.7934
   9322549.45747   7270498.76745  22743218.9694                   22743218.7034
 11  7 29 15 58  0.0000000  0  9G06G03G16G20G13G23G19G07G32
  -4330960.61747  -3372194.81745  22486035.4614                   22486034.2504
  -6499624.00847  -5056650.90945  22001949.8914                   22001948.9144
  -9750502.98448  -7582215.57846  20605417.3674                   20605414.9024
     86767.56347     79121.84845  22008805.2584                   22008803.6764
  -5821975.34047  -4533352.63445  22112564.4384                   22112562.9414
 -18286042.34448 -14237999.97046  20557343.6414                   20557339.7704
   9247914.13346   7214330.41344  24157697.4144                   24157696.4304
   9957657.44546   7765558.32343  24513891.0004                   24513891.7034
   9372223.05547   7309205.38345  22752671.5084                   22752671.2504
 11  7 29 15 58 30.0000000  0  9G06G03G16G20G13G23G19G07G32
  -4408748.09047  -3432808.40945  22471232.6174                   22471231.9494
  -6608399.46547  -5141410.96245  21981250.7034                   21981249.8754
  -9746947.49648  -7579445.08446  20606094.0394                   20606091.5554
    118161.91847    103584.95245  22014779.6564                   22014777.9064
  -5939064.81247  -4624591.13445  22090282.9534                   22090281.5474
 -18367369.21548 -14301371.55546  20541867.6414                   20541863.7584
   9118834.36746   7113748.82343  24133133.8054                   24133132.7154
   9859095.07046   7688756.42643  24495134.4844                   24495136.3164
   9422124.08247   7348089.24345  22762167.1644                   22762167.2584
 11  7 29 15 59  0.0000000  0  9G06G03G16G20G13G23G19G07G32
  -4486107.42647  -3493088.39145  22456511.9694                   22456510.8554
  -6716822.02047  -5225896.04245  21960618.5474                   21960618.1484
  -9742882.21948  -7576277.35646  20606867.8134                   20606865.4144
    149920.64547    128331.96145  22020823.0234                   22020821.3364
  -6056002.80547  -4715711.61145  22068030.7274                   22068028.6254
 -18448330.74248 -14364458.45946  20526461.2424                   20526456.8874
   8989732.74646   7013150.23143  24108567.1174                   24108565.4614
   9760590.85946   7611999.95243  24476390.0944                   24476390.3914
   9472247.90247   7387146.68645  22771705.6644                   22771705.6174
 11  7 29 15 59 30.0000000  0  9G06G03G16G20G13G23G19G07G32
  -4563038.29747  -3553034.50445  22441872.4614                   22441871.5234
  -6824890.13747  -5310104.93245  21940053.5704                   21940052.9654
  -9738310.98448  -7572715.37146  20607737.6094                   20607734.7894
    182039.16047    153359.32945  22026934.8284                   22026933.0514
  -6172788.93747  -4806713.77845  22045806.5004                   22045805.1644
 -18528926.60248 -14427260.42346  20511124.2814                   20511120.1484
   8860610.19546   6912535.27644  24083995.5234                   24083994.3204
   9662142.50046   7535286.95543  24457656.2274                   24457657.0784
   9522590.12547   7426374.30645  22781285.6484                   22781285.4844
 11  7 29 16  0  0.0000000  0  9G06G03G16G20G13G23G19G07G32
  -4639536.72347  -3612643.63445  22427315.0164                   22427314.7704
  -6932599.06647  -5394033.93745  21919557.5084                   21919556.9264
  -9733234.61748  -7568759.77646  20608703.2814                   20608701.0474
    214516.12147    178666.00845  22033114.9144                   22033113.4414
  -6289419.50047  -4897594.69745  22023612.3284                   22023611.0354
 -18609152.60248 -14489774.16946  20495857.7274                   20495853.7664
   8731471.25046   6811907.58444  24059421.2584                   24059420.0984
   9563751.11746   7458618.39243  24438933.4844                   24438932.9694
   9573149.59047   7465771.21945  22790906.7974                   22790907.0274
 11  7 29 16  0 30.0000000  0  9G06G03G16G20G13G23G19G07G32
  -4715606.93447  -3671919.08745  22412839.2274                   22412839.2234
  -7039951.76247  -5477685.36245  21899128.9224                   21899128.1174
  -9727661.57448  -7564417.15746  20609764.0704                   20609761.0744
    247342.65247    204245.06945  22039361.4694                   22039359.8014
  -6405898.67647  -4988357.65645  22001447.5004                   22001445.7424
 -18689013.28948 -14552003.26746  20480660.7344                   20480656.6804
   8602312.32446   6711264.30044  24034843.1414                   24034842.0944
   9465409.52346   7381988.62844  24420219.2664                   24420219.1804
   9623917.23847   7505330.34145  22800567.4924                   22800567.8364
 11  7 29 16  1  0.0000000  0  9G06G03G16G20G13G23G19G07G32
  -4791245.00047  -3730857.82445  22398445.9924                   22398445.1804
  -7146944.07847  -5561055.96345  21878768.7734                   21878768.2114
  -9721592.46548  -7559687.99246  20610919.1254                   20610916.5864
    280517.12147    230095.23945  22045674.5314                   22045673.0864
  -6522223.01248  -5078999.96345  21979311.9144                   21979309.6054
 -18768504.95748 -14613944.81746  20465533.9924                   20465530.0944
   8473137.81346   6610608.89644  24010261.3594                   24010260.5004
   9367118.74246   7305398.42143  24401515.0704                   24401515.0944
   9674891.92647   7545050.80445  22810267.5944                   22810267.7154
 11  7 29 16  1 30.0000000  0  9G06G03G16G20G13G23G19G07G32
  -4866445.58647  -3789455.66145  22384135.8444                   22384134.7544
  -7253569.28947  -5644140.51045  21858478.6254                   21858478.1844
  -9715025.84048  -7554571.16446  20612168.3834                   20612166.2114
    314040.30948    256217.15545  22052053.7814                   22052052.6254
  -6638386.37948  -5169516.83845  21957206.6484                   21957204.6684
 -18847621.50048 -14675594.05246  20450478.6804                   20450474.4494
   8343954.28946   6509946.42243  23985678.9064                   23985678.1564
   9268882.09046   7228850.46344  24382822.3204                   24382821.1954
   9726074.32846   7584933.10945  22820007.5004                   22820007.6564
 11  7 29 16  2  0.0000000  0  9G06G03G16G20G13G23G19G07G32
  -4941210.51647  -3847714.03545  22369908.3284                   22369907.8404
  -7359828.68747  -5726940.00145  21838258.1094                   21838257.3404
  -9707968.87948  -7549072.25346  20613511.4304                   20613508.6524
    347904.83648    282605.03845  22058497.9064                   22058496.8404
  -6754391.04348  -5259910.04845  21935131.6564                   21935130.1564
 -18926365.33248 -14736952.88246  20435494.3754                   20435490.1994
   8214760.33646   6409275.92044  23961094.2734                   23961092.9064
   9170694.76246   7152340.92544  24364137.5784                   24364137.1374
   9777457.46146   7624971.83945  22829785.3984                   22829785.8554
 11  7 29 16  2 30.0000000  0  9G06G03G16G20G13G23G19G07G32
  -5015537.14147  -3905630.84345  22355764.5474                   22355764.2304
  -7465718.37547  -5809451.41845  21818108.1334                   21818107.1914
  -9700422.94948  -7543192.32746  20614947.5234                   20614945.0984
    382108.76648    309257.38945  22065006.9384                   22065005.5744
  -6870233.77348  -5350177.06745  21913087.3444                   21913086.1094
 -19004733.57448 -14798019.04746  20420581.2034                   20420576.8524
   8085559.94146   6308600.32244  23936508.0474                   23936507.2894
   9072557.09846   7075870.05344  24345462.3834                   24345462.2384
   9829039.21947   7665165.34645  22839601.2424                   22839601.5634
 11  7 29 16  3  0.0000000  0  9G06G03G16G20G13G23G19G07G32
  -5089422.72747  -3963204.02345  22341704.2734                   22341703.9104
  -7571234.70747  -5891671.88545  21798028.8134                   21798028.1684
  -9692389.75448  -7536932.72046  20616476.0084                   20616473.6174
    416649.53148    336172.22245  22071579.8054                   22071578.3834
  -6985912.58648  -5440316.37145  21891074.0704                   21891072.3594
 -19082723.32048 -14858790.27346  20405739.9224                   20405736.2074
   7956356.15646   6207922.13544  23911920.9384                   23911920.6454
   8974468.78546   6999437.62144  24326795.8914                   24326796.8204
   9880817.28547   7705511.80945  22849454.6644                   22849454.2934
 11  7 29 16  3 30.0000000  0  9G06G03G16G20G13G23G19G07G32
  -5162860.94947  -4020428.59845  22327729.9224                   22327729.3134
  -7676370.66047  -5973595.97245  21778022.1174                   21778021.4264
  -9683867.18748  -7530291.78346  20618097.9614                   20618095.3834
    451528.57047    363350.62645  22078217.3984                   22078215.8014
  -7101419.76247  -5530321.93045  21869094.1804                   21869092.3874
 -19160328.31248 -14919261.69846  20390972.6024                   20390968.3554
   7827156.31346   6107246.96944  23887335.7504                   23887334.5514
   8876433.77046   6923046.79244  24308141.8054                   24308141.5784
   9932793.23047   7746012.46645  22859345.0634                   22859345.3164
 11  7 29 16  4  0.0000000  0  9G06G03G16G20G13G23G19G07G32
  -5235846.84847  -4077300.71645  22313841.0704                   22313840.3954
  -7781120.35947  -6055219.08545  21758088.8134                   21758088.2894
  -9674854.89148  -7523269.23846  20619813.5634                   20619810.3484
    486745.71547    390792.51445  22084919.0864                   22084917.7704
  -7216751.66447  -5620190.91445  21847147.1174                   21847145.7464
 -19237543.71148 -14979429.54246  20376279.0704                   20376274.9734
   7697966.32846   6006579.52044  23862751.6484                   23862750.5634
   8778454.40646   6846699.28444  24289495.8054                   24289496.5124
   9984966.97347   7786667.22545  22869273.4694                   22869273.5274
 11  7 29 16  4 30.0000000  0  9G06G03G16G20G13G23G19G07G32
  -5308380.47747  -4133820.40045  22300038.2194                   22300037.6174
  -7885482.63347  -6136540.29145  21738229.0554                   21738228.7734
  -9665357.00048  -7515868.29046  20621620.3984                   20621617.7814
    522296.23847    418494.16545  22091684.0314                   22091682.6024
  -7331907.82447  -5709922.94445  21825233.3364                   21825231.8794
 -19314369.19148 -15039293.54846  20361659.5864                   20361655.1134
   7568786.97347   5905920.36544  23838169.6884                   23838168.0554
   8680527.80546   6770392.92943  24270861.2584                   24270861.1374
  10037334.03947   7827472.67545  22879238.8984                   22879238.8094
 11  7 29 16  5  0.0000000  0  9G06G03G16G20G13G23G19G07G32
  -5380462.50847  -4189988.19345  22286321.3054                   22286321.1564
  -7989456.96147  -6217559.23245  21718443.3444                   21718442.7544
  -9655379.45748  -7508093.60446  20623519.0474                   20623516.5004
    558174.27747    446451.01945  22098511.1254                   22098509.8364
  -7446888.58247  -5799518.33245  21803353.1724                   21803351.7074
 -19390805.16848 -15098854.05646  20347114.3364                   20347110.2154
   7439618.46946   5805269.60844  23813589.4144                   23813588.2074
   8582650.87946   6694125.26144  24252234.6954                   24252236.2894
  10089888.67647   7868424.24845  22889239.7894                   22889239.7074
 11  7 29 16  5 30.0000000  0  9G06G03G16G20G13G23G19G07G32
  -5452086.50847  -4245799.08745  22272691.8284                   22272691.1764
  -8093036.33647  -6298270.39945  21698733.0634                   21698732.5044
  -9644919.78548  -7499943.23446  20625509.4534                   20625506.8244
    594380.88747    474663.90445  22105401.3284                   22105399.7384
  -7561687.11347  -5888971.69145  21781507.7274                   21781506.0164
 -19466845.69148 -15158106.41046  20332644.2974                   20332640.0864
   7310467.93846   5704632.90944  23789013.2034                   23789012.0434
   8484827.41446   6617899.26743  24233619.6954                   24233621.6884
  10142632.28147   7909523.08244  22899276.3134                   22899276.1134
 11  7 29 16  6  0.0000000  0  9G06G03G16G20G13G23G19G07G32
  -5523249.90247  -4301251.06845  22259149.3284                   22259149.2734
  -8196217.37148  -6378671.17345  21679098.5704                   21679097.7774
  -9633979.83648  -7491418.60446  20627591.0944                   20627588.5474
    630914.02047    503131.24945  22112353.2424                   22112351.9144
  -7676300.95747  -5978281.17245  21759697.2894                   21759695.9344
 -19542487.73448 -15217048.25146  20318250.0164                   20318245.7774
   7181338.69146   5604012.76944  23764439.9614                   23764439.0044
   8387057.41846   6541714.93544  24215014.9454                   24215016.1884
  10195562.95347   7950767.68244  22909349.2274                   22909348.9454
 11  7 29 16  6 30.0000000  0  9G06G03G16G20G13G23G19G07G32
  -5593952.65647  -4356344.08945  22245695.3754                   22245694.9614
  -8298999.01248  -6458760.75145  21659540.2504                   21659538.8634
  -9622563.93448  -7482523.11946  20629763.6884                   20629761.0044
    667768.90647    531849.26745  22119367.0474                   22119365.1054
  -7790729.59447  -6067446.30845  21737922.4844                   21737920.8874
 -19617731.10948 -15275679.44746  20303931.6884                   20303927.7384
   7052232.65646   5503410.72844  23739872.0554                   23739871.1024
   8289338.84846   6465570.67544  24196419.7114                   24196420.7814
  10248675.84047   7992154.25445  22919455.7814                   22919455.7504
 11  7 29 16  7  0.0000000  0  9G06G03G16G20G13G23G19G07G32
  -5664193.73847  -4411077.38745  22232329.1884                   22232328.3754
  -8401379.12147  -6538537.43345  21640057.5944                   21640056.7624
  -9610675.48048  -7473259.42046  20632025.9924                   20632023.4774
    704941.67647    560815.00145  22126440.4454                   22126439.3634
  -7904971.77047  -6156466.15745  21716182.8134                   21716181.5704
 -19692574.63348 -15333999.06646  20289689.4694                   20289685.4144
   6923151.40646   5402827.98744  23715308.3914                   23715307.4104
   8191669.94546   6389465.11244  24177834.0234                   24177834.6684
  10301967.12947   8033679.84844  22929596.8364                   22929597.3284
 11  7 29 16  7 30.0000000  0  9G06G03G16G20G13G23G19G07G32
  -5733969.28547  -4465447.90345  22219051.2114                   22219050.5124
  -8503352.85547  -6617997.46545  21620652.5234                   21620651.7274
  -9598314.57848  -7463627.57246  20634378.4144                   20634375.3554
    742430.95347    590027.34145  22133574.2194                   22133573.3244
  -8019023.30147  -6245337.44745  21694479.5004                   21694477.7974
 -19767014.43448 -15392004.10446  20275523.9304                   20275519.8324
   6794099.48846   5302268.10244  23690751.3054                   23690749.9414
   8094052.07846   6313399.29444  24159257.7664                   24159258.6994
  10355436.15647   8075343.94644  22939771.4924                   22939772.0514
 11  7 29 16  8  0.0000000  0  9G06G03G16G20G13G23G19G07G32
  -5803274.93447  -4519452.26045  22205862.3754                   22205861.8954
  -8604915.03547  -6697136.80446  21601325.8134                   21601324.7384
  -9585481.94548  -7453628.13946  20636820.2194                   20636817.7774
    780236.00047    619485.75545  22140768.7424                   22140767.2704
  -8132879.47348  -6334056.51345  21672813.3444                   21672811.7114
 -19841046.02348 -15449691.05246  20261436.6094                   20261432.1914
   6665082.57046   5201735.50944  23666199.7034                   23666198.0554
   7996487.04346   6237374.64444  24140691.2734                   24140692.3444
  10409082.41847   8117146.14045  22949980.6564                   22949980.8054
 11  7 29 16  8 30.0000000  0  9G06G03G16G20G13G23G19G07G32
  -5872110.23447  -4573090.13245  22192763.8364                   22192762.8984
  -8706063.82448  -6775954.02246  21582077.9454                   21582077.0434
  -9572181.21148  -7443263.95746  20639351.2664                   20639348.9064
    818352.79347    649187.09145  22148022.2194                   22148020.3284
  -8246539.47748  -6422622.72645  21651184.5164                   21651183.0204
 -19914668.48448 -15507059.20046  20247426.2894                   20247422.0664
   6536102.32446   5101231.45944  23641655.6884                   23641654.4104
   7898973.23846   6161389.91344  24122134.6094                   24122136.4614
  10462901.52747   8159083.01744  22960221.7194                   22960222.5434
 11  7 29 16  9  0.0000000  0  9G06G03G16G20G13G23G19G07G32
  -5940475.51247  -4626361.75145  22179754.4304                   22179753.3714
  -8806798.37148  -6854448.45046  21562908.7814                   21562907.7234
  -9558416.93448  -7432538.57646  20641970.6174                   20641968.1644
    856776.18047    679127.32645  22155334.1094                   22155332.3634
  -8360003.50447  -6511036.23245  21629592.9534                   21629591.5904
 -19987882.04348 -15564108.72947  20233493.9774                   20233490.4224
   6407159.85946   5000756.91444  23617118.8594                   23617117.4264
   7801507.74646   6085442.85944  24103588.0474                   24103589.4654
  10516888.75047   8201150.88045  22970495.8134                   22970495.6764
 11  7 29 16  9 30.0000000  0  9G06G03G16G20G13G23G19G07G32
  -6008361.93047  -4679260.24545  22166835.9534                   22166835.2814
  -8907109.30548  -6932612.81045  21543820.1174                   21543819.1954
  -9544184.73848  -7421448.57746  20644678.8284                   20644676.1094
    895509.86347    709309.35345  22162704.5704                   22162703.0594
  -8473262.28148  -6599289.80145  21608040.6954                   21608039.1764
 -20060677.63348 -15620832.55247  20219641.6174                   20219637.5084
   6278264.76246   4900319.22044  23592590.7424                   23592588.9654
   7704096.98446   6009538.39044  24085051.6254                   24085052.5084
  10571048.17647   8243352.92144  22980802.1024                   22980802.0904
 11  7 29 16 10  0.0000000  0  9G06G03G16G20G13G23G19G07G32
  -6075773.77347  -4731788.93145  22154008.0944                   22154007.3674
  -9006999.48847  -7010449.29446  21524811.8914                   21524810.8204
  -9529493.39148  -7410000.80146  20647474.9844                   20647472.0354
    934544.69547    739726.05345  22170132.9064                   22170131.4104
  -8586319.38748  -6687386.22445  21586526.8594                   21586524.8244
 -20133059.30948 -15677233.85146  20205867.6484                   20205863.7504
   6149414.02046   4799916.09744  23568071.3914                   23568069.5394
   7606734.34446   5933671.47544  24066524.6254                   24066525.2934
  10625370.70347   8285682.09944  22991139.0314                   22991139.4264
 11  7 29 16 10 30.0000000  0  9G06G03G16G20G13G23G19G07G32
  -6142704.03147  -4783942.34945  22141271.3984                   22141271.2074
  -9106461.19547  -7087951.89946  21505884.9384                   21505883.5044
  -9514340.05948  -7398193.03046  20650358.1414                   20650355.5474
    973883.01647    770379.22245  22177618.9844                   22177617.1604
  -8699167.50848  -6775319.80545  21565052.3284                   21565050.8204
 -20205020.15248 -15733307.23547  20192174.2034                   20192170.1994
   6020615.37546   4699553.56744  23543561.5234                   23543560.2234
   7509424.52046   5857845.71044  24048006.9534                   24048007.5704
  10679858.77747   8328140.21244  23001508.1254                   23001508.1484
 11  7 29 16 11  0.0000000  0  9G06G03G16G20G13G23G19G07G32
  -6209153.23047  -4835720.92145  22128626.1334                   22128625.8244
  -9205493.93747  -7165120.26946  21487039.2814                   21487038.6954
  -9498729.61748  -7386029.08046  20653328.5474                   20653326.1024
   1013519.18447    801264.48645  22185161.3524                   22185159.6294
  -8811806.85248  -6863090.69145  21543617.8914                   21543616.2304
 -20276560.30948 -15789052.81147  20178560.5234                   20178556.7504
   5891870.18447   4599232.69044  23519062.2814                   23519060.5744
   7412164.72746   5782058.90544  24029498.4534                   24029499.8324
  10734507.21547   8370723.33144  23011907.6564                   23011907.2234
 11  7 29 16 11 30.0000000  0  9G06G03G16G20G13G23G19G07G32
  -6275117.86747  -4887121.90445  22116073.5704                   22116073.6294
  -9304093.13747  -7241950.78946  21468276.7894                   21468276.1134
  -9482663.30948  -7373509.89746  20656386.0864                   20656383.7894
   1053452.02347    832380.91645  22192760.3984                   22192759.2544
  -8924233.43748  -6950695.78545  21522223.7034                   21522222.0234
 -20347675.81648 -15844467.49147  20165027.6254                   20165023.6054
   5763182.86746   4498956.90844  23494573.8594                   23494572.1724
   7314956.16446   5706312.05644  24011000.5314                   24011001.0234
  10789314.87946   8413430.49244  23022336.9384                   23022336.9614
 11  7 29 16 12  0.0000000  0  9G06G03G16G20G13G23G19G07G32
  -6340595.11747  -4938143.11845  22103613.6024                   22103613.5354
  -9402254.24647  -7318439.92746  21449596.9924                   21449596.0904
  -9466142.07848  -7360636.22446  20659529.9924                   20659527.5394
   1093679.69147    863727.09545  22200415.4774                   22200414.3674
  -9036443.50848  -7038132.17545  21500870.8284                   21500869.3914
 -20418363.93048 -15899549.13247  20151576.4924                   20151572.1134
   5634557.57846   4398729.49244  23470097.0704                   23470094.8794
   7217799.24646   5630605.37044  23992512.1174                   23992511.9694
  10844280.24247   8456260.54544  23032796.8834                   23032796.6644
 11  7 29 16 12 30.0000000  0  9G06G03G16G20G13G23G19G07G32
  -6405593.14147  -4988790.92145  22091245.0864                   22091244.5744
  -9499984.77747  -7394593.58146  21430999.5314                   21430999.0204
  -9449178.55548  -7347417.91946  20662758.0784                   20662755.6334
   1134189.00847    895292.72145  22208123.9064                   22208122.8164
  -9148444.93448  -7125405.99845  21479557.5394                   21479556.2544
 -20488632.26248 -15954303.67646  20138204.7584                   20138200.3484
   5505987.54746   4298545.09844  23445631.0944                   23445629.0944
   7120683.39846   5554930.72344  23974032.0164                   23974031.8204
  10899390.42247   8499203.45844  23043283.8134                   23043283.8834
 11  7 29 16 13  0.0000000  0  9G06G03G16G20G13G23G19G07G32
  -6470104.25047  -5039059.27245  22078969.0234                   22078968.4574
  -9597276.03947  -7470404.93046  21412485.5314                   21412485.0234
  -9431769.36348  -7333852.33646  20666070.7974                   20666068.3524
   1174982.91447    927080.14145  22215887.0944                   22215885.6484
  -9260229.30148  -7212510.67345  21458285.8674                   21458284.0904
 -20558472.90648 -16008724.95146  20124914.3754                   20124910.3134
   5377481.62947   4198410.64844  23421177.1564                   23421175.3674
   7023614.44946   5479292.64544  23955560.1644                   23955560.1024
  10954648.33647   8542261.47744  23053799.5944                   23053799.2344
 11  7 29 16 13 30.0000000  0  9G06G03G16G20G13G23G19G07G32
  -6534131.69147  -5088950.77645  22066785.4384                   22066783.9844
  -9694130.38347  -7545875.82546  21394055.0784                   21394053.9774
  -9413921.73848  -7319945.09946  20669467.2814                   20669464.6684
   1216053.46147    959083.09745  22223702.3134                   22223701.2304
  -9371799.29748  -7299448.32245  21437054.7424                   21437052.9654
 -20627888.83648 -16062815.29447  20111704.8524                   20111700.6294
   5249038.01246   4098324.76744  23396735.2034                   23396733.4064
   6926586.66446   5403686.62444  23937096.8054                   23937096.0744
  11010046.70747   8585428.95544  23064341.2344                   23064341.0824
 11  7 29 16 14  0.0000000  0  9G06G03G16G20G13G23G19G07G32
  -6597673.89147  -5138464.16145  22054693.2504                   22054692.3674
  -9790544.95347  -7621004.04446  21375707.6564                   21375706.9884
  -9395638.94548  -7305698.79246  20672946.1174                   20672943.5634
   1257397.32847    991299.03245  22231569.8834                   22231568.8404
  -9483153.00448  -7386217.41645  21415864.4924                   21415863.3484
 -20696878.33248 -16116573.33747  20098576.8444                   20098572.8364
   5120659.38746   3998289.52344  23372305.3914                   23372303.6334
   6829599.53546   5328112.28344  23918640.3444                   23918640.1374
  11065582.01246   8628703.11544  23074909.4304                   23074909.2584
 11  7 29 16 14 30.0000000  0  9G06G03G16G20G13G23G19G07G32
  -6660729.64147  -5187598.48945  22042694.0704                   22042693.4064
  -9886517.45347  -7695787.78846  21357444.6334                   21357444.0394
  -9376923.69548  -7291115.50246  20676507.6484                   20676505.3594
   1299011.14147   1023725.30745  22239488.8134                   22239487.7304
  -9594288.40248  -7472816.38546  21394716.2424                   21394714.8364
 -20765439.82448 -16169997.88147  20085529.9304                   20085525.8634
   4992348.40246   3898307.01944  23347888.5634                   23347887.2704
   6732652.02746   5252568.82643  23900192.2664                   23900191.5514
  11121251.50446   8672081.83344  23085502.4694                   23085503.0164
 11  7 29 16 15  0.0000000  0  9G06G03G16G20G13G23G19G07G32
  -6723295.95747  -5236351.45745  22030788.3754                   22030787.2624
  -9982043.66047  -7770223.76246  21339266.3594                   21339266.2704
  -9357777.41448  -7276196.34246  20680150.9534                   20680148.8324
   1340892.86347   1056360.34945  22247458.7734                   22247457.5084
  -9705201.75848  -7559242.35545  21373609.9384                   21373608.5634
 -20833569.96948 -16223086.30647  20072565.3444                   20072561.2464
   4864109.65646   3798380.76344  23323485.8054                   23323484.1684
   6635745.00846   5177056.89144  23881751.0394                   23881750.9024
  11177053.43446   8715563.75444  23096121.2344                   23096122.1174
 11  7 29 16 15 30.0000000  0  9G06G03G16G20G13G23G19G07G32
  -6785376.80947  -5284726.12245  22018974.5634                   22018973.6604
 -10077126.49247  -7844314.26546  21321172.9614                   21321172.2704
  -9338208.16048  -7260947.59946  20683875.0084                   20683872.7974
   1383033.91847   1089197.45045  22255477.8134                   22255476.6954
  -9815896.34048  -7645497.84745  21352545.7814                   21352543.8984
 -20901272.48848 -16275841.53047  20059681.8054                   20059677.7304
   4735940.59846   3698508.83044  23299095.5554                   23299094.4304
   6538872.07446   5101571.57644  23863316.1334                   23863316.9454
  11232979.51646   8759142.40244  23106763.7504                   23106764.8134
 11  7 29 16 16  0.0000000  0  9G06G03G16G20G13G23G19G07G32
  -6846963.07447  -5332715.41745  22007255.0864                   22007254.7424
 -10171755.79747  -7918051.36146  21303165.6644                   21303164.8164
  -9318211.14548  -7245365.53846  20687680.2894                   20687677.8834
   1425439.19547   1122240.43645  22263547.6334                   22263546.2584
  -9926362.35548  -7731575.23745  21331525.0084                   21331523.0984
 -20968537.60248 -16328255.90247  20046881.5394                   20046877.6884
   4607851.94546   3598699.54244  23274721.5004                   23274719.8484
   6442040.85946   5026118.74144  23844890.1564                   23844889.9104
  11289034.05146   8802821.16344  23117430.5004                   23117431.9884
 11  7 29 16 16 30.0000000  0  9G06G03G16G20G13G23G19G07G32
  -6908054.14847  -5380318.83145  21995629.7894                   21995629.2584
 -10265930.00047  -7991433.83345  21285244.8054                   21285243.7584
  -9297789.93748  -7229452.93246  20691566.4844                   20691564.1294
   1468104.23847   1155485.86545  22271665.9774                   22271665.4384
 -10036598.21548  -7817473.28946  21310547.7664                   21310545.9614
 -21035364.46148 -16380328.78747  20034164.9384                   20034160.7584
   4479845.74646   3498954.51744  23250362.2814                   23250360.7274
   6345249.79746   4950697.17344  23826470.6884                   23826471.3324
  11345213.81347   8846597.48744  23128121.3754                   23128122.2584
 11  7 29 16 17  0.0000000  0  9G06G03G16G20G13G23G19G07G32
  -6968650.71147  -5427536.90045  21984098.8674                   21984097.9414
 -10359648.31247  -8064461.06646  21267410.6174                   21267409.8134
  -9276949.33248  -7213213.52546  20695532.2034                   20695529.6174
   1511023.74647   1188929.57545  22279834.1484                   22279832.8984
 -10146603.91448  -7903191.98746  21289613.8984                   21289612.6954
 -21101753.36348 -16432060.40147  20021531.8444                   20021527.5124
   4351922.82846   3399274.36144  23226019.3984                   23226017.6684
   6248495.98446   4875304.58144  23808059.8914                   23808059.9344
  11401513.53946   8890467.27044  23138835.1254                   23138835.8754
 11  7 29 16 17 30.0000000  0  9G06G03G16G20G13G23G19G07G32
  -7028748.57047  -5474366.41045  21972662.7504                   21972661.5434
 -10452905.48047  -8137128.97446  21249664.3284                   21249663.7704
  -9255689.19948  -7196647.20946  20699577.8444                   20699575.5164
   1554197.24647   1222571.17845  22288049.2974                   22288048.5274
 -10256374.84048  -7988727.75746  21268725.1884                   21268723.6134
 -21167700.01648 -16483447.40447  20008982.4924                   20008978.0784
   4224088.84046   3299663.51044  23201692.9924                   23201691.9454
   6151781.28545   4799942.53444  23789654.7114                   23789655.4494
  11457932.86346   8934430.30344  23149571.6094                   23149572.2734
 11  7 29 16 18  0.0000000  0  9G06G03G16G20G13G23G19G07G32
  -7088352.73847  -5520811.20245  21961320.1804                   21961319.5594
 -10545705.60547  -8209440.74346  21232005.1954                   21232004.5314
  -9234019.36748  -7179761.63746  20703701.5944                   20703698.7894
   1597615.37947   1256403.42445  22296311.8524                   22296311.0234
 -10365914.97748  -8074083.68046  21247880.4144                   21247879.0554
 -21233208.99248 -16534493.36147  19996516.6024                   19996512.3594
   4096340.08646   3200119.10944  23177383.6414                   23177382.4494
   6055098.89545   4724605.63344  23771257.0784                   23771257.6844
  11514462.37546   8978479.15444  23160329.0704                   23160329.9494
 11  7 29 16 18 30.0000000  0  9G06G03G16G20G13G23G19G07G32
  -7147451.87547  -5566862.47545  21950073.9144                   21950073.5434
 -10638035.76647  -8281386.29946  21214435.1484                   21214434.9344
  -9211932.19948  -7162550.88846  20707904.7974                   20707902.1884
   1641284.65247   1290431.35645  22304622.1024                   22304620.7704
 -10475211.87548  -8159250.07445  21227081.8204                   21227080.1214
 -21298268.43448 -16585189.03347  19984136.1174                   19984132.1844
   3968689.89846   3100651.47144  23153092.4614                   23153091.2734
   5958458.26646   4649301.28544  23752866.5554                   23752868.1454
  11571109.49246   9022619.64344  23171108.5704                   23171109.2664
 11  7 29 16 19  0.0000000  0  9G06G03G16G20G13G23G19G07G32
  -7206050.71147  -5612523.90145  21938923.1724                   21938921.9964
 -10729899.97748  -8352968.79646  21196954.0784                   21196953.6094
  -9189436.60947  -7145021.86746  20712185.6484                   20712182.9614
   1685195.59047   1324647.60045  22312977.6804                   22312977.0084
 -10584269.74248  -8244230.21045  21206329.0864                   21206327.2894
 -21362882.65648 -16635537.78147  19971840.4304                   19971836.1764
   3841134.99246   3001258.08745  23128819.4144                   23128818.4654
   5861852.36746   4574023.99244  23734483.4924                   23734484.4384
  11627864.83646   9066844.47644  23181908.4924                   23181909.3364
 11  7 29 16 19 30.0000000  0  9G06G03G16G20G13G23G19G07G32
  -5688727.39147  -4430194.01745  22227660.0474                   22227659.2544
  -9245873.61747  -7196584.61846  21479355.0234                   21479354.2894
  -7591117.36747  -5899578.32746  21016335.3524                   21016332.9694
   3304762.58247   2586647.77445  22621171.2344                   22621170.5664
  -9117663.62148  -7101420.22445  21485414.3984                   21485412.9184
 -19851628.87148 -15457937.42347  20259422.2344                   20259418.2504
   5289101.03146   4129543.37845  23404358.2114                   23404356.8244
   7340702.75846   5726374.97644  24015898.9224                   24015899.9494
  13260142.48046  10338748.97744  23492521.0704                   23492521.5944
 11  7 29 16 20  0.0000000  0  9G06G03G16G20G13G23G19G07G32
  -5746324.76247  -4475075.09645  22216699.3834                   22216698.7304
  -9336801.11348  -7267437.19846  21462052.1724                   21462051.4694
  -7567816.40247  -5881421.75546  21020769.6884                   21020767.0274
   3349144.66047   2621231.14945  22629616.9844                   22629616.1174
  -9226239.22748  -7186024.58345  21464753.3984                   21464751.5354
 -19915350.48448 -15507590.63747  20247296.7424                   20247292.6884
   5161742.75047   4030303.19745  23380123.0004                   23380121.2114
   7244162.00046   5651148.42644  23997529.1024                   23997528.7384
  13317102.88746  10383133.60644  23503360.1644                   23503360.8754
 11  7 29 16 20 30.0000000  0  9G06G03G16G20G13G23G19G07G32
  -5803412.87547  -4519559.33245  22205835.4924                   22205835.3634
  -9427250.07847  -7337916.91046  21444840.2974                   21444839.3404
  -7544110.28148  -5862949.47046  21025280.8754                   21025278.2734
   3393763.84447   2655999.26345  22638107.7504                   22638106.8524
  -9334563.87548  -7270433.39445  21444140.1564                   21444138.0744
 -19978616.57048 -15556888.89347  20235257.5234                   20235253.4264
   5034493.82047   3931148.22845  23355907.8754                   23355906.7734
   7147659.41046   5575951.61644  23979164.6024                   23979165.0354
  13374167.78546  10427599.64944  23514219.4774                   23514220.3714
 11  7 29 16 21  0.0000000  0  9G06G03G16G20G13G23G19G07G32
  -5859995.27347  -4563649.50745  22195068.8754                   22195068.1804
  -9517223.00448  -7408025.66546  21427718.8444                   21427718.5944
  -7520007.01648  -5844167.72946  21029867.5004                   21029865.3594
   3438612.08647   2690945.88545  22646642.0314                   22646641.6414
  -9442640.15648  -7354648.66946  21423573.8054                   21423572.0824
 -20041430.59048 -15605834.87447  20223304.2894                   20223300.1604
   4907352.23847   3832076.94645  23331713.6884                   23331711.9734
   7051189.58246   5500780.35544  23960806.9924                   23960807.4964
  13431329.32046  10472141.00944  23525096.9224                   23525097.5274
 11  7 29 16 21 30.0000000  0  9G06G03G16G20G13G23G19G07G32
  -5916061.82847  -4607337.73245  22184399.7114                   22184399.1024
  -9606708.28948  -7477754.44746  21410690.4774                   21410689.7774
  -7495500.04347  -5825071.42346  21034530.8524                   21034528.2934
   3483695.12147   2726075.45145  22655221.0864                   22655220.3204
  -9550456.60548  -7438661.47446  21403057.1024                   21403055.1684
 -20103781.64548 -15654420.11947  20211439.3204                   20211435.2664
   4780330.37147   3733098.92345  23307542.5864                   23307540.5554
   6954760.82046   5425641.05644  23942457.0864                   23942457.7154
  13488593.75446  10516762.53044  23535993.8914                   23535994.6884
 11  7 29 16 22  0.0000000  0  9G06G03G16G20G13G23G19G07G32
  -5971618.04748  -4650628.28745  22173828.0944                   22173827.3794
  -9695710.36348  -7547106.69646  21393753.8364                   21393753.1094
  -7470599.43048  -5805668.37846  21039269.5474                   21039266.9964
   3529002.86747   2761380.11245  22663843.2274                   22663842.3484
  -9658017.91048  -7522475.45746  21382588.6254                   21382586.7274
 -20165674.93748 -15702648.65747  20199661.4774                   20199657.3594
   4653424.00447   3634210.87845  23283392.7814                   23283391.2194
   6858365.74246   5350528.04644  23924114.1024                   23924114.5784
  13545951.29346  10561456.58844  23546908.6884                   23546910.3634
 11  7 29 16 22 30.0000000  0  9G06G03G16G20G13G23G19G07G32
  -6026660.29747  -4693518.35545  22163353.5314                   22163352.7814
  -9784224.26248  -7616078.54946  21376910.4304                   21376909.4384
  -7445305.27048  -5785958.66946  21044082.8054                   21044080.3134
   3574534.60547   2796859.30245  22672507.4224                   22672506.8794
  -9765319.36748  -7606086.96146  21362169.7194                   21362168.1334
 -20227106.24648 -15750517.21347  20187971.6644                   20187967.1374
   4526639.09447   3535417.48445  23259266.7814                   23259264.8444
   6762006.19546   5275442.74344  23905776.9694                   23905777.7114
  13603401.31346  10606222.71644  23557841.7424                   23557842.5944
 11  7 29 16 23  0.0000000  0  9G06G03G16G20G13G23G19G07G32
  -6081185.82448  -4736005.77745  22152977.6804                   22152977.1454
  -9872246.35948  -7684667.19246  21360160.2504                   21360159.3984
  -7419618.80148  -5765943.27346  21048970.6954                   21048968.1374
   3620288.44547   2832511.57145  22681214.5394                   22681213.4304
  -9872357.53148  -7689493.28646  21341801.2114                   21341799.7304
 -20288072.33648 -15798023.26347  20176370.1174                   20176365.6414
   4399979.61747   3436721.84545  23235163.9924                   23235161.9924
   6665683.21147   5200385.93044  23887447.8134                   23887447.6174
  13660942.47746  10651059.82944  23568791.6414                   23568792.2154
 11  7 29 16 23 30.0000000  0  9G06G03G16G20G13G23G19G07G32
  -6135196.25848  -4778091.82145  22142699.8444                   22142699.7114
  -9959776.66848  -7752872.60346  21343504.0084                   21343503.2814
  -7393545.74248  -5745626.62746  21053932.2274                   21053929.9454
   3666258.73047   2868332.50245  22689961.7274                   22689961.3594
  -9979132.41848  -7772694.46446  21321482.4774                   21321481.1724
 -20348574.17648 -15845167.55547  20164857.0394                   20164852.6724
   4273446.02047   3338124.27244  23211085.4774                   23211083.3594
   6569393.43046   5125354.96744  23869124.0474                   23869124.3634
  13718569.46546  10695963.86544  23579757.4064                   23579758.2114
 11  7 29 16 24  0.0000000  0  9G06G03G16G20G13G23G19G07G32
  -6188686.52048  -4819772.52945  22132521.2894                   22132520.5634
 -10046809.07048  -7820690.04246  21326942.2194                   21326941.3014
  -7367085.06648  -5725007.96346  21058967.8674                   21058965.1334
   3712445.98447   2904322.48545  22698750.9384                   22698750.4614
 -10085638.03148  -7855685.82846  21301215.5474                   21301213.4064
 -20408606.41848 -15891945.93147  20153433.0864                   20153428.8674
   4147045.25047   3239630.22145  23187031.9924                   23187029.7894
   6473139.89846   5050352.25744  23850806.8914                   23850807.9844
  13776282.81346  10740935.13644  23590740.1484                   23590740.9344
 11  7 29 16 24 30.0000000  0  9G06G03G16G20G13G23G19G07G32
  -6241655.14848  -4861046.77245  22122441.4454                   22122440.8244
 -10133341.04348  -7888117.54146  21310475.5704                   21310474.8554
  -7340239.11348  -5704089.06346  21064076.5314                   21064073.7074
   3758847.51647   2940479.42445  22707581.4384                   22707580.5594
 -10191871.44148  -7938465.07346  21280999.5944                   21280998.1564
 -20468167.02048 -15938356.79347  20142099.1644                   20142095.0394
   4020780.88746   3141242.45444  23163004.6644                   23163002.6524
   6376922.95746   4975378.08144  23832497.6254                   23832498.3834
  13834080.09446  10785971.87044  23601738.3054                   23601739.4454
 11  7 29 16 25  0.0000000  0  9G06G03G16G20G13G23G19G07G32
  -6294100.72347  -4901913.45245  22112461.4844                   22112460.5984
 -10219369.64848  -7955152.80646  21294104.9534                   21294104.3244
  -7313010.39848  -5682871.89846  21069257.9844                   21069255.5944
   3805459.89847   2976800.69845  22716451.6724                   22716451.0354
 -10297830.25048  -8021030.35646  21260836.5234                   21260834.6564
 -20527254.10548 -15984398.68647  20130855.0704                   20130851.0474
   3894656.19147   3042963.53444  23139003.7584                   23139002.1994
   6280742.06646   4900431.98744  23814195.0554                   23814195.8554
  13891958.74246  10831071.96944  23612752.5314                   23612753.8634
 11  7 29 16 25 30.0000000  0  9G06G03G16G20G13G23G19G07G32
  -6346023.98447  -4942373.12945  22102580.7114                   22102579.7624
 -10304894.30148  -8021795.37846  21277829.8364                   21277829.3984
  -7285403.92248  -5661360.40346  21074510.8594                   21074508.7074
   3852278.49247   3013282.63145  22725360.6564                   22725359.9804
 -10403513.73048  -8103381.09746  21240725.2584                   21240723.7544
 -20585867.71148 -16030071.62547  20119701.2894                   20119697.3204
   3768672.50447   2944794.47845  23115029.5944                   23115028.1604
   6184594.74646   4825512.06044  23795899.1254                   23795899.0474
  13949913.97746  10876231.75144  23623780.8204                   23623781.8714
 11  7 29 16 26  0.0000000  0  9G06G03G16G20G13G23G19G07G32
  -6397424.98048  -4982425.84145  22092799.5234                   22092798.8054
 -10389914.48448  -8088044.85846  21261651.4384                   21261650.5944
  -7257423.46148  -5639557.48246  21079835.6254                   21079833.4384
   3899298.97347   3049921.87445  22734308.9144                   22734307.8954
 -10508921.08248  -8185516.66346  21220667.3754                   21220665.5984
 -20644007.49248 -16075375.36347  20108637.6644                   20108633.3674
   3642831.60547   2846736.68945  23091083.0864                   23091081.3594
   6088479.43846   4750617.06244  23777608.8674                   23777608.9614
  14007941.85246  10921448.16544  23634823.6254                   23634824.8794
 11  7 29 16 26 30.0000000  0  9G06G03G16G20G13G23G19G07G32
  -6448306.07848  -5022073.43845  22083117.0164                   22083116.1644
 -10474430.83248  -8153901.73546  21245568.1644                   21245567.1724
  -7229075.07048  -5617467.87346  21085230.1724                   21085227.6174
   3946514.49647   3086713.11745  22743294.1954                   22743292.7274
 -10614053.33648  -8267437.88546  21200661.0314                   21200659.3244
 -20701675.35248 -16120311.37147  20097663.9694                   20097659.7424
   3517132.96547   2748789.76445  23067163.3364                   23067161.7664
   5992392.24247   4675743.96644  23759324.5634                   23759324.0904
  14066036.15646  10966716.29644  23645878.2344                   23645880.1764
 11  7 29 16 27  0.0000000  0  9G06G03G16G20G13G23G19G07G32
  -6498662.81647  -5061312.45545  22073534.1884                   22073533.5234
 -10558437.23448  -8219361.25146  21229582.0634                   21229581.3404
  -7200358.25448  -5595091.15346  21090695.0084                   21090692.3364
   3993925.12147   3123656.38645  22752315.3444                   22752314.2974
 -10718904.63748  -8349140.18646  21180708.8284                   21180706.7234
 -20758865.94948 -16164875.48147  20086781.0784                   20086776.8014
   3391583.48047   2650959.05145  23043272.0634                   23043270.5554
   5896336.00046   4600894.97244  23741045.7114                   23741045.5474
  14124197.28546  11012036.54844  23656946.2274                   23656947.9104
 11  7 29 16 27 30.0000000  0  9G06G03G16G20G13G23G19G07G32
  -6548492.39847  -5100140.69645  22064052.0864                   22064051.0864
 -10641930.53548  -8284420.95846  21213694.0704                   21213693.3244
  -7171274.44148  -5572428.48146  21096229.3834                   21096226.8594
   4041529.81347   3160750.86445  22761374.2734                   22761373.1054
 -10823470.86348  -8430620.34446  21160810.0944                   21160808.4144
 -20815576.12548 -16209065.23647  20075989.3594                   20075985.4104
   3266187.94547   2553248.31145  23019409.9774                   23019408.5434
   5800311.84847   4526071.00044  23722772.4384                   23722772.0004
  14182423.92647  11057407.78544  23668026.7274                   23668028.3364
 11  7 29 16 28  0.0000000  0  9G06G03G16G20G13G23G19G07G32
  -6597795.48047  -5138558.67745  22054669.6414                   22054668.8714
 -10724909.61348  -8349079.96946  21197903.7584                   21197902.6994
  -7141827.21548  -5549482.61846  21101833.0704                   21101830.6914
   4089323.59447   3197992.67745  22770469.6644                   22770469.0164
 -10927751.18748  -8511877.71546  21140966.3284                   21140964.3134
 -20871805.91448 -16252880.66947  20065289.2894                   20065284.9774
   3140947.54347   2455658.46445  22995577.1094                   22995575.9384
   5704317.89846   4451270.57944  23704505.2974                   23704505.4454
  14240712.01246  11102826.93444  23679118.6954                   23679120.2234
 11  7 29 16 28 30.0000000  0  9G06G03G16G20G13G23G19G07G32
  -6646570.75448  -5176565.38245  22045388.1334                   22045387.3014
 -10807372.27748  -8413336.56346  21182211.2034                   21182210.7544
  -7112020.18748  -5526256.38946  21107504.8444                   21107502.7854
   4137303.52747   3235379.56645  22779600.1804                   22779599.2504
 -11031743.18448  -8592910.42746  21121177.3204                   21121175.7344
 -20927553.70348 -16296320.50947  20054680.8524                   20054676.7504
   3015865.87547   2358192.28945  22971775.0474                   22971773.4614
   5608353.69947   4376493.36144  23686244.0164                   23686244.5164
  14299058.67647  11148291.72844  23690222.4614                   23690222.6804
 11  7 29 16 29  0.0000000  0  9G06G03G16G20G13G23G19G07G32
  -6694818.73047  -5214161.22345  22036207.5554                   22036206.5944
 -10889317.54748  -8477190.01846  21166617.6724                   21166617.1254
  -7081857.28548  -5502752.86646  21113244.8524                   21113242.5784
   4185464.84047   3272907.77145  22788765.0944                   22788763.6134
 -11135445.87548  -8673717.69346  21101443.3674                   21101441.6884
 -20982819.06248 -16339384.43947  20044164.3204                   20044159.7194
   2890944.53547   2260851.03545  22948003.6644                   22948001.8284
   5512417.37546   4301737.82544  23667987.3364                   23667988.1254
  14357459.78147  11193798.91144  23701335.4144                   23701336.8984
 11  7 29 16 29 30.0000000  0  9G06G03G16G20G13G23G19G07G32
  -6742539.05547  -5251345.86845  22027126.0004                   22027125.9614
 -10970743.72748  -8540638.98446  21151123.2734                   21151122.1914
  -7051341.21548  -5478974.12846  21119051.7974                   21119049.4534
   4233803.60547   3310574.25445  22797963.3134                   22797962.4774
 -11238857.80548  -8754298.39646  21081764.8284                   21081762.8554
 -21037601.06648 -16382071.71847  20033739.3134                   20033735.0044
   2766186.07047   2163636.72845  22924262.3834                   22924260.9574
   5416507.90246   4227003.20544  23649736.5394                   23649737.1134
  14415911.88346  11239345.91743  23712458.6954                   23712459.7194
 11  7 29 16 30  0.0000000  0  9G06G03G16G20G13G23G19G07G32
  -6789727.37947  -5288115.98645  22018146.6644                   22018146.4024
 -11051645.02748  -8603678.94746  21135728.1254                   21135726.9774
  -7020472.12948  -5454920.33246  21124926.2194                   21124924.0864
   4282320.45347   3348379.51345  22807194.6804                   22807195.1914
 -11341972.72748  -8834647.67246  21062142.7194                   21062141.0984
 -21091894.61348 -16424378.39247  20023407.6954                   20023403.5204
   2641596.80547   2066554.24245  22900554.4064                   22900552.4614
   5320628.46146   4152292.02544  23631491.4774                   23631491.9654
  14474415.62146  11284933.05243  23723591.6024                   23723592.8754
 11  7 29 16 30 30.0000000  0  9G06G03G16G20G13G23G19G07G32
  -6836380.72747  -5324469.25745  22009268.7344                   22009268.4844
 -11132017.76248  -8666307.04446  21120433.7194                   21120432.7584
  -6989250.71148  -5430591.98446  21130867.2664                   21130865.0824
   4331014.06647   3386322.51045  22816461.2504                   22816460.9574
 -11444786.38748  -8914762.18346  21042577.9064                   21042576.1174
 -21145696.47348 -16466301.92347  20013169.9774                   20013165.3094
   2517182.22747   1969607.85845  22876878.4694                   22876877.1374
   5224780.29346   4077605.18744  23613251.8914                   23613252.3554
  14532970.04747  11330559.75943  23734734.6804                   23734735.5274
 11  7 29 16 31  0.0000000  0 10G06G03G16G20G13G23G19G07G32G10
  -6882502.41047  -5360408.21245  22000491.7344                   22000491.9224
 -11211863.42648  -8728524.44146  21105239.6254                   21105238.4414
  -6957683.96148  -5405994.55246  21136874.4224                   21136872.1024
   4379877.20747   3424397.55945  22825760.1024                   22825759.7624
 -11547299.87148  -8994642.79946  21023069.8674                   21023068.6994
 -21199009.09048 -16507844.23947  20003024.5944                   20003020.2504
   2392941.05147   1872796.60645  22853236.8594                   22853234.7854
   5128958.60546   4002938.97344  23595017.7974                   23595017.7344
  14591568.25047  11376220.53843  23745885.0784                   23745886.5004
  12446735.33646   9700305.15243  24282326.5394                   24282327.0314
 11  7 29 16 31 30.0000000  0 10G06G03G16G20G13G23G19G07G32G10
  -6928101.32047  -5395939.82545  21991814.8444                   21991814.6764
 -11291189.78948  -8790337.18446  21090144.0084                   21090142.9264
  -6925784.36348  -5381137.75246  21142944.9614                   21142942.5634
   4428897.00047   3462594.73145  22835088.3054                   22835088.0274
 -11649521.36348  -9074295.88946  21003617.7894                   21003616.0634
 -21251840.72748 -16549011.75647  19992970.8364                   19992966.8324
   2268866.99647   1776115.58245  22829626.1954                   22829624.0554
   5033153.53946   3928285.72044  23576786.8134                   23576786.5634
  14650197.80947  11421905.74044  23757042.6954                   23757043.5164
  12361327.28146   9633753.47843  24266074.0164                   24266074.1214
 11  7 29 16 32  0.0000000  0 10G06G03G16G20G13G23G19G07G32G10
  -6973172.41847  -5431060.14945  21983237.6804                   21983238.0784
 -11369990.64148  -8851740.44046  21075148.7274                   21075147.7664
  -6893550.48048  -5356020.46546  21149078.6254                   21149076.4924
   4478074.19147   3500914.53244  22844446.7734                   22844446.0354
 -11751444.34448  -9153716.38146  20984222.4064                   20984220.7584
 -21304185.71948 -16589800.06747  19983010.1884                   19983005.8634
   2144967.20747   1679570.34245  22806048.4774                   22806046.3954
   4937368.62546   3853648.17544  23558559.3524                   23558559.0044
  14708859.86347  11467616.31744  23768205.4384                   23768206.7734
  12276382.85246   9567563.05643  24249909.1094                   24249910.4224
 11  7 29 16 32 30.0000000  0 10G06G03G16G20G13G23G19G07G32G10
  -7017707.98447  -5465763.17445  21974763.2734                   21974763.1374
 -11448256.94948  -8912727.17946  21060255.3914                   21060254.4534
  -6860977.53148  -5330638.98146  21155276.9454                   21155275.1604
   4527412.81647   3539360.10845  22853835.8914                   22853835.0554
 -11853059.31248  -9232896.86546  20964885.9844                   20964883.9844
 -21356035.63748 -16630202.61547  19973143.3284                   19973139.5554
   2021251.70347   1583168.72145  22782506.6644                   22782503.9694
   4841610.64146   3779031.64544  23540337.0314                   23540337.4224
  14767558.65247  11513355.44744  23779375.1484                   23779376.7464
  12191910.53146   9501740.49943  24233834.3364                   24233835.8754
 11  7 29 16 33  0.0000000  0 10G06G03G16G20G13G23G19G07G32G10
  -7061707.50847  -5500048.52545  21966390.3984                   21966389.8054
 -11525987.12148  -8973296.13646  21045463.5554                   21045462.6604
  -6828069.98848  -5304996.77646  21161539.1884                   21161537.0634
   4576909.08647   3577928.56644  22863254.4774                   22863254.0434
 -11954364.11748  -9311835.65846  20945608.3204                   20945606.5394
 -21407389.48448 -16670218.61247  19963371.1024                   19963366.9384
   1897723.36347   1486912.91945  22758999.2344                   22758997.5664
   4745878.74247   3704435.39644  23522120.3284                   23522120.0084
  14826291.16447  11559120.89644  23790551.8444                   23790553.8324
  12107910.96946   9436286.33143  24217850.0234                   24217851.4884
 11  7 29 16 33 30.0000000  0 10G06G03G16G20G13G23G19G07G32G10
  -7105160.87147  -5533908.30045  21958121.8524                   21958121.3404
 -11603169.75048  -9033438.43846  21030776.2424                   21030775.6254
  -6794820.88348  -5279088.41446  21167866.5554                   21167864.1254
   4626569.31647   3616624.77344  22872704.5084                   22872703.8754
 -12055347.18748  -9390523.75346  20926391.7974                   20926389.8714
 -21458236.32048 -16709839.52847  19953695.0234                   19953691.1564
   1774394.74647   1390812.73445  22735530.4534                   22735528.9964
   4650181.77746   3629866.36144  23503909.1484                   23503909.5664
  14885063.71147  11604917.55044  23801735.8834                   23801737.9774
  12024394.73446   9371208.79643  24201957.6414                   24201958.9024
 11  7 29 16 34  0.0000000  0 10G06G03G16G20G13G23G19G07G32G10
  -7148070.16447  -5567344.10245  21949956.0704                   21949955.5634
 -11679805.37948  -9093154.51746  21016193.0554                   21016191.7934
  -6761235.67648  -5252918.14246  21174257.4774                   21174255.3914
   4676387.58247   3655444.09444  22882184.5084                   22882184.3204
 -12156008.72748  -9468961.30746  20907236.5634                   20907234.4964
 -21508577.64848 -16749066.55247  19944115.6954                   19944111.3444
   1651266.03547   1294868.33145  22712100.1174                   22712097.6414
   4554516.34847   3555321.96744  23485704.8524                   23485704.9844
  14943870.87947  11650741.13244  23812926.5004                   23812929.0984
  11941360.16046   9306506.55943  24186156.0474                   24186158.0474
 11  7 29 16 34 30.0000000  0 10G06G03G16G20G13G23G19G07G32G10
  -7190429.35947  -5600351.26045  21941895.2344                   21941895.0944
 -11755886.46148  -9152438.48246  21001715.3594                   21001714.1024
  -6727311.80948  -5226483.98146  21180713.1564                   21180710.8674
   4726366.04347   3694388.26244  22891695.0164                   22891694.6844
 -12256341.23848  -9547142.47446  20888143.7424                   20888141.9454
 -21558406.71948 -16787894.41747  19934633.4144                   19934629.2504
   1528345.54747   1199086.16245  22688708.9694                   22688706.6724
   4458887.46547   3480805.99744  23467506.7274                   23467507.5864
  15002715.11346  11696593.63344  23824124.9224                   23824126.6134
  11858813.43846   9242184.46643  24170448.2194                   24170448.8634
 11  7 29 16 35  0.0000000  0 10G06G03G16G20G13G23G19G07G32G10
  -7232241.91447  -5632932.48145  21933938.4844                   21933938.5044
 -11831415.46948  -9211292.25346  20987342.6564                   20987341.5004
  -6693056.35548  -5199791.45346  21187231.3134                   21187229.1884
   4776497.33647   3733451.49244  22901234.9614                   22901234.5784
 -12356346.43448  -9625068.58846  20869113.5394                   20869111.5704
 -21607726.12148 -16826325.13147  19925248.5784                   19925244.4804
   1405632.67647   1103465.79145  22665357.4304                   22665355.8594
   4363290.67647   3406315.03644  23449315.9144                   23449315.5864
  15061589.37546  11742469.47543  23835327.7814                   23835330.3204
  11776751.71146   9178240.29143  24154832.3594                   24154833.2114
 11  7 29 16 35 30.0000000  0 10G06G03G16G20G13G23G19G07G32G10
  -7273506.39547  -5665086.62845  21926086.2424                   21926085.8054
 -11906389.53548  -9269713.60946  20973075.5394                   20973074.4884
  -6658471.33648  -5172842.11346  21193812.7814                   21193810.6174
   4826778.70747   3772631.69444  22910803.3364                   22910803.0554
 -12456020.99248  -9702737.06346  20850146.4694                   20850143.9844
 -21656533.88748 -16864357.17547  19915960.3364                   19915956.5274
   1283131.12547   1008010.08245  22642046.5004                   22642044.1454
   4267726.08647   3331849.16544  23431130.1024                   23431130.2584
  15120491.85246  11788367.37143  23846536.0864                   23846539.0164
  11695176.67646   9114675.37843  24139309.4454                   24139309.5314
 11  7 29 16 36  0.0000000  0 10G06G03G16G20G13G23G19G07G32G10
  -7314220.43047  -5696811.87445  21918338.4454                   21918337.9694
 -11980805.21548  -9327699.85246  20958914.6804                   20958913.8674
  -6623557.87148  -5145636.84446  21200456.9144                   21200454.5314
   4877209.38347   3811928.22244  22920399.9534                   22920399.5124
 -12555360.86748  -9780144.73746  20831242.3364                   20831240.7814
 -21704826.91448 -16901988.11947  19906770.6884                   19906767.1724
   1160845.73047    912722.81045  22618776.0234                   22618773.7704
   4172195.18047   3257409.56644  23412951.3284                   23412951.6764
  15179421.40646  11834286.34743  23857751.0944                   23857752.9804
  11614090.80946   9051491.56743  24123878.5784                   24123879.7034
 11  7 29 16 36 30.0000000  0 10G06G03G16G20G13G23G19G07G32G10
  -7354385.48447  -5728109.31845  21910695.3364                   21910695.2854
 -12054662.66848  -9385251.10646  20944859.9844                   20944859.1374
  -6588321.06248  -5118179.63146  21207162.0704                   21207159.5164
   4927783.37547   3851336.44744  22930023.8594                   22930023.4494
 -12654366.10248  -9857291.65846  20812402.1484                   20812400.5704
 -21752606.19148 -16939218.74347  19897678.6174                   19897674.6724
   1038777.37547    817604.66445  22595546.9534                   22595544.8524
   4076695.25447   3182994.11144  23394777.9694                   23394778.0824
  15238372.91846  11880222.38543  23868969.4614                   23868970.7774
  11533492.79746   8988687.94043  24108541.5394                   24108543.0944
 11  7 29 16 37  0.0000000  0 10G06G03G16G20G13G23G19G07G32G10
  -7394000.63347  -5758978.28445  21903157.1254                   21903156.6454
 -12127959.46148  -9442365.48046  20930911.9534                   20930911.0314
  -6552763.05148  -5090472.12946  21213928.7344                   21213926.1884
   4978498.75447   3890854.79944  22939674.7584                   22939674.7424
 -12753033.50448  -9934175.33346  20793626.2424                   20793624.4844
 -21799869.59448 -16976047.39147  19888685.1484                   19888680.7584
    916929.75447    722658.50245  22572360.1954                   22572358.1644
   3981226.62547   3108603.00844  23376610.7894                   23376610.8984
  15297344.36346  11926173.97243  23880190.9614                   23880193.4884
  11453384.60546   8926266.00143  24093297.3914                   24093299.0474
 11  7 29 16 37 30.0000000  0 10G06G03G16G20G13G23G19G07G32G10
  -7433065.50047  -5789418.46345  21895723.2504                   21895722.8244
 -12200694.16848  -9499041.87846  20917071.5084                   20917070.2034
  -6516887.32848  -5062517.05546  21220755.7114                   21220753.1094
   5029351.46947   3930480.18144  22949352.3524                   22949351.9264
 -12851361.10248 -10010794.21746  20774915.4224                   20774913.4964
 -21846616.35248 -17012473.45147  19879789.1334                   19879785.2074
    795305.91447    627886.72645  22549215.9614                   22549213.9694
   3885788.36747   3034235.61144  23358449.2424                   23358449.8054
  15356332.30546  11972138.45143  23891416.5004                   23891417.9734
  11373766.39546   8864225.84343  24078146.9774                   24078148.1374
 11  7 29 16 38  0.0000000  0 10G06G03G16G20G13G23G19G07G32G10
  -7471580.29347  -5819430.00145  21888394.2504                   21888393.7424
 -12272865.12948  -9555278.99346  20903337.7114                   20903336.3874
  -6480697.14548  -5034316.96246  21227642.3134                   21227640.0864
   5080337.62547   3970209.52344  22959054.6804                   22959054.0664
 -12949347.24648 -10087147.04246  20756268.9694                   20756267.1764
 -21892845.87948 -17048496.48747  19870991.8284                   19870988.3164
    673908.02047    533290.97345  22526114.8054                   22526112.5864
   3790379.57047   2959891.13145  23340293.8364                   23340294.2704
  15415333.59047  12018113.27243  23902644.7664                   23902645.6604
  11294638.62946   8802567.80843  24063089.9924                   24063090.7974
 11  7 29 16 38 30.0000000  0 10G06G03G16G20G13G23G19G07G32G10
  -7509542.44947  -5849010.92345  21881170.3524                   21881169.3554
 -12344469.06648  -9611074.25346  20889711.6414                   20889710.9264
  -6444193.43448  -5005872.55846  21234588.8984                   21234586.5984
   5131456.38746   4010042.22144  22968782.2344                   22968781.8674
 -13046987.51248 -10163230.35846  20737688.5234                   20737687.0704
 -21938554.85248 -17084113.88847  19862294.0864                   19862289.8484
    552741.24247    438875.34745  22503057.5944                   22503055.4534
   3695001.54347   2885570.64744  23322144.2974                   23322144.7584
  15474347.36747  12064097.90644  23913874.7504                   23913876.5314
  11216004.47346   8741294.43943  24048125.8284                   24048125.9694
 11  7 29 16 39  0.0000000  0 10G06G03G16G20G13G23G19G07G32G10
  -7546952.23447  -5878161.43645  21874051.0554                   21874050.6644
 -12415504.79348  -9666426.75846  20876193.5944                   20876193.3014
  -6407379.68748  -4977186.57146  21241594.2194                   21241591.9574
   5182704.05946   4049975.33444  22978534.3524                   22978534.1884
 -13144280.28147 -10239042.89146  20719175.1484                   20719172.6294
 -21983742.53148 -17119325.09347  19853695.0634                   19853691.3594
    431807.95347    344641.64145  22480044.7194                   22480042.9844
   3599653.32446   2811273.39144  23304000.4844                   23303999.8284
  15533370.15247  12110089.45744  23925107.0084                   23925108.4494
  11137864.11746   8680405.84943  24033255.6334                   24033257.1994
 11  7 29 16 39 30.0000000  0 10G06G03G16G20G13G23G19G07G32G10
  -7583812.27747  -5906883.55045  21867037.2734                   21867036.7624
 -12485973.87948  -9721337.72346  20862783.9144                   20862783.4064
  -6370261.99648  -4948263.73346  21248657.8834                   21248655.2234
   5234073.79347   4090003.58744  22988309.5944                   22988309.4654
 -13241226.58247 -10314585.45546  20700726.3524                   20700724.6214
 -22028411.15248 -17154131.83147  19845194.6094                   19845190.7154
    311108.52747    250590.19145  22457076.2034                   22457074.3094
   3504331.38346   2736996.58444  23285860.9224                   23285860.7974
  15592395.94947  12156083.41244  23936338.2974                   23936340.5274
  11060214.58246   8619899.73043  24018479.5944                   24018480.4534
 11  7 29 16 40  0.0000000  0 10G06G03G16G20G13G23G19G07G32G10
  -7620118.11747  -5935173.85545  21860128.3834                   21860127.6334
 -12555870.21148  -9775802.38946  20849483.3834                   20849482.6024
  -6332839.07448  -4919103.04446  21255778.9384                   21255776.9144
   5285566.80946   4130127.89744  22998108.6564                   22998108.6644
 -13337819.65247 -10389852.75946  20682345.3364                   20682343.5664
 -22072555.78948 -17188530.26347  19836794.3834                   19836790.5514
    190649.93047    156726.40645  22434153.6804                   22434152.1994
   3409039.48846   2662743.20944  23267727.7664                   23267727.2194
  15651426.42247  12202081.01344  23947571.8674                   23947573.6884
  10983061.15646   8559780.18343  24003798.1564                   24003798.6294
 11  7 29 16 40 30.0000000  0 10G06G03G16G20G13G23G19G07G32G10
  -7655872.35947  -5963034.29445  21853324.9224                   21853323.8444
 -12625195.15648  -9829821.81446  20836291.2734                   20836290.4654
  -6295116.72348  -4889709.04846  21262957.4694                   21262955.4804
   5337176.80147   4170343.36644  23007929.7734                   23007929.7774
 -13434060.36747 -10464845.52346  20664031.2114                   20664029.1994
 -22116177.74248 -17222521.40947  19828493.4384                   19828489.2664
     70432.11347     63050.22345  22411277.0164                   22411274.9654
   3313773.87946   2588510.32944  23249599.1094                   23249598.7424
  15710455.16046  12248077.21744  23958804.9614                   23958807.1294
  10906401.54246   8500045.47343  23989209.8834                   23989210.4024
 11  7 29 16 41  0.0000000  0 10G06G03G16G20G13G23G19G07G32G10
  -7691070.48847  -5990461.41645  21846626.4064                   21846625.8284
 -12693942.42648  -9883391.09946  20823208.8674                   20823208.3284
  -6257093.69548  -4860080.75146  21270192.7664                   21270190.7544
   5388904.83247   4210650.82944  23017773.2734                   23017773.0664
 -13529941.96548 -10539558.43846  20645785.4454                   20645783.3404
 -22159271.53948 -17256101.01547  19820292.8834                   19820288.5824
    -49537.52047    -30432.55245  22388447.4774                   22388445.4344
   3218538.80146   2514301.20544  23231475.4534                   23231476.2774
  15769484.19946  12294073.67343  23970038.1724                   23970040.4024
  10830240.93046   8440699.48443  23974717.0474                   23974717.9844
 11  7 29 16 41 30.0000000  0 10G06G03G16G20G13G23G19G07G32G10
  -6150287.96147  -4789851.67145  22139827.7734                   22139827.0234
 -11186685.59447  -8708905.25346  21110030.3054                   21110030.0234
  -4643350.98848  -3602618.92146  21577277.9224                   21577275.7934
   7016168.71147   5478648.53244  23327431.3914                   23327431.2814
 -12050036.09447  -9386385.01146  20927402.4844                   20927400.4774
 -20626411.66048 -16061664.75847  20111986.5634                   20111982.6094
   1406170.96547   1103885.79645  22665459.8204                   22665457.5554
   4698759.86746   3667720.28544  23513152.7584                   23513152.6214
  17403931.42246  13567668.70644  24281062.7114                   24281065.5634
  12330005.27746   9609347.06543  24260112.7974                   24260113.5314
 11  7 29 16 42  0.0000000  0 10G06G03G16G20G13G23G19G07G32G10
  -6184373.05547  -4816411.49145  22133341.9144                   22133340.8204
 -11254273.77348  -8761571.35146  21097168.5704                   21097168.1214
  -4604735.40248  -3572528.88346  21584626.0164                   21584624.0784
   7068123.09047   5519132.36644  23337317.9614                   23337317.9614
 -12145192.89148  -9460533.14946  20909294.4064                   20909292.5514
 -20668446.19548 -16094418.95347  20103987.5394                   20103983.4734
   1286706.62947   1010796.76945  22642726.2584                   22642724.0634
   4603584.15646   3593557.44644  23495041.8524                   23495040.9804
  17462951.78546  13613658.38244  24292294.6484                   24292296.9104
  12254844.46946   9550780.25443  24245810.5314                   24245812.0164
 11  7 29 16 42 30.0000000  0 10G06G03G16G20G13G23G19G07G32G10
  -6217908.85247  -4842543.28745  22126960.0314                   22126959.4304
 -11321287.83247  -8813790.09846  21084416.7504                   21084415.9574
  -4565835.55548  -3542217.34446  21592028.6254                   21592026.3284
   7120178.20347   5559694.67644  23347224.2194                   23347223.8014
 -12239991.68447  -9534402.33046  20891254.7274                   20891252.7584
 -20709957.72348 -16126765.60647  20096088.1644                   20096084.2894
   1167491.79347    917902.14645  22620040.1174                   22620038.0204
   4508429.54346   3519411.05144  23476934.1094                   23476933.7114
  17521956.19946  13659635.66244  24303522.5084                   24303524.9964
  12180176.70746   9492597.57943  24231601.3594                   24231603.3134
 11  7 29 16 43  0.0000000  0 10G06G03G16G20G13G23G19G07G32G10
  -6250895.46147  -4868247.14145  22120682.8054                   22120682.1994
 -11387726.30947  -8865560.33046  21071773.7814                   21071772.6564
  -4526654.48048  -3511686.66046  21599484.4694                   21599482.4064
   7172330.46946   5600332.68344  23357148.4454                   23357148.1994
 -12334430.35547  -9607990.88646  20873283.9844                   20873281.8874
 -20750945.15648 -16158703.88247  20088288.6254                   20088284.7974
   1048529.43447    825204.25845  22597402.5944                   22597400.5904
   4413295.56646   3445280.71845  23458830.6644                   23458830.4614
  17580941.38746  13705597.94744  24314747.6414                   24314749.4694
  12106002.49246   9434799.51443  24217486.2424                   24217487.8794
 11  7 29 16 43 30.0000000  0 10G06G03G16G20G13G23G19G07G32G10
  -6283325.55547  -4893517.34645  22114512.0164                   22114510.8244
 -11453580.24647  -8916875.06746  21059242.1024                   21059241.0124
  -4487188.07048  -3480933.66646  21606994.8834                   21606992.1884
   7224583.77347   5641049.43344  23367091.6954                   23367091.8014
 -12428499.14547  -9681291.23646  20855383.1094                   20855381.3484
 -20791400.20348 -16190227.31247  20080590.3914                   20080586.2194
    929829.48447    732710.85245  22574814.6024                   22574812.9884
   4318188.92646   3371171.67444  23440732.1414                   23440732.6054
  17639911.60546  13751548.54444  24325968.7584                   24325971.0864
  12032329.50846   9377392.02243  24203466.8674                   24203467.9064
 11  7 29 16 44  0.0000000  0 10G06G03G16G20G13G23G19G07G32G10
  -6315205.84847  -4918359.14745  22108445.2424                   22108444.2544
 -11518855.12547  -8967738.59646  21046820.5004                   21046819.7274
  -4447446.08648  -3449965.91846  21614557.1954                   21614555.0164
   7276928.30947   5681837.28344  23377053.1644                   23377052.5904
 -12522203.33247  -9754307.47246  20837551.8284                   20837550.1724
 -20831328.91848 -16221340.61247  20072992.2114                   20072987.8324
    811388.38747    640419.14245  22552276.0554                   22552274.0084
   4223102.41046   3297078.34644  23422637.9384                   23422638.0784
  17698857.49246  13797480.23444  24337186.0864                   24337188.9844
  11959151.38746   9320370.13643  24189540.8984                   24189542.8444
 11  7 29 16 44 30.0000000  0 10G06G03G16G20G13G23G19G07G32G10
  -6346531.31247  -4942768.61145  22102484.2114                   22102483.4064
 -11583544.89147  -9018146.21146  21034510.2194                   21034509.3524
  -4407426.38748  -3418781.76646  21622172.7274                   21622170.6254
   7329365.39546   5722697.25844  23387031.7194                   23387031.2234
 -12615535.24248  -9827033.62246  20819791.3444                   20819789.5554
 -20870725.57848 -16252039.32447  20065494.9304                   20065491.0944
    693213.91047    548335.19545  22529787.8444                   22529785.9734
   4128040.21546   3223003.97244  23404548.1024                   23404548.3754
  17757781.00846  13843394.44343  24348398.5314                   24348401.8134
  11886473.83246   9263738.33743  24175711.3204                   24175712.6724
 11  7 29 16 45  0.0000000  0 10G06G03G16G20G13G23G19G07G32G10
  -6377300.43447  -4966744.57045  22096629.1564                   22096628.3284
 -11647646.85247  -9068095.79246  21022312.6174                   21022311.6254
  -4367130.54748  -3387382.46146  21629841.2584                   21629838.6094
   7381893.27046   5763627.96744  23397026.8914                   23397026.4304
 -12708491.60247  -9899467.14546  20802102.4844                   20802100.6054
 -20909587.67648 -16282321.49647  20058099.9384                   20058096.0824
    575310.52047    456462.47245  22507351.5784                   22507349.4774
   4033003.77747   3148949.63245  23386463.5634                   23386463.6684
  17816680.58646  13889290.05744  24359607.6484                   24359610.1134
  11814298.77346   9207498.05443  24161977.1174                   24161978.2664
 11  7 29 16 45 30.0000000  0 10G06G03G16G20G13G23G19G07G32G10
  -6407514.86347  -4990288.30045  22090879.3134                   22090878.8554
 -11711161.04747  -9117587.37446  21010225.8284                   21010225.4224
  -4326563.28548  -3355771.64046  21637560.8754                   21637558.3674
   7434507.43446   5804625.90444  23407039.4454                   23407039.1024
 -12801071.52348  -9971607.33446  20784485.1644                   20784482.9384
 -20947915.88348 -16312187.64847  20050806.3834                   20050802.6174
    457679.49247    364801.98345  22484967.3364                   22484965.4344
   3937990.72346   3074913.52244  23368382.9924                   23368383.1024
  17875551.76246  13935163.50044  24370810.7974                   24370813.2074
  11742624.88346   9151648.37543  24148337.8524                   24148339.0044
 11  7 29 16 46  0.0000000  0 10G06G03G16G20G13G23G19G07G32G10
  -6437177.02347  -5013401.67845  22085234.5554                   22085233.9494
 -11774088.95347  -9166622.11746  20998251.4064                   20998250.5634
  -4285729.86348  -3323953.41746  21645331.0944                   21645328.8954
   7487201.87946   5845686.39544  23417066.5234                   23417066.8094
 -12893275.43447 -10043454.52846  20766939.1804                   20766937.1914
 -20985712.04748 -16341639.22047  20043614.0314                   20043610.0234
    340321.32847    273354.11245  22462634.5944                   22462632.6564
   3842998.10547   3000893.35945  23350306.4924                   23350306.7074
  17934389.42646  13981010.83743  24382006.2894                   24382009.8594
  11671450.20346   9096187.62943  24134793.8754                   24134795.5234
 11  7 29 16 46 30.0000000  0 10G06G03G16G20G13G23G19G07G32G10
  -6466277.43047  -5036077.33145  22079697.5004                   22079696.3524
 -11836419.76247  -9215191.57546  20986390.1564                   20986389.6524
  -4244623.85248  -3291922.78446  21653153.4064                   21653151.2544
   7539983.05146   5886814.47644  23427110.6484                   23427111.4694
 -12985091.73848 -10114999.68646  20749467.0944                   20749465.2074
 -21022965.76248 -16370668.10447  20036525.0084                   20036520.9104
    223248.62147    182128.67245  22440356.4454                   22440354.2074
   3748034.92247   2926896.13745  23332235.4694                   23332235.8364
  17993200.17646  14026837.21643  24393198.3594                   24393200.8404
  11600784.59846   9041123.59243  24121346.6724                   24121348.0084
 11  7 29 16 47  0.0000000  0 10G06G03G16G20G13G23G19G07G32G10
  -6494820.68747  -5058318.83445  22074265.0784                   22074264.6174
 -11898156.37148  -9263298.02146  20974642.2734                   20974641.1954
  -4203252.75848  -3259685.59846  21661026.2734                   21661024.0824
   7592842.94546   5928003.87144  23437169.6644                   23437170.1684
 -13076522.56248 -10186244.47446  20732068.1644                   20732066.4344
 -21059680.82848 -16399277.27047  20029538.3984                   20029534.4454
    106459.69547     91124.36345  22418132.1804                   22418130.0274
   3653096.15646   2852917.92845  23314169.2664                   23314169.1564
  18051976.55546  14072636.79743  24404383.8754                   24404386.0044
  11530624.21946   8986453.24543  24107994.9534                   24107996.5744
 11  7 29 16 47 30.0000000  0 10G06G03G16G20G13G23G19G07G32G10
  -6522807.27047  -5080126.57145  22068940.0634                   22068938.7154
 -11959297.86748  -9310940.76346  20963007.3914                   20963006.6884
  -4161619.80148  -3227244.38046  21668948.6644                   21668946.9804
   7645777.83646   5969251.74444  23447242.7664                   23447242.8714
 -13167566.21548 -10257187.56546  20714743.5784                   20714741.0594
 -21095856.82448 -16427466.37147  20022654.2814                   20022650.1214
    -10042.98047       343.10545  22395962.4614                   22395960.1174
   3558181.12146   2778958.19045  23296107.4844                   23296107.2464
  18110715.47746  14118407.15343  24415560.5164                   24415564.2584
  11460969.01246   8932176.51243  24094739.9144                   24094741.6054
 11  7 29 16 48  0.0000000  0 10G06G03G16G20G13G23G19G07G32G10
  -6550233.04347  -5101497.31945  22063721.0784                   22063720.0044
 -12019838.89148  -9358115.58146  20951486.7194                   20951485.7384
  -4119723.70348  -3194598.10146  21676921.1334                   21676919.1054
   7698788.71946   6010558.79344  23457331.2274                   23457331.3284
 -13258216.10548 -10327823.82846  20697493.1724                   20697491.2774
 -21131488.70348 -16455231.48447  20015873.7734                   20015869.4774
   -126252.10947    -90209.40345  22373848.4774                   22373846.2584
   3463293.59046   2705019.89645  23278051.4224                   23278050.6844
  18169418.35546  14164149.45443  24426732.2974                   24426734.5744
  11391823.49246   8878296.95343  24081582.3364                   24081583.6644
 11  7 29 16 48 30.0000000  0 10G06G03G16G20G13G23G19G07G32G10
  -6577094.44547  -5122428.29845  22058609.5474                   22058608.5084
 -12079774.87548  -9404818.95646  20940081.4534                   20940080.2664
  -4077563.83248  -3161746.29846  21684944.1564                   21684942.1054
   7751876.42246   6051925.75744  23467432.7344                   23467433.3444
 -13348466.80948 -10398149.02846  20680319.0084                   20680317.0474
 -21166572.12148 -16482569.21247  20009197.8204                   20009193.7974
   -242161.31647   -180528.22545  22351791.7344                   22351789.3444
   3368436.75046   2631105.54745  23260000.6804                   23260000.1024
  18228085.85246  14209864.20143  24437896.2894                   24437899.3674
  11323191.31646   8824817.32443  24068521.6804                   24068522.9844
 11  7 29 16 49  0.0000000  0 10G06G03G16G20G13G23G19G07G32G10
  -6603392.54747  -5142920.32845  22053605.2894                   22053604.1884
 -12139105.44548  -9451050.57246  20928790.9144                   20928789.7304
  -4035144.03548  -3128691.93746  21693015.8914                   21693014.1134
   7805036.58246   6093349.11744  23477549.4924                   23477549.3164
 -13438316.99648 -10468162.14846  20663221.1094                   20663219.2234
 -21201107.58248 -16509479.98447  20002625.8204                   20002621.5824
   -357768.30947   -270611.55245  22329792.2814                   22329790.3714
   3273609.25046   2557214.02444  23241954.8914                   23241954.7934
  18286714.41046  14255548.53643  24449053.1024                   24449056.4344
  11255072.00046   8771737.41843  24055559.2344                   24055560.3484
 11  7 29 16 49 30.0000000  0 10G06G03G16G20G13G23G19G07G32G10
  -6629133.13347  -5162977.93745  22048706.5634                   22048705.9024
 -12197834.98447  -9496813.84546  20917615.2814                   20917613.9804
  -3992472.77048  -3095441.64046  21701136.4774                   21701133.9384
   7858259.89546   6134821.73144  23487676.9844                   23487677.7664
 -13527769.74247 -10537865.57946  20646198.9304                   20646196.7774
 -21235099.54748 -16535967.24547  19996157.2274                   19996153.3244
   -473075.83247   -360461.50945  22307850.4614                   22307847.8444
   3178805.13346   2483340.75144  23223914.3594                   23223914.2544
  18345295.61346  14301195.99944  24460201.2424                   24460203.7384
  11187460.24246   8719052.95643  24042692.7274                   24042693.9694
 11  7 29 16 50  0.0000000  0 10G06G03G16G20G13G23G19G07G32G10
  -6654312.71147  -5182598.38745  22043914.8594                   22043914.3914
 -12255958.71948  -9542105.07246  20906554.6334                   20906553.4384
  -3949549.22348  -3061994.75946  21709304.1564                   21709302.0784
   7911547.60547   6176344.50544  23497818.0234                   23497817.4224
 -13616819.45348 -10607254.96446  20629253.2114                   20629251.0944
 -21268543.86748 -16562027.77447  19989792.9064                   19989788.8594
   -588077.61747   -450073.25545  22285965.9614                   22285963.9694
   3084027.81346   2409488.34545  23205879.1954                   23205878.9844
  18403830.34046  14346807.30243  24471340.3204                   24471342.9654
  11120360.29346   8666767.33843  24029924.0234                   24029925.3554
 11  7 29 16 50 30.0000000  0 10G06G03G16G20G13G23G19G07G32G10
  -6678931.88347  -5201782.17245  22039230.3364                   22039229.6134
 -12313476.04747  -9586923.76946  20895609.5004                   20895608.1954
  -3906376.70748  -3028353.88345  21717520.0634                   21717517.8984
   7964895.89146   6217914.48744  23507969.2344                   23507969.9454
 -13705464.39547 -10676328.93046  20612384.3524                   20612382.5314
 -21301440.12148 -16587661.24147  19983533.2034                   19983528.9264
   -702770.46947   -539444.26745  22264140.6644                   22264138.4924
   2989276.27047   2335656.02245  23187848.6174                   23187848.0824
  18462315.39546  14392379.83944  24482469.7274                   24482472.4064
  11053771.81346   8614880.31443  24017253.0634                   24017254.4384
 11  7 29 16 51  0.0000000  0 10G06G03G16G20G13G23G19G07G32G10
  -6702992.50847  -5220530.70745  22034651.9454                   22034651.3634
 -12370387.73048  -9631270.54146  20884779.4454                   20884778.4184
  -3862959.83648  -2994522.60545  21725781.7504                   21725779.3404
   8018299.62146   6259527.64044  23518132.6954                   23518132.7464
 -13793704.34048 -10745087.32146  20595593.1484                   20595591.4534
 -21333789.40248 -16612868.49947  19977377.0084                   19977373.1684
   -817153.32847   -628573.70345  22242374.1644                   22242372.0044
   2894548.51647   2261842.23644  23169822.3834                   23169821.5744
  18520746.44946  14437910.28143  24493589.1254                   24493591.9144
  10987693.40246   8563390.67544  24004678.2584                   24004680.5984
 11  7 29 16 51 30.0000000  0 10G06G03G16G20G13G23G19G07G32G10
  -6726498.18447  -5238846.83045  22030178.8284                   22030177.8634
 -12426695.60548  -9675146.81246  20874064.3914                   20874063.4534
  -3819304.78148  -2960505.70745  21734089.3134                   21734087.1844
   8071752.58646   6301179.21344  23528304.2424                   23528304.3714
 -13881540.05148 -10813530.73846  20578878.6094                   20578876.5554
 -21365594.36348 -16637651.60047  19971325.1724                   19971320.9614
   -931226.59047   -717461.91345  22220666.9304                   22220664.9144
   2799840.85947   2188044.08945  23151800.1024                   23151799.4104
  18579117.57846  14483394.10643  24504696.2424                   24504699.3874
  10922122.11346   8512296.21244  23992200.7664                   23992201.8164
 11  7 29 16 52  0.0000000  0  9G06G03G16G20G13G23G19G07G10
  -6749446.37147  -5256728.53745  22025811.8364                   22025811.0164
 -12482396.20348  -9718549.86846  20863465.3914                   20863464.1644
  -3775411.60248  -2926303.27046  21742441.8444                   21742439.6954
   8125254.64146   6342868.99844  23538485.5704                   23538485.4964
 -13968966.59848 -10881655.30346  20562241.9534                   20562240.0634
 -21396851.71948 -16662008.01047  19965377.1564                   19965373.0204
  -1044984.48847   -806104.40246  22199019.3754                   22199016.7704
   2705155.69947   2114263.54145  23133781.5314                   23133781.3404
  10857060.74246   8461599.10443  23979821.0234                   23979820.9964
 11  7 29 16 52 30.0000000  0  9G06G03G16G20G13G23G19G07G10
  -6771838.53547  -5274176.99145  22021550.7584                   22021550.3324
 -12537489.41847  -9761479.63246  20852981.1254                   20852980.3244
  -3731284.40648  -2891918.47045  21750838.7974                   21750836.7544
   8178800.78546   6384593.16244  23548674.7274                   23548674.8554
 -14055983.04748 -10949460.33346  20545682.8444                   20545681.2584
 -21427561.97348 -16685938.09147  19959532.9534                   19959529.0904
  -1158425.40247   -894499.86845  22177432.2034                   22177430.0234
   2610491.43847   2040499.22845  23115767.6024                   23115767.3404
  10792508.65646   8411298.75044  23967535.2894                   23967536.7274
 11  7 29 16 53  0.0000000  0  9G06G03G16G20G13G23G19G07G10
  -6793659.59447  -5291180.43445  22017398.4614                   22017397.9264
 -12591958.89548  -9803923.39446  20842615.7114                   20842614.6094
  -3686910.69948  -2857341.59945  21759283.0554                   21759280.9494
   8232403.57846   6426361.41444  23558875.1254                   23558875.4614
 -14142571.91048 -11016932.16746  20529205.9144                   20529204.0204
 -21457709.13748 -16709429.41447  19953796.2424                   19953792.6134
  -1271530.98047   -982634.03946  22155908.9694                   22155906.8164
   2515863.37147   1966763.11645  23097760.6254                   23097760.5784
  10728481.12546   8361407.20143  23955352.0394                   23955353.0634
 11  7 29 16 53 30.0000000  0  9G06G03G16G20G13G23G19G07G10
  -6814909.67247  -5307738.96245  22013354.6884                   22013354.3954
 -12645803.66448  -9845880.36846  20832369.6564                   20832368.7894
  -3642293.07448  -2822574.66346  21767773.5944                   21767771.7624
   8286060.16046   6468171.62044  23569085.9924                   23569086.6524
 -14228730.65648 -11084068.83746  20512810.4534                   20512808.3094
 -21487292.61348 -16732481.50047  19948166.7814                   19948162.7974
  -1384298.06247  -1070504.45045  22134449.7894                   22134447.7544
   2421271.21147   1893055.00645  23079760.0234                   23079760.3164
  10664978.46946   8311924.63743  23943267.9844                   23943268.6134
 11  7 29 16 54  0.0000000  0  9G06G03G16G20G13G23G19G07G10
  -6835598.38747  -5323860.05845  22009417.9694                   22009417.1374
 -12699032.01248  -9887356.98946  20822240.4144                   20822239.8874
  -3597443.46548  -2787626.95646  21776308.6254                   21776306.3984
   8339758.01247   6510013.96444  23579304.3364                   23579304.8984
 -14314466.82848 -11150876.23146  20496495.0474                   20496493.2154
 -21516320.99248 -16755101.03847  19942642.9144                   19942639.1054
  -1496733.09447  -1158116.11845  22113054.3444                   22113051.9804
   2326705.50047   1819367.49945  23061765.1724                   23061764.5904
  10601991.52346   8262843.91943  23931281.5314                   23931282.7384
 11  7 29 16 54 30.0000000  0  9G06G03G16G20G13G23G19G07G10
  -6855726.51247  -5339544.32345  22005587.6254                   22005586.4494
 -12751643.12548  -9928352.66046  20812228.8594                   20812227.9224
  -3552364.97748  -2752500.89846  21784886.5394                   21784884.4534
   8393493.72346   6551885.82244  23589529.3754                   23589530.2774
 -14399778.33648 -11217352.71746  20480260.8674                   20480258.8444
 -21544793.96148 -16777287.79047  19937224.6334                   19937220.6564
  -1608833.21547  -1245466.81045  22091722.5704                   22091720.0164
   2232165.48447   1745700.01645  23043774.9694                   23043774.5124
  10539520.30146   8214165.06843  23919393.7734                   23919395.2974
 11  7 29 16 55  0.0000000  0  9G06G03G16G20G13G23G19G07G10
  -6875300.69547  -5354796.94545  22001862.9224                   22001862.1914
 -12803642.88348  -9968871.94146  20802333.7584                   20802332.9024
  -3507066.98048  -2717203.79745  21793506.2974                   21793504.5514
   8447258.02046   6593779.95644  23599761.3984                   23599761.9694
 -14484669.21548 -11283501.43146  20464106.5554                   20464105.0124
 -21572717.46148 -16799046.37647  19931910.9454                   19931907.0164
  -1720601.89547  -1332559.25345  22070453.0864                   22070451.1094
   2137644.71147   1672047.51545  23025788.2194                   23025787.6914
  10477558.71947   8165883.34143  23907603.2344                   23907604.4534
 11  7 29 16 55 30.0000000  0  9G06G03G16G20G13G23G19G07G10
  -6894320.35547  -5369617.49145  21998243.5164                   21998242.8164
 -12855029.27048 -10008913.27646  20792555.1484                   20792554.5554
  -3461551.32848  -2681737.10945  21802167.7274                   21802165.7504
   8501048.71946   6635694.63444  23609997.5704                   23609997.8524
 -14569136.52748 -11349320.11046  20448033.4144                   20448031.3834
 -21600089.84448 -16820375.53147  19926702.2504                   19926698.3834
  -1832035.31247  -1419390.45246  22049248.5314                   22049246.1914
   2043143.57847   1598410.33045  23007805.1484                   23007804.6024
  10416107.66846   8117999.38244  23895909.4614                   23895910.5204
 11  7 29 16 56  0.0000000  0  9G06G03G16G20G13G23G19G07G10
  -6912786.82047  -5384006.96745  21994729.2194                   21994728.6334
 -12905802.25448 -10048476.63446  20782893.7274                   20782892.7274
  -3415821.77348  -2646103.71345  21810869.5234                   21810867.6454
   8554861.62546   6677626.64044  23620237.8984                   23620238.7234
 -14653178.98448 -11414807.73346  20432040.7894                   20432038.4454
 -21626911.82448 -16841275.79447  19921597.8364                   19921594.3284
  -1943131.38747  -1505958.77545  22028107.6884                   22028105.0274
   1948661.11747   1524787.69045  22989825.7584                   22989824.6294
  10355166.35246   8070512.69243  23884312.5474                   23884313.9184
 11  7 29 16 56 30.0000000  0  9G06G03G16G20G13G23G19G07G10
  -6930704.60947  -5397968.88445  21991319.9924                   21991319.1174
 -12955964.94948 -10087564.45846  20773347.5164                   20773347.1764
  -3369884.89547  -2610308.78845  21819610.8834                   21819609.1454
   8608689.93046   6719570.62644  23630480.2194                   23630482.2544
 -14736798.27748 -11479965.61546  20416128.5084                   20416126.1644
 -21653186.75048 -16861749.79547  19916598.2034                   19916594.0554
  -2053891.03147  -1592264.95945  22007031.0164                   22007028.1684
   1854193.20747   1451176.39045  22971848.8284                   22971848.0354
  10294730.82546   8023419.99643  23872811.9454                   23872812.6174
 11  7 29 16 57  0.0000000  0  9G06G03G16G20G13G23G19G07G10
  -6948069.96147  -5411500.33245  21988015.5004                   21988014.9534
 -13005512.53948 -10126172.95846  20763918.8914                   20763918.5274
  -3323739.60948  -2574351.45645  21828392.2424                   21828390.1844
   8662534.25046   6761527.07744  23640727.5944                   23640728.4964
 -14819988.66848 -11544789.29546  20400297.8134                   20400295.5554
 -21678910.11748 -16881794.00547  19911703.2194                   19911699.3874
  -2164307.53547  -1678303.75645  21986018.7974                   21986016.8554
   1759743.66847   1377579.39645  22953875.6254                   22953874.6484
  10234805.05547   7976724.71343  23861408.4844                   23861409.3754
 11  7 29 16 57 30.0000000  0  9G06G03G16G20G13G23G19G07G10
  -6964892.39547  -5424608.74345  21984814.2814                   21984813.9024
 -13054453.18748 -10164308.53146  20754606.0784                   20754605.4654
  -3277397.53148  -2538240.79245  21837211.0234                   21837209.4184
   8716382.95747   6803486.97944  23650974.9614                   23650975.8244
 -14902756.67248 -11609283.84146  20384547.2344                   20384545.6804
 -21704090.59848 -16901415.18547  19906911.6174                   19906907.9024
  -2274386.76247  -1764079.73945  21965071.3364                   21965069.4064
   1665302.92247   1303989.27145  22935904.2584                   22935903.2344
  10175380.28946   7930419.68643  23850100.3444                   23850101.1884
 11  7 29 16 58  0.0000000  0  9G06G03G16G20G13G23G19G07G10
  -6981166.03547  -5437289.51045  21981717.4694                   21981716.9574
 -13102779.72348 -10201965.56246  20745409.7344                   20745409.0634
  -3230854.60948  -2501973.62445  21846067.8674                   21846066.4534
   8770239.48046   6845452.97544  23661222.3984                   23661224.4264
 -14985093.55548 -11673442.44546  20368879.1414                   20368877.1524
 -21728721.12148 -16920607.82647  19902224.4224                   19902220.6564
  -2384119.33647  -1849585.59945  21944190.1954                   21944187.7234
   1570877.61747   1230411.13845  22917935.6644                   22917934.5274
  10116462.80946   7884509.96843  23838888.9774                   23838889.4884
 11  7 29 16 58 30.0000000  0  9G06G03G16G20G13G23G19G07G10
  -6996891.45747  -5449543.09045  21978724.6954                   21978724.3794
 -13150491.75847 -10239143.77546  20736330.4304                   20736329.7814
  -3184114.11748  -2465552.50746  21854962.4844                   21854960.4924
   8824100.48446   6887422.42844  23671471.9844                   23671473.8284
 -15066997.47348 -11737263.68446  20353293.4694                   20353291.0004
 -21752801.62548 -16939371.89147  19897641.9774                   19897638.6094
  -2493502.47747  -1934819.18845  21923375.2424                   21923372.4414
   1476467.21147   1156844.61345  22899969.7274                   22899968.7974
  10058052.66046   7838995.58943  23827773.7344                   23827775.0234
 11  7 29 16 59  0.0000000  0  9G06G03G16G20G13G23G19G07G10
  -7012065.82847  -5461367.31745  21975837.4844                   21975836.9104
 -13197585.07048 -10275839.86146  20727368.9844                   20727368.3404
  -3137175.39847  -2428976.90645  21863894.5634                   21863893.0984
   8877966.17646   6929395.53644  23681723.1954                   23681724.8754
 -15148463.03148 -11800743.35246  20337791.1024                   20337789.1414
 -21776328.12948 -16957704.25647  19893165.0084                   19893161.3834
  -2602530.30147  -2019775.89945  21902627.6334                   21902625.3204
   1382074.83247   1083292.14945  22882007.6884                   22882006.3794
  10000153.15646   7793879.10243  23816755.7664                   23816756.7114
 11  7 29 16 59 30.0000000  0  9G06G03G16G20G13G23G19G07G10
  -7026688.16047  -5472761.34245  21973054.7814                   21973054.4384
 -13244057.26648 -10312051.95646  20718525.8984                   20718525.0784
  -3090039.31247  -2392247.52145  21872864.3364                   21872862.8524
   8931835.30546   6971371.34044  23691974.7274                   23691975.6764
 -15229486.56648 -11863878.57346  20322372.6954                   20322370.6454
 -21799298.94148 -16975603.61447  19888794.1174                   19888790.3794
  -2711197.77747  -2104451.82446  21881949.2734                   21881946.4654
   1287702.02747   1009754.93845  22864048.7894                   22864048.4654
   9942765.80146   7749161.69544  23805835.8524                   23805836.0554
 11  7 29 17  0  0.0000000  0  9G06G03G16G20G13G23G19G07G10
  -7040756.23847  -5483723.47245  21970377.3444                   21970377.6484
 -13289904.93448 -10347777.42646  20709801.0474                   20709800.2624
  -3042706.16047  -2355364.56845  21881871.1564                   21881869.7504
   8985707.68046   7013349.69144  23702225.3364                   23702226.8674
 -15310063.25848 -11926665.60046  20307039.3834                   20307037.5704
 -21821710.83648 -16993067.45847  19884529.2344                   19884525.3954
  -2819499.16047  -2188842.49745  21861339.9844                   21861337.5234
   1193351.39847    936235.03345  22846094.2814                   22846094.1294
   9885893.54746   7704845.64744  23795012.5634                   23795014.0044
 11  7 29 17  0 30.0000000  0  9G06G03G16G20G13G23G19G07G10
  -7054269.43747  -5494253.27145  21967806.1334                   21967806.1914
 -13335126.12148 -10383014.72446  20701196.2114                   20701195.2074
  -2995177.15247  -2318329.00545  21890915.8914                   21890914.1254
   9039581.87146   7055329.42844  23712477.6174                   23712478.2854
 -15390189.41048 -11989101.57046  20291792.1564                   20291790.0474
 -21843562.21548 -17010094.52947  19880370.9454                   19880367.4494
  -2927430.54747  -2272944.84246  21840801.6094                   21840798.8134
   1099024.03547    862733.24145  22828144.4534                   22828144.0474
   9829537.34446   7660931.76944  23784288.8054                   23784289.7894
 11  7 29 17  1  0.0000000  0  9G06G03G16G20G13G23G19G07G10
  -7067227.97347  -5504350.85545  21965339.7894                   21965340.0084
 -13379720.01248 -10417763.20646  20692709.7974                   20692708.9304
  -2947454.80547  -2281142.80245  21899997.1644                   21899995.6094
   9093454.81346   7097308.22744  23722729.9144                   23722730.1054
 -15469862.73848 -12051184.67246  20276630.8364                   20276628.9884
 -21864852.51648 -17026684.40347  19876319.4304                   19876316.2464
  -3034988.66847  -2356756.33646  21820333.5084                   21820331.3914
   1004720.05947    789249.70145  22810199.1024                   22810198.4024
   9773697.37946   7617420.07343  23773662.6484                   23773663.7974
 11  7 29 17  1 30.0000000  0  9G06G03G16G20G13G23G19G07G10
  -7079632.12147  -5514016.44045  21962979.5944                   21962979.8914
 -13423685.49248 -10452022.03246  20684343.4774                   20684342.8674
  -2899540.93047  -2243807.35245  21909115.3524                   21909113.0944
   9147324.21147   7139284.25844  23732981.0704                   23732981.7234
 -15549080.85247 -12112913.07546  20261555.8754                   20261553.9844
 -21885580.80948 -17042836.33847  19872375.1804                   19872371.1684
  -3142170.11747  -2440274.32446  21799937.5314                   21799935.1484
    910439.64547    715784.47645  22792257.9224                   22792257.4304
   9718374.02046   7574310.99644  23763134.8134                   23763136.1644
 11  7 29 17  2  0.0000000  0  9G06G03G16G20G13G23G19G07G10
  -7091473.47747  -5523243.48545  21960726.8674                   21960726.4734
 -13467013.01247 -10485783.73446  20676098.4924                   20676098.1484
  -2851429.56247  -2206318.02045  21918270.4384                   21918268.3594
   9201196.52346   7181262.54944  23743232.2734                   23743233.0904
 -15627832.32448 -12174277.85046  20246569.9694                   20246568.0004
 -21905738.02748 -17058543.29247  19868539.4224                   19868535.6054
  -3248962.84047  -2523489.39546  21779615.8594                   21779613.4534
    816192.10247    642344.89345  22774322.9844                   22774322.4774
   9663576.15647   7531611.42544  23752706.8284                   23752708.2854
 11  7 29 17  2 30.0000000  0  9G06G03G16G20G13G23G19G07G10
  -7102758.52047  -5532037.04545  21958578.9454                   21958579.0514
 -13509708.10948 -10519052.66146  20667974.1174                   20667973.6094
  -2803128.96947  -2168681.23845  21927461.8524                   21927459.6604
   9255061.91847   7223235.41843  23753483.0004                   23753483.8714
 -15706121.02047 -12235282.03046  20231672.5314                   20231670.2384
 -21925329.66448 -17073809.52347  19864811.3594                   19864807.3404
  -3355370.09447  -2606404.09946  21759367.2584                   21759364.7074
    721971.32847    568926.15045  22756393.9304                   22756392.9024
   9609297.66846   7489316.47944  23742378.1174                   23742379.7974
 11  7 29 17  3  0.0000000  0  9G06G03G16G20G13G23G19G07G10
  -7113480.49247  -5540391.84145  21956538.8594                   21956538.8404
 -13551762.69547 -10551822.47646  20659971.1024                   20659970.4144
  -2754634.24647  -2130893.17145  21936689.7664                   21936688.2034
   9308925.50846   7265206.88844  23763732.6954                   23763733.7584
 -15783937.44547 -12295918.20046  20216864.3054                   20216862.2274
 -21944348.11748 -17088629.11647  19861192.1094                   19861188.2234
  -3461381.56247  -2689010.40146  21739193.9304                   21739191.3874
    627784.36347    495533.74645  22738470.5314                   22738469.7074
   9555545.93846   7447432.04243  23732150.0004                   23732150.1604
 11  7 29 17  3 30.0000000  0  9G06G03G16G20G13G23G19G07G10
  -5548217.24247  -4320706.21645  22254398.6254                   22254398.2194
 -12017752.30148  -9356489.69546  20951883.7114                   20951882.8484
  -1130527.41447   -865355.41945  22245747.1094                   22245745.4064
  10938205.20746   8534775.30444  24073774.2504                   24073776.0234
 -14285854.51647 -11128580.85846  20501940.0634                   20501938.0554
 -20387369.95748 -15875399.40847  20157475.0944                   20157471.5984
  -1991568.14547  -1543701.22046  22018890.1564                   22018887.5514
   2109057.25447   1649772.39745  23020347.0234                   23020346.9344
  11077745.33647   8633561.42143  24021814.6804                   24021815.8484
 11  7 29 17  4  0.0000000  0  9G06G03G16G20G13G23G19G07G10
  -5557813.11347  -4328183.51645  22252572.6094                   22252573.0004
 -12058521.99647  -9388258.29546  20944125.2344                   20944124.5474
  -1081650.46547   -827269.49745  22255047.9304                   22255046.7034
  10992058.85246   8576739.02144  24084022.3134                   24084024.7344
 -14362718.14847 -11188474.59246  20487313.2424                   20487311.2344
 -20405239.18048 -15889323.50847  20154074.8594                   20154071.5234
  -2096776.85547  -1625681.99546  21998869.2194                   21998866.5904
   2014940.66447   1576434.82345  23002437.3204                   23002437.0234
  11025048.92246   8592499.28543  24011786.8134                   24011787.5704
 11  7 29 17  4 30.0000000  0  9G06G03G16G20G13G23G19G07G10
  -5566851.68047  -4335226.58545  22250852.0084                   22250852.5204
 -12098653.39147  -9419529.52846  20936488.8204                   20936487.7584
  -1032591.18047   -789041.53745  22264383.7664                   22264382.1254
  11045898.46146   8618691.77144  24094267.8594                   24094269.7274
 -14439106.90647 -11247998.29646  20472777.2034                   20472774.9184
 -20422537.99648 -15902803.13147  20150782.9844                   20150779.4694
  -2201584.48047  -1707350.23546  21978924.8594                   21978922.8134
   1920854.18847   1503120.71945  22984533.3054                   22984532.7894
  10972875.22746   8551844.45143  24001858.6174                   24001860.1454
 11  7 29 17  5  0.0000000  0  9G06G03G16G20G13G23G19G07G10
  -5575328.52047  -4341831.94745  22249239.2504                   22249239.2704
 -12138140.83247  -9450298.97046  20928974.8444                   20928973.8954
   -983346.80547   -750669.33045  22273754.5944                   22273752.7894
  11099726.12946   8660635.26543  24104511.1724                   24104512.5274
 -14515013.53147 -11307146.31146  20458332.4774                   20458330.3594
 -20439261.21548 -15915834.23547  20147600.4844                   20147596.9184
  -2305982.92647  -1788699.63346  21959058.9534                   21959056.2584
   1826803.25847   1429834.30445  22966635.5784                   22966635.6564
  10921229.13347   8511600.76644  23992031.0474                   23992031.3444
 11  7 29 17  5 30.0000000  0  9G06G03G16G20G13G23G19G07G10
  -5583247.14847  -4348002.31545  22247732.3834                   22247732.5044
 -12176986.45748  -9480568.28946  20921582.6334                   20921581.7624
   -933922.35247   -712156.80845  22283160.2274                   22283158.0784
  11153536.32046   8702565.12043  24114750.6334                   24114752.0864
 -14590438.56248 -11365919.05646  20443979.4144                   20443977.7194
 -20455411.33648 -15928418.77547  20144527.5704                   20144523.7424
  -2409972.07847  -1869730.10846  21939270.1804                   21939267.9924
   1732784.97747   1356573.35145  22948744.6564                   22948744.6254
  10870107.55147   8471765.76944  23982302.8204                   23982303.1094
 11  7 29 17  6  0.0000000  0  9G06G03G16G20G13G23G19G07G10
  -5590600.18747  -4353731.97745  22246333.3674                   22246333.6724
 -12215181.67248  -9510330.80146  20914314.2114                   20914313.0864
   -884312.34847   -673499.70245  22292600.8754                   22292598.8794
  11207334.88746   8744485.92543  24124988.7344                   24124989.9534
 -14665371.89848 -11424308.65046  20429720.3364                   20429718.1134
 -20470980.27348 -15940550.43347  20141564.9924                   20141560.9144
  -2513541.19147  -1950433.26246  21919561.3754                   21919559.1764
   1638807.35247   1283344.03945  22930861.5314                   22930861.2894
  10819518.48047   8432345.74244  23972675.7584                   23972676.6644
 11  7 29 17  6 30.0000000  0  9G06G03G16G20G13G23G19G07G10
  -5597394.86347  -4359026.54745  22245040.5164                   22245040.2734
 -12252732.46947  -9539591.16346  20907168.5234                   20907167.3484
   -834525.68747   -634704.95245  22302074.9844                   22302072.9774
  11261111.98846   8786389.94443  24135222.7274                   24135223.3324
 -14739817.92647 -11482318.54646  20415553.7034                   20415551.8794
 -20485974.16048 -15952234.01547  20138711.5864                   20138707.6804
  -2616693.46147  -2030811.61746  21899932.4614                   21899930.1094
   1544864.22347   1210141.63545  22912984.9924                   22912984.5594
  10769455.44547   8393335.55144  23963148.8524                   23963150.1174
 11  7 29 17  7  0.0000000  0  9G06G03G16G20G13G23G19G07G10
  -5603632.90247  -4363887.37945  22243852.9144                   22243853.3914
 -12289639.64547  -9568349.99446  20900145.1724                   20900144.3634
   -784565.98047   -595775.34845  22311581.8284                   22311579.8984
  11314864.16046   8828274.58343  24145450.9614                   24145452.5744
 -14813775.58647 -11539947.88446  20401479.5704                   20401478.0944
 -20500393.83248 -15963470.14747  20135967.7274                   20135963.9614
  -2719427.17247  -2110863.82446  21880382.6724                   21880380.2344
   1450954.75447   1136965.46045  22895114.0944                   22895113.9064
  10719916.94147   8354734.16244  23953722.3984                   23953723.4384
 11  7 29 17  7 30.0000000  0  9G06G03G16G20G13G23G19G07G10
  -5609319.46547  -4368318.48045  22242771.0004                   22242771.2114
 -12325907.33648  -9596610.53546  20893243.7894                   20893243.0864
   -734439.83647   -556716.04445  22321120.5784                   22321118.9384
  11368584.29346   8870134.28343  24155673.9614                   24155675.1684
 -14887246.92648 -11597198.26846  20387498.5474                   20387496.8634
 -20514243.62548 -15974262.22947  20133331.9144                   20133328.5314
  -2821743.60247  -2190590.88046  21860912.5704                   21860909.9614
   1357074.61347   1063812.13745  22877249.5554                   22877248.7424
  10670898.49646   8316537.96943  23944394.4534                   23944395.3284
 11  7 29 17  8  0.0000000  0  9G06G03G16G20G13G23G19G07G10
  -5614456.03147  -4372321.01445  22241793.8364                   22241793.4304
 -12361535.78147  -9624372.95346  20886463.8054                   20886463.0944
   -684150.56247   -517529.64245  22330690.1564                   22330687.9574
  11422268.79346   8911966.12143  24165889.7664                   24165891.3054
 -14960230.67248 -11654068.72746  20373610.5784                   20373608.1804
 -20527523.95348 -15984610.56247  20130804.7974                   20130801.5084
  -2923640.43447  -2269990.97246  21841521.9924                   21841519.7734
   1263223.24647    990681.25545  22859389.9144                   22859389.5664
  10622399.30947   8278746.37943  23935164.8914                   23935166.6914
 11  7 29 17  8 30.0000000  0  9G06G03G16G20G13G23G19G07G10
  -5619041.40247  -4375894.05345  22240921.0394                   22240921.1254
 -12396522.10947  -9651635.03346  20879806.2034                   20879805.3634
   -633698.24647   -478216.18345  22340291.0394                   22340289.0314
  11475917.26646   8953769.99843  24176099.1724                   24176100.5744
 -15032722.43047 -11710555.79646  20359815.3674                   20359814.0004
 -20540232.68748 -15994513.49247  20128386.7114                   20128383.0554
  -3025112.97747  -2349060.45146  21822212.2424                   21822210.1564
   1169402.81647    917574.48145  22841536.5634                   22841535.8834
  10574420.99247   8241360.71144  23926035.1174                   23926036.3754
 11  7 29 17  9  0.0000000  0  9G06G03G16G20G13G23G19G07G10
  -5623079.21147  -4379040.43445  22240153.2344                   22240152.9534
 -12430869.39847  -9678399.15346  20873270.0944                   20873269.1174
   -583088.48047   -438780.04245  22349922.0474                   22349919.9144
  11529524.38746   8995541.57844  24186300.5234                   24186302.2194
 -15104723.80548 -11766660.75746  20346114.1334                   20346112.3094
 -20552372.66048 -16003973.24747  20126076.2974                   20126072.8404
  -3126161.27347  -2427799.34446  21802983.2814                   21802981.0354
   1075610.34047    844489.46145  22823688.5554                   22823687.6294
  10526960.40646   8204378.44843  23917003.3524                   23917004.7194
 11  7 29 17  9 30.0000000  0  9G06G03G16G20G13G23G19G07G10
  -5626567.89847  -4381758.88845  22239488.8204                   22239488.7854
 -12464574.75847  -9704663.06746  20866856.3204                   20866855.2624
   -532320.92647   -399220.94245  22359582.0944                   22359580.6054
  11583089.34046   9037280.29443  24196493.9064                   24196495.5474
 -15176229.51248 -11822379.48846  20332507.5084                   20332505.6564
 -20563941.26248 -16012987.76447  20123875.0234                   20123871.3324
  -3226779.75047  -2506203.32746  21783836.4304                   21783834.2234
    981848.79347    771428.55145  22805846.3594                   22805845.3014
  10480019.77346   8167801.32043  23908071.1884                   23908072.3054
 11  7 29 17 10  0.0000000  0  9G06G03G16G20G13G23G19G07G10
  -5629513.60547  -4384054.26245  22238928.4774                   22238928.4224
 -12497643.34847  -9730430.79546  20860563.4534                   20860562.5394
   -481403.50047   -359545.05445  22369271.9924                   22369270.4224
  11636604.21146   9078980.03143  24206676.7194                   24206679.0164
 -15247243.39848 -11877714.96846  20318993.0314                   20318991.6374
 -20574943.96948 -16021561.32947  20121781.6954                   20121778.0474
  -3326970.87547  -2584274.30246  21764770.7344                   21764768.0434
    888112.80547    698387.56045  22788008.6804                   22788008.7424
  10433593.04746   8131624.61443  23899236.2584                   23899237.2464
 11  7 29 17 10 30.0000000  0  9G06G03G16G20G13G23G19G07G10
  -5631915.94147  -4385926.21345  22238471.3054                   22238471.3134
 -12530073.49648  -9755701.05346  20854392.1484                   20854391.7664
   -430337.10547   -319753.09845  22378989.2424                   22378987.7934
  11690067.90246   9120639.86443  24216851.1024                   24216852.2894
 -15317761.41847 -11932664.07346  20305574.4844                   20305572.8484
 -20585379.21148 -16029692.72647  20119795.3524                   20119791.6454
  -3426730.75447  -2662009.23846  21745787.0864                   21745784.3054
    794403.81647    625367.60845  22770176.7664                   22770175.9804
  10387681.27047   8095849.19143  23890500.0084                   23890500.4534
 11  7 29 17 11  0.0000000  0  9G06G03G16G20G13G23G19G07G10
  -5633779.96947  -4387378.73245  22238116.7034                   22238116.2344
 -12561869.33648  -9780477.02446  20848341.5084                   20848340.9774
   -379128.23047   -279850.12545  22388733.7734                   22388732.5434
  11743473.65646   9162254.49843  24227013.5164                   24227016.2034
 -15387785.89547 -11987228.58146  20292249.5084                   20292247.5394
 -20595251.11348 -16037385.14447  20117917.0084                   20117913.6994
  -3526060.04347  -2739408.66646  21726885.2894                   21726882.5744
    700717.70347    552365.49945  22752349.0234                   22752347.7424
  10342280.33646   8060471.80743  23881860.2114                   23881860.5944
 11  7 29 17 11 30.0000000  0  9G06G03G16G20G13G23G19G07G10
  -5635107.83647  -4388413.43545  22237863.6644                   22237864.1174
 -12593031.88748  -9804759.53446  20842411.3204                   20842410.5904
   -327780.56247   -239839.00645  22398505.4304                   22398503.5314
  11796817.39146   9203820.88443  24237164.6094                   24237166.9844
 -15457316.31647 -12041408.12946  20279017.8134                   20279016.2894
 -20604561.04348 -16044639.66547  20116145.4924                   20116141.9344
  -3624957.65647  -2816471.69646  21708065.4454                   21708063.0394
    607053.81647    479380.67945  22734524.9924                   22734524.0744
  10297388.60946   8025491.24243  23873318.0634                   23873317.9964
 11  7 29 17 12  0.0000000  0  9G06G03G16G20G13G23G19G07G10
  -5635902.26647  -4389032.48045  22237712.9144                   22237712.1644
 -12623562.77048  -9828549.84146  20836601.8594                   20836600.8874
   -276298.12947   -199722.85045  22408302.5474                   22408300.6454
  11850094.67245   9245335.49143  24247302.5704                   24247304.9344
 -15526352.11747 -12095202.25046  20265880.8984                   20265878.9924
 -20613310.90248 -16051457.77347  20114480.5394                   20114476.8014
  -3723422.56247  -2893197.56746  21689328.1724                   21689325.8674
    513410.61747    406411.97745  22716705.3054                   22716704.3404
  10253003.55946   7990905.42843  23864871.2194                   23864871.6214
 11  7 29 17 12 30.0000000  0  9G06G03G16G20G13G23G19G07G10
  -5636167.67247  -4389239.30845  22237662.3674                   22237662.0744
 -12653465.55548  -9851850.71346  20830911.4064                   20830910.6094
   -224686.61747   -159506.12245  22418123.4614                   22418121.9144
  11903299.76645   9286793.82043  24257427.0164                   24257430.0904
 -15594894.96947 -12148612.26446  20252837.5704                   20252835.7704
 -20621504.19148 -16057842.19247  20112921.6334                   20112917.9144
  -3821454.95347  -2969586.40646  21670673.4694                   21670670.8954
    419784.65247    333456.72745  22698889.0944                   22698887.8054
  10209121.33646   7956711.48043  23856520.8594                   23856521.4104
 11  7 29 17 13  0.0000000  0  9G06G03G16G20G13G23G19G07G10
  -5635901.82047  -4389032.14845  22237713.1174                   22237712.6684
 -12682736.52048  -9874659.27246  20825341.5234                   20825340.4964
   -172945.24647   -119188.20845  22427969.9224                   22427968.0204
  11956433.14145   9328196.27743  24267538.5634                   24267540.8204
 -15662939.55147 -12201634.03046  20239888.8914                   20239887.3054
 -20629137.66448 -16063790.38747  20111468.9304                   20111465.1094
  -3919049.05147  -3045633.73646  21652101.7194                   21652099.1414
    326179.46947    260517.63845  22681076.3134                   22681075.3914
  10165744.71146   7922911.49643  23848266.2034                   23848267.2704
 11  7 29 17 13 30.0000000  0  9G06G03G16G20G13G23G19G07G10
  -5635108.59847  -4388414.05645  22237864.0864                   22237863.6764
 -12711378.47748  -9896977.67746  20819891.0234                   20819889.8364
   -121079.12147    -78773.09845  22437839.1954                   22437837.8554
  12009488.97346   9369538.25743  24277636.3524                   24277636.7704
 -15730486.75847 -12254268.21346  20227035.2424                   20227033.3754
 -20636214.02048 -16069304.45347  20110122.2974                   20110118.8484
  -4016205.14147  -3121339.73946  21633613.4224                   21633611.1644
    232592.38747    187592.68445  22663267.3054                   22663266.7384
  10122870.27346   7889502.86143  23840108.3204                   23840108.7704
 11  7 29 17 14  0.0000000  0  9G06G03G16G20G13G23G19G07G10
  -5633788.33247  -4387385.29345  22238114.9614                   22238114.8674
 -12739390.89848  -9918805.55446  20814560.7344                   20814559.4654
    -69089.92647    -38262.08945  22447732.6174                   22447731.3244
  12062465.73045   9410818.66943  24287716.7034                   24287718.5664
 -15797533.85547 -12306512.72546  20214276.9614                   20214274.7034
 -20642733.10948 -16074384.30847  20108881.7894                   20108877.9884
  -4112919.44147  -3196701.49546  21615209.5944                   21615206.7424
    139024.33647    114682.54745  22645461.8444                   22645461.3594
  10080498.27746   7856485.62643  23832044.8594                   23832046.0394
